<?xml version="1.0" encoding="UTF-8" standalone="no" ?>
<gpx xmlns="http://www.topografix.com/GPX/1/1" xmlns:xsi="http://www.w3.org/2001/XMLSchema-instance" xsi:schemaLocation="http://www.topografix.com/GPX/1/1 http://www.topografix.com/GPX/1/1/gpx.xsd" version="1.1" creator="VisuGPX - https://www.visugpx.com">
  <metadata>
    <name>VTT - Gourdon</name>
    <desc><![CDATA[VTT - Gourdon sous la neige

CR ASCVTT <>]]></desc>
  </metadata>
  <trk>
    <name><![CDATA[2012-01-29T08:38:16Z]]></name>
    <trkseg>
      <trkpt lat="43.72169" lon="6.97769">
        <ele>740.583</ele>
        <time>2012-01-29T08:38:17Z</time>
      </trkpt>
      <trkpt lat="43.72167" lon="6.97767">
        <ele>739.984</ele>
        <time>2012-01-29T08:38:42Z</time>
      </trkpt>
      <trkpt lat="43.72158" lon="6.97759">
        <ele>741.465</ele>
        <time>2012-01-29T08:38:49Z</time>
      </trkpt>
      <trkpt lat="43.72155" lon="6.97755">
        <ele>741.935</ele>
        <time>2012-01-29T08:38:51Z</time>
      </trkpt>
      <trkpt lat="43.72144" lon="6.97735">
        <ele>746.696</ele>
        <time>2012-01-29T08:38:59Z</time>
      </trkpt>
      <trkpt lat="43.72142" lon="6.9772">
        <ele>748.306</ele>
        <time>2012-01-29T08:39:04Z</time>
      </trkpt>
      <trkpt lat="43.72138" lon="6.97712">
        <ele>748.575</ele>
        <time>2012-01-29T08:39:07Z</time>
      </trkpt>
      <trkpt lat="43.72143" lon="6.97695">
        <ele>748.624</ele>
        <time>2012-01-29T08:39:12Z</time>
      </trkpt>
      <trkpt lat="43.72153" lon="6.97678">
        <ele>748.414</ele>
        <time>2012-01-29T08:39:18Z</time>
      </trkpt>
      <trkpt lat="43.72164" lon="6.97659">
        <ele>749.445</ele>
        <time>2012-01-29T08:39:26Z</time>
      </trkpt>
      <trkpt lat="43.7217" lon="6.97644">
        <ele>750.825</ele>
        <time>2012-01-29T08:39:32Z</time>
      </trkpt>
      <trkpt lat="43.7218" lon="6.97623">
        <ele>752.675</ele>
        <time>2012-01-29T08:39:39Z</time>
      </trkpt>
      <trkpt lat="43.72184" lon="6.97599">
        <ele>755.485</ele>
        <time>2012-01-29T08:39:47Z</time>
      </trkpt>
      <trkpt lat="43.72183" lon="6.97574">
        <ele>760.237</ele>
        <time>2012-01-29T08:39:55Z</time>
      </trkpt>
      <trkpt lat="43.72178" lon="6.97553">
        <ele>763.88</ele>
        <time>2012-01-29T08:40:02Z</time>
      </trkpt>
      <trkpt lat="43.72168" lon="6.97536">
        <ele>769.807</ele>
        <time>2012-01-29T08:40:09Z</time>
      </trkpt>
      <trkpt lat="43.72159" lon="6.97514">
        <ele>773.457</ele>
        <time>2012-01-29T08:40:17Z</time>
      </trkpt>
      <trkpt lat="43.72151" lon="6.97497">
        <ele>774.936</ele>
        <time>2012-01-29T08:40:23Z</time>
      </trkpt>
      <trkpt lat="43.72142" lon="6.97478">
        <ele>778.746</ele>
        <time>2012-01-29T08:40:30Z</time>
      </trkpt>
      <trkpt lat="43.7214" lon="6.9746">
        <ele>780.686</ele>
        <time>2012-01-29T08:40:36Z</time>
      </trkpt>
      <trkpt lat="43.72148" lon="6.97439">
        <ele>777.334</ele>
        <time>2012-01-29T08:40:43Z</time>
      </trkpt>
      <trkpt lat="43.72161" lon="6.97426">
        <ele>774.544</ele>
        <time>2012-01-29T08:40:49Z</time>
      </trkpt>
      <trkpt lat="43.7218" lon="6.97416">
        <ele>772.924</ele>
        <time>2012-01-29T08:40:57Z</time>
      </trkpt>
      <trkpt lat="43.72202" lon="6.97407">
        <ele>773.155</ele>
        <time>2012-01-29T08:41:06Z</time>
      </trkpt>
      <trkpt lat="43.72223" lon="6.97397">
        <ele>770.754</ele>
        <time>2012-01-29T08:41:14Z</time>
      </trkpt>
      <trkpt lat="43.72245" lon="6.97385">
        <ele>771.429</ele>
        <time>2012-01-29T08:41:23Z</time>
      </trkpt>
      <trkpt lat="43.72266" lon="6.97372">
        <ele>772.184</ele>
        <time>2012-01-29T08:41:32Z</time>
      </trkpt>
      <trkpt lat="43.72279" lon="6.97352">
        <ele>771.794</ele>
        <time>2012-01-29T08:41:40Z</time>
      </trkpt>
      <trkpt lat="43.72285" lon="6.97332">
        <ele>773.054</ele>
        <time>2012-01-29T08:41:46Z</time>
      </trkpt>
      <trkpt lat="43.72288" lon="6.97306">
        <ele>775.805</ele>
        <time>2012-01-29T08:41:54Z</time>
      </trkpt>
      <trkpt lat="43.72288" lon="6.97279">
        <ele>778.575</ele>
        <time>2012-01-29T08:42:02Z</time>
      </trkpt>
      <trkpt lat="43.72284" lon="6.97251">
        <ele>782.165</ele>
        <time>2012-01-29T08:42:11Z</time>
      </trkpt>
      <trkpt lat="43.72282" lon="6.97225">
        <ele>786.255</ele>
        <time>2012-01-29T08:42:19Z</time>
      </trkpt>
      <trkpt lat="43.72288" lon="6.97196">
        <ele>786.214</ele>
        <time>2012-01-29T08:42:28Z</time>
      </trkpt>
      <trkpt lat="43.72294" lon="6.97166">
        <ele>787.134</ele>
        <time>2012-01-29T08:42:37Z</time>
      </trkpt>
      <trkpt lat="43.72299" lon="6.97138">
        <ele>785.663</ele>
        <time>2012-01-29T08:42:45Z</time>
      </trkpt>
      <trkpt lat="43.72302" lon="6.97109">
        <ele>784.803</ele>
        <time>2012-01-29T08:42:53Z</time>
      </trkpt>
      <trkpt lat="43.723" lon="6.97081">
        <ele>790.366</ele>
        <time>2012-01-29T08:43:02Z</time>
      </trkpt>
      <trkpt lat="43.72298" lon="6.97059">
        <ele>794.205</ele>
        <time>2012-01-29T08:43:09Z</time>
      </trkpt>
      <trkpt lat="43.72295" lon="6.97033">
        <ele>796.975</ele>
        <time>2012-01-29T08:43:17Z</time>
      </trkpt>
      <trkpt lat="43.72292" lon="6.97003">
        <ele>799.614</ele>
        <time>2012-01-29T08:43:26Z</time>
      </trkpt>
      <trkpt lat="43.72289" lon="6.96969">
        <ele>799.614</ele>
        <time>2012-01-29T08:43:36Z</time>
      </trkpt>
      <trkpt lat="43.72289" lon="6.96936">
        <ele>800.673</ele>
        <time>2012-01-29T08:43:46Z</time>
      </trkpt>
      <trkpt lat="43.72289" lon="6.96904">
        <ele>803.494</ele>
        <time>2012-01-29T08:43:56Z</time>
      </trkpt>
      <trkpt lat="43.72285" lon="6.96866">
        <ele>807.434</ele>
        <time>2012-01-29T08:44:08Z</time>
      </trkpt>
      <trkpt lat="43.72282" lon="6.96836">
        <ele>808.664</ele>
        <time>2012-01-29T08:44:17Z</time>
      </trkpt>
      <trkpt lat="43.72279" lon="6.96814">
        <ele>811.274</ele>
        <time>2012-01-29T08:44:24Z</time>
      </trkpt>
      <trkpt lat="43.7228" lon="6.96789">
        <ele>809.593</ele>
        <time>2012-01-29T08:44:31Z</time>
      </trkpt>
      <trkpt lat="43.72287" lon="6.9677">
        <ele>808.753</ele>
        <time>2012-01-29T08:44:38Z</time>
      </trkpt>
      <trkpt lat="43.72299" lon="6.96758">
        <ele>808.323</ele>
        <time>2012-01-29T08:44:44Z</time>
      </trkpt>
      <trkpt lat="43.72318" lon="6.96751">
        <ele>807.983</ele>
        <time>2012-01-29T08:44:52Z</time>
      </trkpt>
      <trkpt lat="43.72336" lon="6.96753">
        <ele>806.563</ele>
        <time>2012-01-29T08:44:59Z</time>
      </trkpt>
      <trkpt lat="43.72349" lon="6.96762">
        <ele>809.344</ele>
        <time>2012-01-29T08:45:06Z</time>
      </trkpt>
      <trkpt lat="43.72357" lon="6.96779">
        <ele>812.394</ele>
        <time>2012-01-29T08:45:13Z</time>
      </trkpt>
      <trkpt lat="43.72363" lon="6.96803">
        <ele>815.094</ele>
        <time>2012-01-29T08:45:21Z</time>
      </trkpt>
      <trkpt lat="43.72371" lon="6.96837">
        <ele>817.224</ele>
        <time>2012-01-29T08:45:30Z</time>
      </trkpt>
      <trkpt lat="43.72379" lon="6.96861">
        <ele>816.914</ele>
        <time>2012-01-29T08:45:38Z</time>
      </trkpt>
      <trkpt lat="43.72387" lon="6.96887">
        <ele>816.283</ele>
        <time>2012-01-29T08:45:46Z</time>
      </trkpt>
      <trkpt lat="43.72395" lon="6.96907">
        <ele>816.803</ele>
        <time>2012-01-29T08:45:53Z</time>
      </trkpt>
      <trkpt lat="43.72401" lon="6.96928">
        <ele>818.583</ele>
        <time>2012-01-29T08:46:00Z</time>
      </trkpt>
      <trkpt lat="43.72412" lon="6.96951">
        <ele>817.843</ele>
        <time>2012-01-29T08:46:08Z</time>
      </trkpt>
      <trkpt lat="43.72427" lon="6.96977">
        <ele>816.003</ele>
        <time>2012-01-29T08:46:17Z</time>
      </trkpt>
      <trkpt lat="43.72445" lon="6.96993">
        <ele>815.734</ele>
        <time>2012-01-29T08:46:25Z</time>
      </trkpt>
      <trkpt lat="43.72465" lon="6.97004">
        <ele>815.513</ele>
        <time>2012-01-29T08:46:33Z</time>
      </trkpt>
      <trkpt lat="43.72478" lon="6.97018">
        <ele>816.755</ele>
        <time>2012-01-29T08:46:40Z</time>
      </trkpt>
      <trkpt lat="43.72487" lon="6.97038">
        <ele>819.144</ele>
        <time>2012-01-29T08:46:47Z</time>
      </trkpt>
      <trkpt lat="43.7249" lon="6.97065">
        <ele>820.273</ele>
        <time>2012-01-29T08:46:55Z</time>
      </trkpt>
      <trkpt lat="43.72485" lon="6.97086">
        <ele>821.554</ele>
        <time>2012-01-29T08:47:02Z</time>
      </trkpt>
      <trkpt lat="43.72476" lon="6.97108">
        <ele>823.294</ele>
        <time>2012-01-29T08:47:10Z</time>
      </trkpt>
      <trkpt lat="43.72468" lon="6.97128">
        <ele>825.004</ele>
        <time>2012-01-29T08:47:17Z</time>
      </trkpt>
      <trkpt lat="43.72465" lon="6.97153">
        <ele>826.224</ele>
        <time>2012-01-29T08:47:24Z</time>
      </trkpt>
      <trkpt lat="43.7247" lon="6.9717">
        <ele>827.754</ele>
        <time>2012-01-29T08:47:29Z</time>
      </trkpt>
      <trkpt lat="43.72483" lon="6.97179">
        <ele>828.124</ele>
        <time>2012-01-29T08:47:35Z</time>
      </trkpt>
      <trkpt lat="43.72499" lon="6.97174">
        <ele>828.224</ele>
        <time>2012-01-29T08:47:41Z</time>
      </trkpt>
      <trkpt lat="43.72513" lon="6.97155">
        <ele>829.424</ele>
        <time>2012-01-29T08:47:49Z</time>
      </trkpt>
      <trkpt lat="43.72526" lon="6.97136">
        <ele>830.254</ele>
        <time>2012-01-29T08:47:57Z</time>
      </trkpt>
      <trkpt lat="43.72537" lon="6.97119">
        <ele>832.334</ele>
        <time>2012-01-29T08:48:04Z</time>
      </trkpt>
      <trkpt lat="43.72552" lon="6.97094">
        <ele>833.763</ele>
        <time>2012-01-29T08:48:14Z</time>
      </trkpt>
      <trkpt lat="43.7257" lon="6.9707">
        <ele>835.844</ele>
        <time>2012-01-29T08:48:24Z</time>
      </trkpt>
      <trkpt lat="43.72584" lon="6.97049">
        <ele>836.894</ele>
        <time>2012-01-29T08:48:33Z</time>
      </trkpt>
      <trkpt lat="43.72601" lon="6.97024">
        <ele>839.335</ele>
        <time>2012-01-29T08:48:43Z</time>
      </trkpt>
      <trkpt lat="43.72612" lon="6.97006">
        <ele>840.475</ele>
        <time>2012-01-29T08:48:50Z</time>
      </trkpt>
      <trkpt lat="43.72621" lon="6.96988">
        <ele>842.364</ele>
        <time>2012-01-29T08:48:57Z</time>
      </trkpt>
      <trkpt lat="43.72632" lon="6.96963">
        <ele>844.294</ele>
        <time>2012-01-29T08:49:07Z</time>
      </trkpt>
      <trkpt lat="43.72642" lon="6.96942">
        <ele>846.404</ele>
        <time>2012-01-29T08:49:16Z</time>
      </trkpt>
      <trkpt lat="43.72651" lon="6.96921">
        <ele>847.864</ele>
        <time>2012-01-29T08:49:24Z</time>
      </trkpt>
      <trkpt lat="43.7266" lon="6.96901">
        <ele>849.414</ele>
        <time>2012-01-29T08:49:32Z</time>
      </trkpt>
      <trkpt lat="43.72669" lon="6.96882">
        <ele>850.924</ele>
        <time>2012-01-29T08:49:40Z</time>
      </trkpt>
      <trkpt lat="43.72676" lon="6.96864">
        <ele>852.424</ele>
        <time>2012-01-29T08:49:47Z</time>
      </trkpt>
      <trkpt lat="43.72683" lon="6.96847">
        <ele>853.834</ele>
        <time>2012-01-29T08:49:54Z</time>
      </trkpt>
      <trkpt lat="43.72696" lon="6.96826">
        <ele>855.354</ele>
        <time>2012-01-29T08:50:03Z</time>
      </trkpt>
      <trkpt lat="43.72709" lon="6.96818">
        <ele>857.405</ele>
        <time>2012-01-29T08:50:09Z</time>
      </trkpt>
      <trkpt lat="43.72712" lon="6.96815">
        <ele>858.095</ele>
        <time>2012-01-29T08:50:11Z</time>
      </trkpt>
      <trkpt lat="43.72714" lon="6.96811">
        <ele>858.713</ele>
        <time>2012-01-29T08:50:17Z</time>
      </trkpt>
      <trkpt lat="43.72714" lon="6.96811">
        <ele>870.843</ele>
        <time>2012-01-29T08:52:51Z</time>
      </trkpt>
      <trkpt lat="43.72708" lon="6.96802">
        <ele>867.792</ele>
        <time>2012-01-29T08:52:57Z</time>
      </trkpt>
      <trkpt lat="43.72707" lon="6.96799">
        <ele>867.633</ele>
        <time>2012-01-29T08:52:58Z</time>
      </trkpt>
      <trkpt lat="43.7271" lon="6.96783">
        <ele>866.924</ele>
        <time>2012-01-29T08:53:03Z</time>
      </trkpt>
      <trkpt lat="43.72716" lon="6.96754">
        <ele>865.104</ele>
        <time>2012-01-29T08:53:12Z</time>
      </trkpt>
      <trkpt lat="43.7272" lon="6.96728">
        <ele>864.384</ele>
        <time>2012-01-29T08:53:20Z</time>
      </trkpt>
      <trkpt lat="43.72725" lon="6.96699">
        <ele>864.403</ele>
        <time>2012-01-29T08:53:29Z</time>
      </trkpt>
      <trkpt lat="43.72729" lon="6.9667">
        <ele>864.894</ele>
        <time>2012-01-29T08:53:38Z</time>
      </trkpt>
      <trkpt lat="43.72732" lon="6.96648">
        <ele>865.704</ele>
        <time>2012-01-29T08:53:45Z</time>
      </trkpt>
      <trkpt lat="43.72735" lon="6.96621">
        <ele>865.004</ele>
        <time>2012-01-29T08:53:53Z</time>
      </trkpt>
      <trkpt lat="43.72738" lon="6.96587">
        <ele>866.603</ele>
        <time>2012-01-29T08:54:04Z</time>
      </trkpt>
      <trkpt lat="43.72738" lon="6.96556">
        <ele>867.794</ele>
        <time>2012-01-29T08:54:14Z</time>
      </trkpt>
      <trkpt lat="43.72738" lon="6.96528">
        <ele>869.974</ele>
        <time>2012-01-29T08:54:23Z</time>
      </trkpt>
      <trkpt lat="43.72738" lon="6.96506">
        <ele>871.103</ele>
        <time>2012-01-29T08:54:30Z</time>
      </trkpt>
      <trkpt lat="43.72737" lon="6.96474">
        <ele>873.103</ele>
        <time>2012-01-29T08:54:40Z</time>
      </trkpt>
      <trkpt lat="43.72736" lon="6.96445">
        <ele>874.523</ele>
        <time>2012-01-29T08:54:49Z</time>
      </trkpt>
      <trkpt lat="43.72735" lon="6.96409">
        <ele>874.923</ele>
        <time>2012-01-29T08:55:00Z</time>
      </trkpt>
      <trkpt lat="43.72734" lon="6.96381">
        <ele>875.903</ele>
        <time>2012-01-29T08:55:09Z</time>
      </trkpt>
      <trkpt lat="43.72734" lon="6.96353">
        <ele>877.853</ele>
        <time>2012-01-29T08:55:18Z</time>
      </trkpt>
      <trkpt lat="43.72733" lon="6.96329">
        <ele>880.323</ele>
        <time>2012-01-29T08:55:26Z</time>
      </trkpt>
      <trkpt lat="43.72732" lon="6.96305">
        <ele>883.103</ele>
        <time>2012-01-29T08:55:34Z</time>
      </trkpt>
      <trkpt lat="43.72731" lon="6.96285">
        <ele>885.052</ele>
        <time>2012-01-29T08:55:41Z</time>
      </trkpt>
      <trkpt lat="43.72732" lon="6.96259">
        <ele>885.742</ele>
        <time>2012-01-29T08:55:49Z</time>
      </trkpt>
      <trkpt lat="43.72738" lon="6.96231">
        <ele>887.023</ele>
        <time>2012-01-29T08:55:58Z</time>
      </trkpt>
      <trkpt lat="43.72748" lon="6.96205">
        <ele>888.903</ele>
        <time>2012-01-29T08:56:07Z</time>
      </trkpt>
      <trkpt lat="43.72762" lon="6.96174">
        <ele>890.703</ele>
        <time>2012-01-29T08:56:18Z</time>
      </trkpt>
      <trkpt lat="43.72779" lon="6.96147">
        <ele>891.693</ele>
        <time>2012-01-29T08:56:29Z</time>
      </trkpt>
      <trkpt lat="43.72793" lon="6.96128">
        <ele>893.523</ele>
        <time>2012-01-29T08:56:38Z</time>
      </trkpt>
      <trkpt lat="43.72808" lon="6.96112">
        <ele>896.573</ele>
        <time>2012-01-29T08:56:47Z</time>
      </trkpt>
      <trkpt lat="43.72827" lon="6.96097">
        <ele>899.113</ele>
        <time>2012-01-29T08:56:57Z</time>
      </trkpt>
      <trkpt lat="43.7285" lon="6.96083">
        <ele>898.892</ele>
        <time>2012-01-29T08:57:08Z</time>
      </trkpt>
      <trkpt lat="43.72869" lon="6.96072">
        <ele>899.112</ele>
        <time>2012-01-29T08:57:17Z</time>
      </trkpt>
      <trkpt lat="43.72888" lon="6.96061">
        <ele>899.332</ele>
        <time>2012-01-29T08:57:26Z</time>
      </trkpt>
      <trkpt lat="43.72907" lon="6.9605">
        <ele>899.972</ele>
        <time>2012-01-29T08:57:35Z</time>
      </trkpt>
      <trkpt lat="43.72928" lon="6.96037">
        <ele>900.012</ele>
        <time>2012-01-29T08:57:45Z</time>
      </trkpt>
      <trkpt lat="43.72947" lon="6.96027">
        <ele>899.672</ele>
        <time>2012-01-29T08:57:54Z</time>
      </trkpt>
      <trkpt lat="43.72968" lon="6.96015">
        <ele>902.092</ele>
        <time>2012-01-29T08:58:04Z</time>
      </trkpt>
      <trkpt lat="43.72985" lon="6.96004">
        <ele>905.413</ele>
        <time>2012-01-29T08:58:13Z</time>
      </trkpt>
      <trkpt lat="43.73002" lon="6.95994">
        <ele>906.642</ele>
        <time>2012-01-29T08:58:22Z</time>
      </trkpt>
      <trkpt lat="43.73024" lon="6.95986">
        <ele>907.802</ele>
        <time>2012-01-29T08:58:32Z</time>
      </trkpt>
      <trkpt lat="43.73041" lon="6.95981">
        <ele>909.753</ele>
        <time>2012-01-29T08:58:40Z</time>
      </trkpt>
      <trkpt lat="43.73056" lon="6.95976">
        <ele>909.863</ele>
        <time>2012-01-29T08:58:47Z</time>
      </trkpt>
      <trkpt lat="43.73073" lon="6.95972">
        <ele>910.672</ele>
        <time>2012-01-29T08:58:55Z</time>
      </trkpt>
      <trkpt lat="43.73096" lon="6.9596">
        <ele>912.062</ele>
        <time>2012-01-29T08:59:06Z</time>
      </trkpt>
      <trkpt lat="43.73118" lon="6.95946">
        <ele>913.733</ele>
        <time>2012-01-29T08:59:17Z</time>
      </trkpt>
      <trkpt lat="43.73136" lon="6.95933">
        <ele>915.022</ele>
        <time>2012-01-29T08:59:26Z</time>
      </trkpt>
      <trkpt lat="43.73149" lon="6.95922">
        <ele>917.223</ele>
        <time>2012-01-29T08:59:33Z</time>
      </trkpt>
      <trkpt lat="43.73163" lon="6.95914">
        <ele>918.26</ele>
        <time>2012-01-29T08:59:40Z</time>
      </trkpt>
      <trkpt lat="43.73183" lon="6.95899">
        <ele>919.433</ele>
        <time>2012-01-29T08:59:50Z</time>
      </trkpt>
      <trkpt lat="43.73197" lon="6.95889">
        <ele>920.032</ele>
        <time>2012-01-29T08:59:57Z</time>
      </trkpt>
      <trkpt lat="43.73212" lon="6.95874">
        <ele>920.212</ele>
        <time>2012-01-29T09:00:05Z</time>
      </trkpt>
      <trkpt lat="43.73228" lon="6.95854">
        <ele>921.633</ele>
        <time>2012-01-29T09:00:15Z</time>
      </trkpt>
      <trkpt lat="43.73242" lon="6.95836">
        <ele>922.782</ele>
        <time>2012-01-29T09:00:24Z</time>
      </trkpt>
      <trkpt lat="43.73258" lon="6.95821">
        <ele>923.913</ele>
        <time>2012-01-29T09:00:33Z</time>
      </trkpt>
      <trkpt lat="43.73277" lon="6.95809">
        <ele>926.092</ele>
        <time>2012-01-29T09:00:42Z</time>
      </trkpt>
      <trkpt lat="43.73293" lon="6.95806">
        <ele>927.633</ele>
        <time>2012-01-29T09:00:49Z</time>
      </trkpt>
      <trkpt lat="43.73309" lon="6.95807">
        <ele>928.362</ele>
        <time>2012-01-29T09:00:56Z</time>
      </trkpt>
      <trkpt lat="43.73329" lon="6.95809">
        <ele>929.603</ele>
        <time>2012-01-29T09:01:06Z</time>
      </trkpt>
      <trkpt lat="43.73349" lon="6.95813">
        <ele>930.994</ele>
        <time>2012-01-29T09:01:15Z</time>
      </trkpt>
      <trkpt lat="43.73376" lon="6.95816">
        <ele>931.732</ele>
        <time>2012-01-29T09:01:27Z</time>
      </trkpt>
      <trkpt lat="43.73393" lon="6.95807">
        <ele>933.563</ele>
        <time>2012-01-29T09:01:35Z</time>
      </trkpt>
      <trkpt lat="43.73402" lon="6.95789">
        <ele>935.463</ele>
        <time>2012-01-29T09:01:42Z</time>
      </trkpt>
      <trkpt lat="43.73402" lon="6.95764">
        <ele>937.114</ele>
        <time>2012-01-29T09:01:50Z</time>
      </trkpt>
      <trkpt lat="43.73393" lon="6.95745">
        <ele>938.152</ele>
        <time>2012-01-29T09:01:57Z</time>
      </trkpt>
      <trkpt lat="43.73383" lon="6.95718">
        <ele>940.233</ele>
        <time>2012-01-29T09:02:06Z</time>
      </trkpt>
      <trkpt lat="43.73384" lon="6.95695">
        <ele>941.063</ele>
        <time>2012-01-29T09:02:13Z</time>
      </trkpt>
      <trkpt lat="43.73393" lon="6.95669">
        <ele>942.093</ele>
        <time>2012-01-29T09:02:22Z</time>
      </trkpt>
      <trkpt lat="43.73403" lon="6.95647">
        <ele>941.892</ele>
        <time>2012-01-29T09:02:30Z</time>
      </trkpt>
      <trkpt lat="43.73414" lon="6.95629">
        <ele>942.433</ele>
        <time>2012-01-29T09:02:38Z</time>
      </trkpt>
      <trkpt lat="43.73428" lon="6.95614">
        <ele>943.632</ele>
        <time>2012-01-29T09:02:47Z</time>
      </trkpt>
      <trkpt lat="43.7344" lon="6.95599">
        <ele>945.723</ele>
        <time>2012-01-29T09:02:55Z</time>
      </trkpt>
      <trkpt lat="43.73455" lon="6.95578">
        <ele>947.653</ele>
        <time>2012-01-29T09:03:04Z</time>
      </trkpt>
      <trkpt lat="43.73461" lon="6.95557">
        <ele>950.212</ele>
        <time>2012-01-29T09:03:11Z</time>
      </trkpt>
      <trkpt lat="43.73461" lon="6.95526">
        <ele>952.342</ele>
        <time>2012-01-29T09:03:21Z</time>
      </trkpt>
      <trkpt lat="43.73462" lon="6.95498">
        <ele>954.128</ele>
        <time>2012-01-29T09:03:30Z</time>
      </trkpt>
      <trkpt lat="43.73462" lon="6.95474">
        <ele>956.102</ele>
        <time>2012-01-29T09:03:38Z</time>
      </trkpt>
      <trkpt lat="43.73462" lon="6.95443">
        <ele>958.232</ele>
        <time>2012-01-29T09:03:48Z</time>
      </trkpt>
      <trkpt lat="43.73462" lon="6.95414">
        <ele>960.252</ele>
        <time>2012-01-29T09:03:57Z</time>
      </trkpt>
      <trkpt lat="43.73466" lon="6.95381">
        <ele>961.782</ele>
        <time>2012-01-29T09:04:08Z</time>
      </trkpt>
      <trkpt lat="43.7347" lon="6.95355">
        <ele>963.422</ele>
        <time>2012-01-29T09:04:17Z</time>
      </trkpt>
      <trkpt lat="43.73478" lon="6.95328">
        <ele>964.102</ele>
        <time>2012-01-29T09:04:26Z</time>
      </trkpt>
      <trkpt lat="43.73492" lon="6.95302">
        <ele>964.802</ele>
        <time>2012-01-29T09:04:37Z</time>
      </trkpt>
      <trkpt lat="43.73505" lon="6.95282">
        <ele>965.892</ele>
        <time>2012-01-29T09:04:46Z</time>
      </trkpt>
      <trkpt lat="43.73517" lon="6.95264">
        <ele>966.682</ele>
        <time>2012-01-29T09:04:54Z</time>
      </trkpt>
      <trkpt lat="43.7353" lon="6.95243">
        <ele>967.412</ele>
        <time>2012-01-29T09:05:03Z</time>
      </trkpt>
      <trkpt lat="43.73545" lon="6.95224">
        <ele>968.571</ele>
        <time>2012-01-29T09:05:12Z</time>
      </trkpt>
      <trkpt lat="43.73557" lon="6.95207">
        <ele>969.982</ele>
        <time>2012-01-29T09:05:20Z</time>
      </trkpt>
      <trkpt lat="43.73568" lon="6.95194">
        <ele>970.922</ele>
        <time>2012-01-29T09:05:27Z</time>
      </trkpt>
      <trkpt lat="43.73586" lon="6.95178">
        <ele>971.761</ele>
        <time>2012-01-29T09:05:37Z</time>
      </trkpt>
      <trkpt lat="43.73601" lon="6.95166">
        <ele>973.432</ele>
        <time>2012-01-29T09:05:45Z</time>
      </trkpt>
      <trkpt lat="43.73614" lon="6.95152">
        <ele>973.702</ele>
        <time>2012-01-29T09:05:52Z</time>
      </trkpt>
      <trkpt lat="43.73614" lon="6.95133">
        <ele>974.992</ele>
        <time>2012-01-29T09:05:58Z</time>
      </trkpt>
      <trkpt lat="43.73612" lon="6.95128">
        <ele>975.481</ele>
        <time>2012-01-29T09:06:00Z</time>
      </trkpt>
      <trkpt lat="43.736" lon="6.95117">
        <ele>977.671</ele>
        <time>2012-01-29T09:06:07Z</time>
      </trkpt>
      <trkpt lat="43.73582" lon="6.95116">
        <ele>980.272</ele>
        <time>2012-01-29T09:06:15Z</time>
      </trkpt>
      <trkpt lat="43.73559" lon="6.95116">
        <ele>982.622</ele>
        <time>2012-01-29T09:06:25Z</time>
      </trkpt>
      <trkpt lat="43.73535" lon="6.95116">
        <ele>985.142</ele>
        <time>2012-01-29T09:06:36Z</time>
      </trkpt>
      <trkpt lat="43.73516" lon="6.95115">
        <ele>987.862</ele>
        <time>2012-01-29T09:06:45Z</time>
      </trkpt>
      <trkpt lat="43.73488" lon="6.95114">
        <ele>991.031</ele>
        <time>2012-01-29T09:06:58Z</time>
      </trkpt>
      <trkpt lat="43.73467" lon="6.95114">
        <ele>992.501</ele>
        <time>2012-01-29T09:07:08Z</time>
      </trkpt>
      <trkpt lat="43.73449" lon="6.9511">
        <ele>993.971</ele>
        <time>2012-01-29T09:07:16Z</time>
      </trkpt>
      <trkpt lat="43.73437" lon="6.95105">
        <ele>994.621</ele>
        <time>2012-01-29T09:07:22Z</time>
      </trkpt>
      <trkpt lat="43.7342" lon="6.95096">
        <ele>995.321</ele>
        <time>2012-01-29T09:07:31Z</time>
      </trkpt>
      <trkpt lat="43.73404" lon="6.95096">
        <ele>997.441</ele>
        <time>2012-01-29T09:07:39Z</time>
      </trkpt>
      <trkpt lat="43.7339" lon="6.95106">
        <ele>998.341</ele>
        <time>2012-01-29T09:07:46Z</time>
      </trkpt>
      <trkpt lat="43.73378" lon="6.95124">
        <ele>999.391</ele>
        <time>2012-01-29T09:07:54Z</time>
      </trkpt>
      <trkpt lat="43.73365" lon="6.95144">
        <ele>1000.931</ele>
        <time>2012-01-29T09:08:03Z</time>
      </trkpt>
      <trkpt lat="43.73349" lon="6.95163">
        <ele>1002.871</ele>
        <time>2012-01-29T09:08:13Z</time>
      </trkpt>
      <trkpt lat="43.73328" lon="6.95181">
        <ele>1006.041</ele>
        <time>2012-01-29T09:08:24Z</time>
      </trkpt>
      <trkpt lat="43.73312" lon="6.9519">
        <ele>1008.951</ele>
        <time>2012-01-29T09:08:32Z</time>
      </trkpt>
      <trkpt lat="43.73295" lon="6.95194">
        <ele>1009.631</ele>
        <time>2012-01-29T09:08:40Z</time>
      </trkpt>
      <trkpt lat="43.73274" lon="6.95192">
        <ele>1010.931</ele>
        <time>2012-01-29T09:08:49Z</time>
      </trkpt>
      <trkpt lat="43.73259" lon="6.95189">
        <ele>1011.501</ele>
        <time>2012-01-29T09:08:56Z</time>
      </trkpt>
      <trkpt lat="43.73238" lon="6.95187">
        <ele>1013.451</ele>
        <time>2012-01-29T09:09:05Z</time>
      </trkpt>
      <trkpt lat="43.73225" lon="6.95184">
        <ele>1016.162</ele>
        <time>2012-01-29T09:09:11Z</time>
      </trkpt>
      <trkpt lat="43.73204" lon="6.95181">
        <ele>1016.612</ele>
        <time>2012-01-29T09:09:20Z</time>
      </trkpt>
      <trkpt lat="43.73187" lon="6.95187">
        <ele>1017.891</ele>
        <time>2012-01-29T09:09:28Z</time>
      </trkpt>
      <trkpt lat="43.73178" lon="6.95202">
        <ele>1017.931</ele>
        <time>2012-01-29T09:09:35Z</time>
      </trkpt>
      <trkpt lat="43.73173" lon="6.95225">
        <ele>1018.231</ele>
        <time>2012-01-29T09:09:43Z</time>
      </trkpt>
      <trkpt lat="43.7317" lon="6.95256">
        <ele>1019.331</ele>
        <time>2012-01-29T09:09:53Z</time>
      </trkpt>
      <trkpt lat="43.73165" lon="6.95286">
        <ele>1021.571</ele>
        <time>2012-01-29T09:10:03Z</time>
      </trkpt>
      <trkpt lat="43.73154" lon="6.95311">
        <ele>1023.201</ele>
        <time>2012-01-29T09:10:12Z</time>
      </trkpt>
      <trkpt lat="43.73144" lon="6.95329">
        <ele>1021.96</ele>
        <time>2012-01-29T09:10:19Z</time>
      </trkpt>
      <trkpt lat="43.73133" lon="6.95344">
        <ele>1023.701</ele>
        <time>2012-01-29T09:10:26Z</time>
      </trkpt>
      <trkpt lat="43.73122" lon="6.95346">
        <ele>1025.312</ele>
        <time>2012-01-29T09:10:31Z</time>
      </trkpt>
      <trkpt lat="43.73114" lon="6.95337">
        <ele>1026.192</ele>
        <time>2012-01-29T09:10:36Z</time>
      </trkpt>
      <trkpt lat="43.73115" lon="6.95324">
        <ele>1026.951</ele>
        <time>2012-01-29T09:10:41Z</time>
      </trkpt>
      <trkpt lat="43.73116" lon="6.95323">
        <ele>1027.51</ele>
        <time>2012-01-29T09:10:46Z</time>
      </trkpt>
      <trkpt lat="43.73117" lon="6.95318">
        <ele>1023.531</ele>
        <time>2012-01-29T09:11:28Z</time>
      </trkpt>
      <trkpt lat="43.73129" lon="6.95288">
        <ele>1026.622</ele>
        <time>2012-01-29T09:11:35Z</time>
      </trkpt>
      <trkpt lat="43.73135" lon="6.95254">
        <ele>1026.541</ele>
        <time>2012-01-29T09:11:42Z</time>
      </trkpt>
      <trkpt lat="43.73135" lon="6.95228">
        <ele>1027.151</ele>
        <time>2012-01-29T09:11:49Z</time>
      </trkpt>
      <trkpt lat="43.73132" lon="6.95207">
        <ele>1026.981</ele>
        <time>2012-01-29T09:11:55Z</time>
      </trkpt>
      <trkpt lat="43.73128" lon="6.95185">
        <ele>1026.6</ele>
        <time>2012-01-29T09:12:02Z</time>
      </trkpt>
      <trkpt lat="43.73124" lon="6.95163">
        <ele>1026.46</ele>
        <time>2012-01-29T09:12:09Z</time>
      </trkpt>
      <trkpt lat="43.73119" lon="6.95136">
        <ele>1027.721</ele>
        <time>2012-01-29T09:12:18Z</time>
      </trkpt>
      <trkpt lat="43.7312" lon="6.95114">
        <ele>1029.011</ele>
        <time>2012-01-29T09:12:25Z</time>
      </trkpt>
      <trkpt lat="43.73128" lon="6.95096">
        <ele>1031.031</ele>
        <time>2012-01-29T09:12:32Z</time>
      </trkpt>
      <trkpt lat="43.73144" lon="6.95087">
        <ele>1033.501</ele>
        <time>2012-01-29T09:12:39Z</time>
      </trkpt>
      <trkpt lat="43.73164" lon="6.95087">
        <ele>1037.842</ele>
        <time>2012-01-29T09:12:48Z</time>
      </trkpt>
      <trkpt lat="43.73186" lon="6.95086">
        <ele>1039.641</ele>
        <time>2012-01-29T09:12:58Z</time>
      </trkpt>
      <trkpt lat="43.73206" lon="6.95082">
        <ele>1040.47</ele>
        <time>2012-01-29T09:13:07Z</time>
      </trkpt>
      <trkpt lat="43.73227" lon="6.95073">
        <ele>1041.56</ele>
        <time>2012-01-29T09:13:17Z</time>
      </trkpt>
      <trkpt lat="43.73247" lon="6.95061">
        <ele>1042.51</ele>
        <time>2012-01-29T09:13:26Z</time>
      </trkpt>
      <trkpt lat="43.73264" lon="6.95047">
        <ele>1043.11</ele>
        <time>2012-01-29T09:13:35Z</time>
      </trkpt>
      <trkpt lat="43.73282" lon="6.95029">
        <ele>1043</ele>
        <time>2012-01-29T09:13:45Z</time>
      </trkpt>
      <trkpt lat="43.73297" lon="6.95013">
        <ele>1044.831</ele>
        <time>2012-01-29T09:13:54Z</time>
      </trkpt>
      <trkpt lat="43.73312" lon="6.94996">
        <ele>1046.711</ele>
        <time>2012-01-29T09:14:03Z</time>
      </trkpt>
      <trkpt lat="43.73327" lon="6.94975">
        <ele>1047.34</ele>
        <time>2012-01-29T09:14:13Z</time>
      </trkpt>
      <trkpt lat="43.73344" lon="6.94957">
        <ele>1048.401</ele>
        <time>2012-01-29T09:14:23Z</time>
      </trkpt>
      <trkpt lat="43.7336" lon="6.94943">
        <ele>1046.99</ele>
        <time>2012-01-29T09:14:32Z</time>
      </trkpt>
      <trkpt lat="43.73377" lon="6.94935">
        <ele>1049.051</ele>
        <time>2012-01-29T09:14:40Z</time>
      </trkpt>
      <trkpt lat="43.73394" lon="6.94931">
        <ele>1051.291</ele>
        <time>2012-01-29T09:14:48Z</time>
      </trkpt>
      <trkpt lat="43.73414" lon="6.9493">
        <ele>1054.121</ele>
        <time>2012-01-29T09:14:57Z</time>
      </trkpt>
      <trkpt lat="43.73436" lon="6.94929">
        <ele>1053.29</ele>
        <time>2012-01-29T09:15:07Z</time>
      </trkpt>
      <trkpt lat="43.73454" lon="6.94928">
        <ele>1054.301</ele>
        <time>2012-01-29T09:15:15Z</time>
      </trkpt>
      <trkpt lat="43.73473" lon="6.94926">
        <ele>1056.631</ele>
        <time>2012-01-29T09:15:24Z</time>
      </trkpt>
      <trkpt lat="43.73488" lon="6.94924">
        <ele>1057.321</ele>
        <time>2012-01-29T09:15:31Z</time>
      </trkpt>
      <trkpt lat="43.73509" lon="6.94919">
        <ele>1056.82</ele>
        <time>2012-01-29T09:15:40Z</time>
      </trkpt>
      <trkpt lat="43.73526" lon="6.94912">
        <ele>1058.602</ele>
        <time>2012-01-29T09:15:48Z</time>
      </trkpt>
      <trkpt lat="43.73546" lon="6.94904">
        <ele>1060.871</ele>
        <time>2012-01-29T09:15:57Z</time>
      </trkpt>
      <trkpt lat="43.7357" lon="6.94895">
        <ele>1063.22</ele>
        <time>2012-01-29T09:16:08Z</time>
      </trkpt>
      <trkpt lat="43.73589" lon="6.94886">
        <ele>1063.6</ele>
        <time>2012-01-29T09:16:17Z</time>
      </trkpt>
      <trkpt lat="43.73608" lon="6.94872">
        <ele>1064.16</ele>
        <time>2012-01-29T09:16:27Z</time>
      </trkpt>
      <trkpt lat="43.73624" lon="6.94854">
        <ele>1065.8</ele>
        <time>2012-01-29T09:16:37Z</time>
      </trkpt>
      <trkpt lat="43.73642" lon="6.94826">
        <ele>1069.241</ele>
        <time>2012-01-29T09:16:49Z</time>
      </trkpt>
      <trkpt lat="43.73655" lon="6.94805">
        <ele>1071.951</ele>
        <time>2012-01-29T09:16:58Z</time>
      </trkpt>
      <trkpt lat="43.73668" lon="6.94783">
        <ele>1074.321</ele>
        <time>2012-01-29T09:17:08Z</time>
      </trkpt>
      <trkpt lat="43.73687" lon="6.94752">
        <ele>1076.851</ele>
        <time>2012-01-29T09:17:21Z</time>
      </trkpt>
      <trkpt lat="43.73703" lon="6.94725">
        <ele>1078.781</ele>
        <time>2012-01-29T09:17:33Z</time>
      </trkpt>
      <trkpt lat="43.73717" lon="6.94702">
        <ele>1079.731</ele>
        <time>2012-01-29T09:17:43Z</time>
      </trkpt>
      <trkpt lat="43.73731" lon="6.94681">
        <ele>1081.951</ele>
        <time>2012-01-29T09:17:52Z</time>
      </trkpt>
      <trkpt lat="43.73739" lon="6.94665">
        <ele>1084.952</ele>
        <time>2012-01-29T09:17:59Z</time>
      </trkpt>
      <trkpt lat="43.73744" lon="6.94644">
        <ele>1086.301</ele>
        <time>2012-01-29T09:18:07Z</time>
      </trkpt>
      <trkpt lat="43.73745" lon="6.94622">
        <ele>1086.571</ele>
        <time>2012-01-29T09:18:15Z</time>
      </trkpt>
      <trkpt lat="43.73744" lon="6.9461">
        <ele>1086.811</ele>
        <time>2012-01-29T09:18:19Z</time>
      </trkpt>
      <trkpt lat="43.73739" lon="6.94596">
        <ele>1087.751</ele>
        <time>2012-01-29T09:18:25Z</time>
      </trkpt>
      <trkpt lat="43.73737" lon="6.94591">
        <ele>1088.171</ele>
        <time>2012-01-29T09:18:27Z</time>
      </trkpt>
      <trkpt lat="43.73728" lon="6.9457">
        <ele>1090.151</ele>
        <time>2012-01-29T09:18:33Z</time>
      </trkpt>
      <trkpt lat="43.73726" lon="6.94568">
        <ele>1090.33</ele>
        <time>2012-01-29T09:18:37Z</time>
      </trkpt>
      <trkpt lat="43.73723" lon="6.94565">
        <ele>1085.609</ele>
        <time>2012-01-29T09:19:30Z</time>
      </trkpt>
      <trkpt lat="43.73723" lon="6.94565">
        <ele>1085.559</ele>
        <time>2012-01-29T09:19:31Z</time>
      </trkpt>
      <trkpt lat="43.73721" lon="6.94552">
        <ele>1087.14</ele>
        <time>2012-01-29T09:19:37Z</time>
      </trkpt>
      <trkpt lat="43.73722" lon="6.94546">
        <ele>1087.259</ele>
        <time>2012-01-29T09:19:39Z</time>
      </trkpt>
      <trkpt lat="43.73729" lon="6.9453">
        <ele>1088.31</ele>
        <time>2012-01-29T09:19:45Z</time>
      </trkpt>
      <trkpt lat="43.73745" lon="6.94517">
        <ele>1090.131</ele>
        <time>2012-01-29T09:19:53Z</time>
      </trkpt>
      <trkpt lat="43.73761" lon="6.9451">
        <ele>1091.75</ele>
        <time>2012-01-29T09:20:00Z</time>
      </trkpt>
      <trkpt lat="43.73779" lon="6.94504">
        <ele>1093.251</ele>
        <time>2012-01-29T09:20:08Z</time>
      </trkpt>
      <trkpt lat="43.73799" lon="6.94505">
        <ele>1098.282</ele>
        <time>2012-01-29T09:20:17Z</time>
      </trkpt>
      <trkpt lat="43.73815" lon="6.94508">
        <ele>1098.731</ele>
        <time>2012-01-29T09:20:25Z</time>
      </trkpt>
      <trkpt lat="43.73834" lon="6.94514">
        <ele>1099.271</ele>
        <time>2012-01-29T09:20:34Z</time>
      </trkpt>
      <trkpt lat="43.73853" lon="6.94524">
        <ele>1096.63</ele>
        <time>2012-01-29T09:20:44Z</time>
      </trkpt>
      <trkpt lat="43.73866" lon="6.94534">
        <ele>1095.451</ele>
        <time>2012-01-29T09:20:51Z</time>
      </trkpt>
      <trkpt lat="43.73884" lon="6.9454">
        <ele>1095.38</ele>
        <time>2012-01-29T09:20:59Z</time>
      </trkpt>
      <trkpt lat="43.73898" lon="6.94538">
        <ele>1095.781</ele>
        <time>2012-01-29T09:21:06Z</time>
      </trkpt>
      <trkpt lat="43.73907" lon="6.94538">
        <ele>1097.601</ele>
        <time>2012-01-29T09:21:11Z</time>
      </trkpt>
      <trkpt lat="43.7392" lon="6.94537">
        <ele>1102.983</ele>
        <time>2012-01-29T09:21:18Z</time>
      </trkpt>
      <trkpt lat="43.73934" lon="6.94539">
        <ele>1108.744</ele>
        <time>2012-01-29T09:21:25Z</time>
      </trkpt>
      <trkpt lat="43.73948" lon="6.94541">
        <ele>1109.593</ele>
        <time>2012-01-29T09:21:31Z</time>
      </trkpt>
      <trkpt lat="43.73963" lon="6.9455">
        <ele>1109.311</ele>
        <time>2012-01-29T09:21:38Z</time>
      </trkpt>
      <trkpt lat="43.73974" lon="6.94566">
        <ele>1109.57</ele>
        <time>2012-01-29T09:21:45Z</time>
      </trkpt>
      <trkpt lat="43.73978" lon="6.94583">
        <ele>1107.271</ele>
        <time>2012-01-29T09:21:51Z</time>
      </trkpt>
      <trkpt lat="43.73974" lon="6.94603">
        <ele>1106.711</ele>
        <time>2012-01-29T09:21:58Z</time>
      </trkpt>
      <trkpt lat="43.73965" lon="6.94626">
        <ele>1104.91</ele>
        <time>2012-01-29T09:22:06Z</time>
      </trkpt>
      <trkpt lat="43.73959" lon="6.9465">
        <ele>1105.651</ele>
        <time>2012-01-29T09:22:14Z</time>
      </trkpt>
      <trkpt lat="43.73968" lon="6.9466">
        <ele>1106.991</ele>
        <time>2012-01-29T09:22:19Z</time>
      </trkpt>
      <trkpt lat="43.73977" lon="6.94652">
        <ele>1107.13</ele>
        <time>2012-01-29T09:22:24Z</time>
      </trkpt>
      <trkpt lat="43.73989" lon="6.94629">
        <ele>1109.311</ele>
        <time>2012-01-29T09:22:33Z</time>
      </trkpt>
      <trkpt lat="43.74004" lon="6.94611">
        <ele>1111.23</ele>
        <time>2012-01-29T09:22:42Z</time>
      </trkpt>
      <trkpt lat="43.7402" lon="6.94602">
        <ele>1112.682</ele>
        <time>2012-01-29T09:22:50Z</time>
      </trkpt>
      <trkpt lat="43.7404" lon="6.94599">
        <ele>1115.291</ele>
        <time>2012-01-29T09:22:59Z</time>
      </trkpt>
      <trkpt lat="43.74069" lon="6.94594">
        <ele>1118.072</ele>
        <time>2012-01-29T09:23:12Z</time>
      </trkpt>
      <trkpt lat="43.74085" lon="6.94591">
        <ele>1122.483</ele>
        <time>2012-01-29T09:23:20Z</time>
      </trkpt>
      <trkpt lat="43.74104" lon="6.9459">
        <ele>1124.442</ele>
        <time>2012-01-29T09:23:29Z</time>
      </trkpt>
      <trkpt lat="43.74124" lon="6.94588">
        <ele>1123.611</ele>
        <time>2012-01-29T09:23:38Z</time>
      </trkpt>
      <trkpt lat="43.74142" lon="6.94584">
        <ele>1124.591</ele>
        <time>2012-01-29T09:23:46Z</time>
      </trkpt>
      <trkpt lat="43.74163" lon="6.9458">
        <ele>1124.521</ele>
        <time>2012-01-29T09:23:55Z</time>
      </trkpt>
      <trkpt lat="43.74186" lon="6.94575">
        <ele>1124.04</ele>
        <time>2012-01-29T09:24:05Z</time>
      </trkpt>
      <trkpt lat="43.74202" lon="6.94572">
        <ele>1123.812</ele>
        <time>2012-01-29T09:24:12Z</time>
      </trkpt>
      <trkpt lat="43.74224" lon="6.94567">
        <ele>1123.309</ele>
        <time>2012-01-29T09:24:21Z</time>
      </trkpt>
      <trkpt lat="43.74234" lon="6.94564">
        <ele>1122.889</ele>
        <time>2012-01-29T09:24:25Z</time>
      </trkpt>
      <trkpt lat="43.74247" lon="6.94561">
        <ele>1122.179</ele>
        <time>2012-01-29T09:24:30Z</time>
      </trkpt>
      <trkpt lat="43.74262" lon="6.94557">
        <ele>1121.78</ele>
        <time>2012-01-29T09:24:36Z</time>
      </trkpt>
      <trkpt lat="43.74285" lon="6.94554">
        <ele>1121.28</ele>
        <time>2012-01-29T09:24:43Z</time>
      </trkpt>
      <trkpt lat="43.74296" lon="6.94557">
        <ele>1119.219</ele>
        <time>2012-01-29T09:24:47Z</time>
      </trkpt>
      <trkpt lat="43.74316" lon="6.94561">
        <ele>1116.378</ele>
        <time>2012-01-29T09:24:54Z</time>
      </trkpt>
      <trkpt lat="43.74332" lon="6.9457">
        <ele>1113.409</ele>
        <time>2012-01-29T09:25:00Z</time>
      </trkpt>
      <trkpt lat="43.74349" lon="6.9459">
        <ele>1111.619</ele>
        <time>2012-01-29T09:25:06Z</time>
      </trkpt>
      <trkpt lat="43.7436" lon="6.94609">
        <ele>1110.699</ele>
        <time>2012-01-29T09:25:11Z</time>
      </trkpt>
      <trkpt lat="43.74368" lon="6.94622">
        <ele>1110.179</ele>
        <time>2012-01-29T09:25:14Z</time>
      </trkpt>
      <trkpt lat="43.74388" lon="6.94636">
        <ele>1109.25</ele>
        <time>2012-01-29T09:25:19Z</time>
      </trkpt>
      <trkpt lat="43.74411" lon="6.94629">
        <ele>1109.44</ele>
        <time>2012-01-29T09:25:25Z</time>
      </trkpt>
      <trkpt lat="43.74422" lon="6.94612">
        <ele>1109.83</ele>
        <time>2012-01-29T09:25:31Z</time>
      </trkpt>
      <trkpt lat="43.74426" lon="6.94587">
        <ele>1109.83</ele>
        <time>2012-01-29T09:25:38Z</time>
      </trkpt>
      <trkpt lat="43.74427" lon="6.94574">
        <ele>1109.95</ele>
        <time>2012-01-29T09:25:42Z</time>
      </trkpt>
      <trkpt lat="43.74422" lon="6.94553">
        <ele>1108.939</ele>
        <time>2012-01-29T09:25:48Z</time>
      </trkpt>
      <trkpt lat="43.74412" lon="6.94525">
        <ele>1107.289</ele>
        <time>2012-01-29T09:25:56Z</time>
      </trkpt>
      <trkpt lat="43.74407" lon="6.94503">
        <ele>1106.009</ele>
        <time>2012-01-29T09:26:01Z</time>
      </trkpt>
      <trkpt lat="43.74401" lon="6.94486">
        <ele>1104.749</ele>
        <time>2012-01-29T09:26:07Z</time>
      </trkpt>
      <trkpt lat="43.74399" lon="6.94484">
        <ele>1103.979</ele>
        <time>2012-01-29T09:26:11Z</time>
      </trkpt>
      <trkpt lat="43.74398" lon="6.94485">
        <ele>1103.07</ele>
        <time>2012-01-29T09:27:03Z</time>
      </trkpt>
      <trkpt lat="43.74397" lon="6.94484">
        <ele>1103.16</ele>
        <time>2012-01-29T09:27:05Z</time>
      </trkpt>
      <trkpt lat="43.74392" lon="6.94473">
        <ele>1103.159</ele>
        <time>2012-01-29T09:27:10Z</time>
      </trkpt>
      <trkpt lat="43.74377" lon="6.94441">
        <ele>1101.959</ele>
        <time>2012-01-29T09:27:18Z</time>
      </trkpt>
      <trkpt lat="43.7437" lon="6.94417">
        <ele>1102.2</ele>
        <time>2012-01-29T09:27:24Z</time>
      </trkpt>
      <trkpt lat="43.74364" lon="6.94383">
        <ele>1103.86</ele>
        <time>2012-01-29T09:27:32Z</time>
      </trkpt>
      <trkpt lat="43.74362" lon="6.94348">
        <ele>1104.74</ele>
        <time>2012-01-29T09:27:39Z</time>
      </trkpt>
      <trkpt lat="43.74358" lon="6.9431">
        <ele>1104.15</ele>
        <time>2012-01-29T09:27:47Z</time>
      </trkpt>
      <trkpt lat="43.74356" lon="6.94277">
        <ele>1104.439</ele>
        <time>2012-01-29T09:27:55Z</time>
      </trkpt>
      <trkpt lat="43.74353" lon="6.94244">
        <ele>1104.139</ele>
        <time>2012-01-29T09:28:03Z</time>
      </trkpt>
      <trkpt lat="43.74349" lon="6.94202">
        <ele>1104.299</ele>
        <time>2012-01-29T09:28:13Z</time>
      </trkpt>
      <trkpt lat="43.74347" lon="6.94171">
        <ele>1102.368</ele>
        <time>2012-01-29T09:28:20Z</time>
      </trkpt>
      <trkpt lat="43.74343" lon="6.94127">
        <ele>1102.869</ele>
        <time>2012-01-29T09:28:29Z</time>
      </trkpt>
      <trkpt lat="43.74338" lon="6.9408">
        <ele>1102.699</ele>
        <time>2012-01-29T09:28:38Z</time>
      </trkpt>
      <trkpt lat="43.74335" lon="6.94043">
        <ele>1102.359</ele>
        <time>2012-01-29T09:28:45Z</time>
      </trkpt>
      <trkpt lat="43.74333" lon="6.94014">
        <ele>1101.479</ele>
        <time>2012-01-29T09:28:51Z</time>
      </trkpt>
      <trkpt lat="43.74327" lon="6.93967">
        <ele>1102.269</ele>
        <time>2012-01-29T09:29:02Z</time>
      </trkpt>
      <trkpt lat="43.74322" lon="6.93931">
        <ele>1103.969</ele>
        <time>2012-01-29T09:29:10Z</time>
      </trkpt>
      <trkpt lat="43.74318" lon="6.93888">
        <ele>1102.259</ele>
        <time>2012-01-29T09:29:19Z</time>
      </trkpt>
      <trkpt lat="43.74313" lon="6.93841">
        <ele>1101.138</ele>
        <time>2012-01-29T09:29:28Z</time>
      </trkpt>
      <trkpt lat="43.74313" lon="6.93795">
        <ele>1096.957</ele>
        <time>2012-01-29T09:29:36Z</time>
      </trkpt>
      <trkpt lat="43.74312" lon="6.93748">
        <ele>1096.699</ele>
        <time>2012-01-29T09:29:44Z</time>
      </trkpt>
      <trkpt lat="43.74309" lon="6.93703">
        <ele>1098.408</ele>
        <time>2012-01-29T09:29:53Z</time>
      </trkpt>
      <trkpt lat="43.74306" lon="6.9366">
        <ele>1099.799</ele>
        <time>2012-01-29T09:30:03Z</time>
      </trkpt>
      <trkpt lat="43.74306" lon="6.93628">
        <ele>1100.458</ele>
        <time>2012-01-29T09:30:11Z</time>
      </trkpt>
      <trkpt lat="43.74307" lon="6.93614">
        <ele>1100.818</ele>
        <time>2012-01-29T09:30:14Z</time>
      </trkpt>
      <trkpt lat="43.74307" lon="6.93569">
        <ele>1100.248</ele>
        <time>2012-01-29T09:30:22Z</time>
      </trkpt>
      <trkpt lat="43.74302" lon="6.93517">
        <ele>1099.088</ele>
        <time>2012-01-29T09:30:31Z</time>
      </trkpt>
      <trkpt lat="43.74297" lon="6.93479">
        <ele>1099.198</ele>
        <time>2012-01-29T09:30:38Z</time>
      </trkpt>
      <trkpt lat="43.74292" lon="6.93451">
        <ele>1099.868</ele>
        <time>2012-01-29T09:30:43Z</time>
      </trkpt>
      <trkpt lat="43.74287" lon="6.93413">
        <ele>1100.498</ele>
        <time>2012-01-29T09:30:50Z</time>
      </trkpt>
      <trkpt lat="43.74281" lon="6.9337">
        <ele>1100.427</ele>
        <time>2012-01-29T09:30:58Z</time>
      </trkpt>
      <trkpt lat="43.74277" lon="6.93322">
        <ele>1098.856</ele>
        <time>2012-01-29T09:31:06Z</time>
      </trkpt>
      <trkpt lat="43.74274" lon="6.93275">
        <ele>1095.605</ele>
        <time>2012-01-29T09:31:12Z</time>
      </trkpt>
      <trkpt lat="43.74263" lon="6.93219">
        <ele>1092.386</ele>
        <time>2012-01-29T09:31:19Z</time>
      </trkpt>
      <trkpt lat="43.74252" lon="6.93175">
        <ele>1090.267</ele>
        <time>2012-01-29T09:31:26Z</time>
      </trkpt>
      <trkpt lat="43.74239" lon="6.93136">
        <ele>1088.867</ele>
        <time>2012-01-29T09:31:32Z</time>
      </trkpt>
      <trkpt lat="43.74226" lon="6.9308">
        <ele>1089.087</ele>
        <time>2012-01-29T09:31:40Z</time>
      </trkpt>
      <trkpt lat="43.74226" lon="6.93074">
        <ele>1089.798</ele>
        <time>2012-01-29T09:31:43Z</time>
      </trkpt>
      <trkpt lat="43.74226" lon="6.93075">
        <ele>1090.097</ele>
        <time>2012-01-29T09:31:48Z</time>
      </trkpt>
      <trkpt lat="43.74228" lon="6.93077">
        <ele>1092.217</ele>
        <time>2012-01-29T09:32:31Z</time>
      </trkpt>
      <trkpt lat="43.74228" lon="6.93076">
        <ele>1092.076</ele>
        <time>2012-01-29T09:32:34Z</time>
      </trkpt>
      <trkpt lat="43.74227" lon="6.93055">
        <ele>1091.376</ele>
        <time>2012-01-29T09:32:40Z</time>
      </trkpt>
      <trkpt lat="43.74231" lon="6.93041">
        <ele>1091.316</ele>
        <time>2012-01-29T09:32:45Z</time>
      </trkpt>
      <trkpt lat="43.74235" lon="6.93023">
        <ele>1092.787</ele>
        <time>2012-01-29T09:32:51Z</time>
      </trkpt>
      <trkpt lat="43.74239" lon="6.93">
        <ele>1094.177</ele>
        <time>2012-01-29T09:32:58Z</time>
      </trkpt>
      <trkpt lat="43.74241" lon="6.92974">
        <ele>1094.786</ele>
        <time>2012-01-29T09:33:06Z</time>
      </trkpt>
      <trkpt lat="43.74242" lon="6.92952">
        <ele>1094.857</ele>
        <time>2012-01-29T09:33:13Z</time>
      </trkpt>
      <trkpt lat="43.74245" lon="6.92925">
        <ele>1094.716</ele>
        <time>2012-01-29T09:33:22Z</time>
      </trkpt>
      <trkpt lat="43.74246" lon="6.92902">
        <ele>1094.036</ele>
        <time>2012-01-29T09:33:30Z</time>
      </trkpt>
      <trkpt lat="43.74247" lon="6.92877">
        <ele>1093.737</ele>
        <time>2012-01-29T09:33:39Z</time>
      </trkpt>
      <trkpt lat="43.74248" lon="6.92849">
        <ele>1091.746</ele>
        <time>2012-01-29T09:33:49Z</time>
      </trkpt>
      <trkpt lat="43.74248" lon="6.92833">
        <ele>1090.826</ele>
        <time>2012-01-29T09:33:55Z</time>
      </trkpt>
      <trkpt lat="43.74242" lon="6.92817">
        <ele>1089.506</ele>
        <time>2012-01-29T09:34:03Z</time>
      </trkpt>
      <trkpt lat="43.74236" lon="6.92802">
        <ele>1088.926</ele>
        <time>2012-01-29T09:34:11Z</time>
      </trkpt>
      <trkpt lat="43.74231" lon="6.92786">
        <ele>1088.696</ele>
        <time>2012-01-29T09:34:19Z</time>
      </trkpt>
      <trkpt lat="43.74225" lon="6.92769">
        <ele>1088.366</ele>
        <time>2012-01-29T09:34:28Z</time>
      </trkpt>
      <trkpt lat="43.74222" lon="6.92752">
        <ele>1088.386</ele>
        <time>2012-01-29T09:34:36Z</time>
      </trkpt>
      <trkpt lat="43.7422" lon="6.92732">
        <ele>1087.716</ele>
        <time>2012-01-29T09:34:46Z</time>
      </trkpt>
      <trkpt lat="43.74214" lon="6.92715">
        <ele>1087.036</ele>
        <time>2012-01-29T09:34:55Z</time>
      </trkpt>
      <trkpt lat="43.74209" lon="6.92704">
        <ele>1086.456</ele>
        <time>2012-01-29T09:35:02Z</time>
      </trkpt>
      <trkpt lat="43.74201" lon="6.92688">
        <ele>1085.666</ele>
        <time>2012-01-29T09:35:12Z</time>
      </trkpt>
      <trkpt lat="43.74193" lon="6.92673">
        <ele>1085.196</ele>
        <time>2012-01-29T09:35:21Z</time>
      </trkpt>
      <trkpt lat="43.74185" lon="6.9266">
        <ele>1085.016</ele>
        <time>2012-01-29T09:35:29Z</time>
      </trkpt>
      <trkpt lat="43.74178" lon="6.9265">
        <ele>1084.897</ele>
        <time>2012-01-29T09:35:35Z</time>
      </trkpt>
      <trkpt lat="43.74177" lon="6.92649">
        <ele>1084.937</ele>
        <time>2012-01-29T09:35:36Z</time>
      </trkpt>
      <trkpt lat="43.74171" lon="6.92642">
        <ele>1085.246</ele>
        <time>2012-01-29T09:35:41Z</time>
      </trkpt>
      <trkpt lat="43.74171" lon="6.9264">
        <ele>1085.346</ele>
        <time>2012-01-29T09:35:42Z</time>
      </trkpt>
      <trkpt lat="43.74167" lon="6.92623">
        <ele>1085.316</ele>
        <time>2012-01-29T09:35:49Z</time>
      </trkpt>
      <trkpt lat="43.74164" lon="6.92608">
        <ele>1084.836</ele>
        <time>2012-01-29T09:35:55Z</time>
      </trkpt>
      <trkpt lat="43.74162" lon="6.92588">
        <ele>1085.566</ele>
        <time>2012-01-29T09:36:02Z</time>
      </trkpt>
      <trkpt lat="43.7416" lon="6.9257">
        <ele>1086.626</ele>
        <time>2012-01-29T09:36:09Z</time>
      </trkpt>
      <trkpt lat="43.74159" lon="6.92555">
        <ele>1086.785</ele>
        <time>2012-01-29T09:36:14Z</time>
      </trkpt>
      <trkpt lat="43.74157" lon="6.9253">
        <ele>1086.435</ele>
        <time>2012-01-29T09:36:21Z</time>
      </trkpt>
      <trkpt lat="43.74158" lon="6.92509">
        <ele>1086.235</ele>
        <time>2012-01-29T09:36:27Z</time>
      </trkpt>
      <trkpt lat="43.74164" lon="6.92475">
        <ele>1087.216</ele>
        <time>2012-01-29T09:36:36Z</time>
      </trkpt>
      <trkpt lat="43.74176" lon="6.92454">
        <ele>1087.625</ele>
        <time>2012-01-29T09:36:43Z</time>
      </trkpt>
      <trkpt lat="43.7419" lon="6.92438">
        <ele>1086.895</ele>
        <time>2012-01-29T09:36:50Z</time>
      </trkpt>
      <trkpt lat="43.74208" lon="6.92415">
        <ele>1084.855</ele>
        <time>2012-01-29T09:36:59Z</time>
      </trkpt>
      <trkpt lat="43.74216" lon="6.92386">
        <ele>1083.375</ele>
        <time>2012-01-29T09:37:07Z</time>
      </trkpt>
      <trkpt lat="43.74217" lon="6.92357">
        <ele>1083.115</ele>
        <time>2012-01-29T09:37:14Z</time>
      </trkpt>
      <trkpt lat="43.74215" lon="6.92323">
        <ele>1083.475</ele>
        <time>2012-01-29T09:37:22Z</time>
      </trkpt>
      <trkpt lat="43.74213" lon="6.92283">
        <ele>1085.315</ele>
        <time>2012-01-29T09:37:32Z</time>
      </trkpt>
      <trkpt lat="43.7421" lon="6.92242">
        <ele>1087.295</ele>
        <time>2012-01-29T09:37:42Z</time>
      </trkpt>
      <trkpt lat="43.74208" lon="6.92209">
        <ele>1088.305</ele>
        <time>2012-01-29T09:37:50Z</time>
      </trkpt>
      <trkpt lat="43.74205" lon="6.92165">
        <ele>1087.944</ele>
        <time>2012-01-29T09:38:00Z</time>
      </trkpt>
      <trkpt lat="43.74203" lon="6.92127">
        <ele>1086.724</ele>
        <time>2012-01-29T09:38:09Z</time>
      </trkpt>
      <trkpt lat="43.74202" lon="6.92098">
        <ele>1086.714</ele>
        <time>2012-01-29T09:38:16Z</time>
      </trkpt>
      <trkpt lat="43.74201" lon="6.92069">
        <ele>1086.854</ele>
        <time>2012-01-29T09:38:23Z</time>
      </trkpt>
      <trkpt lat="43.74199" lon="6.92034">
        <ele>1087.585</ele>
        <time>2012-01-29T09:38:31Z</time>
      </trkpt>
      <trkpt lat="43.74198" lon="6.91997">
        <ele>1086.834</ele>
        <time>2012-01-29T09:38:39Z</time>
      </trkpt>
      <trkpt lat="43.74196" lon="6.91963">
        <ele>1085.895</ele>
        <time>2012-01-29T09:38:47Z</time>
      </trkpt>
      <trkpt lat="43.74195" lon="6.91928">
        <ele>1084.584</ele>
        <time>2012-01-29T09:38:55Z</time>
      </trkpt>
      <trkpt lat="43.74194" lon="6.91897">
        <ele>1084.274</ele>
        <time>2012-01-29T09:39:02Z</time>
      </trkpt>
      <trkpt lat="43.74193" lon="6.91857">
        <ele>1084.914</ele>
        <time>2012-01-29T09:39:11Z</time>
      </trkpt>
      <trkpt lat="43.7419" lon="6.91821">
        <ele>1084.874</ele>
        <time>2012-01-29T09:39:19Z</time>
      </trkpt>
      <trkpt lat="43.74186" lon="6.91782">
        <ele>1085.154</ele>
        <time>2012-01-29T09:39:28Z</time>
      </trkpt>
      <trkpt lat="43.74181" lon="6.91743">
        <ele>1085.495</ele>
        <time>2012-01-29T09:39:37Z</time>
      </trkpt>
      <trkpt lat="43.74176" lon="6.91698">
        <ele>1086.234</ele>
        <time>2012-01-29T09:39:47Z</time>
      </trkpt>
      <trkpt lat="43.74173" lon="6.91641">
        <ele>1085.714</ele>
        <time>2012-01-29T09:39:59Z</time>
      </trkpt>
      <trkpt lat="43.74173" lon="6.91597">
        <ele>1086.183</ele>
        <time>2012-01-29T09:40:09Z</time>
      </trkpt>
      <trkpt lat="43.74176" lon="6.91567">
        <ele>1085.743</ele>
        <time>2012-01-29T09:40:16Z</time>
      </trkpt>
      <trkpt lat="43.74182" lon="6.91536">
        <ele>1085.003</ele>
        <time>2012-01-29T09:40:23Z</time>
      </trkpt>
      <trkpt lat="43.74199" lon="6.91491">
        <ele>1085.443</ele>
        <time>2012-01-29T09:40:34Z</time>
      </trkpt>
      <trkpt lat="43.74222" lon="6.91444">
        <ele>1083.274</ele>
        <time>2012-01-29T09:40:46Z</time>
      </trkpt>
      <trkpt lat="43.74241" lon="6.91408">
        <ele>1082.524</ele>
        <time>2012-01-29T09:40:56Z</time>
      </trkpt>
      <trkpt lat="43.74258" lon="6.9138">
        <ele>1083.214</ele>
        <time>2012-01-29T09:41:04Z</time>
      </trkpt>
      <trkpt lat="43.74276" lon="6.91355">
        <ele>1085.094</ele>
        <time>2012-01-29T09:41:12Z</time>
      </trkpt>
      <trkpt lat="43.74294" lon="6.91331">
        <ele>1085.614</ele>
        <time>2012-01-29T09:41:20Z</time>
      </trkpt>
      <trkpt lat="43.74317" lon="6.91305">
        <ele>1087.224</ele>
        <time>2012-01-29T09:41:29Z</time>
      </trkpt>
      <trkpt lat="43.74343" lon="6.91274">
        <ele>1089.104</ele>
        <time>2012-01-29T09:41:40Z</time>
      </trkpt>
      <trkpt lat="43.74365" lon="6.9125">
        <ele>1090.704</ele>
        <time>2012-01-29T09:41:49Z</time>
      </trkpt>
      <trkpt lat="43.74388" lon="6.91223">
        <ele>1092.605</ele>
        <time>2012-01-29T09:41:59Z</time>
      </trkpt>
      <trkpt lat="43.74406" lon="6.91204">
        <ele>1093.864</ele>
        <time>2012-01-29T09:42:07Z</time>
      </trkpt>
      <trkpt lat="43.74432" lon="6.91181">
        <ele>1096.024</ele>
        <time>2012-01-29T09:42:18Z</time>
      </trkpt>
      <trkpt lat="43.74457" lon="6.9116">
        <ele>1092.523</ele>
        <time>2012-01-29T09:42:28Z</time>
      </trkpt>
      <trkpt lat="43.74477" lon="6.91147">
        <ele>1091.814</ele>
        <time>2012-01-29T09:42:36Z</time>
      </trkpt>
      <trkpt lat="43.74499" lon="6.9113">
        <ele>1093.004</ele>
        <time>2012-01-29T09:42:45Z</time>
      </trkpt>
      <trkpt lat="43.74517" lon="6.91118">
        <ele>1095.065</ele>
        <time>2012-01-29T09:42:53Z</time>
      </trkpt>
      <trkpt lat="43.74529" lon="6.9111">
        <ele>1094.974</ele>
        <time>2012-01-29T09:43:00Z</time>
      </trkpt>
      <trkpt lat="43.74541" lon="6.91102">
        <ele>1094.454</ele>
        <time>2012-01-29T09:43:07Z</time>
      </trkpt>
      <trkpt lat="43.74555" lon="6.9109">
        <ele>1094.704</ele>
        <time>2012-01-29T09:43:16Z</time>
      </trkpt>
      <trkpt lat="43.74571" lon="6.91082">
        <ele>1097.555</ele>
        <time>2012-01-29T09:43:25Z</time>
      </trkpt>
      <trkpt lat="43.74585" lon="6.91075">
        <ele>1099.525</ele>
        <time>2012-01-29T09:43:34Z</time>
      </trkpt>
      <trkpt lat="43.74599" lon="6.91067">
        <ele>1103.165</ele>
        <time>2012-01-29T09:43:43Z</time>
      </trkpt>
      <trkpt lat="43.74612" lon="6.9106">
        <ele>1105.455</ele>
        <time>2012-01-29T09:43:51Z</time>
      </trkpt>
      <trkpt lat="43.74625" lon="6.91054">
        <ele>1108.195</ele>
        <time>2012-01-29T09:43:59Z</time>
      </trkpt>
      <trkpt lat="43.74636" lon="6.91049">
        <ele>1111.716</ele>
        <time>2012-01-29T09:44:06Z</time>
      </trkpt>
      <trkpt lat="43.7465" lon="6.91048">
        <ele>1113.125</ele>
        <time>2012-01-29T09:44:14Z</time>
      </trkpt>
      <trkpt lat="43.7467" lon="6.9105">
        <ele>1110.814</ele>
        <time>2012-01-29T09:44:23Z</time>
      </trkpt>
      <trkpt lat="43.7469" lon="6.91054">
        <ele>1111.514</ele>
        <time>2012-01-29T09:44:33Z</time>
      </trkpt>
      <trkpt lat="43.74704" lon="6.91053">
        <ele>1113.545</ele>
        <time>2012-01-29T09:44:41Z</time>
      </trkpt>
      <trkpt lat="43.74718" lon="6.91048">
        <ele>1113.695</ele>
        <time>2012-01-29T09:44:49Z</time>
      </trkpt>
      <trkpt lat="43.7473" lon="6.91041">
        <ele>1112.565</ele>
        <time>2012-01-29T09:44:56Z</time>
      </trkpt>
      <trkpt lat="43.74744" lon="6.91031">
        <ele>1111.144</ele>
        <time>2012-01-29T09:45:04Z</time>
      </trkpt>
      <trkpt lat="43.74756" lon="6.91028">
        <ele>1112.445</ele>
        <time>2012-01-29T09:45:11Z</time>
      </trkpt>
      <trkpt lat="43.74767" lon="6.91028">
        <ele>1117.506</ele>
        <time>2012-01-29T09:45:18Z</time>
      </trkpt>
      <trkpt lat="43.7478" lon="6.91034">
        <ele>1116.674</ele>
        <time>2012-01-29T09:45:25Z</time>
      </trkpt>
      <trkpt lat="43.74793" lon="6.91044">
        <ele>1116.084</ele>
        <time>2012-01-29T09:45:33Z</time>
      </trkpt>
      <trkpt lat="43.74803" lon="6.91057">
        <ele>1116.124</ele>
        <time>2012-01-29T09:45:42Z</time>
      </trkpt>
      <trkpt lat="43.74812" lon="6.91076">
        <ele>1120.325</ele>
        <time>2012-01-29T09:45:52Z</time>
      </trkpt>
      <trkpt lat="43.74815" lon="6.91084">
        <ele>1120.727</ele>
        <time>2012-01-29T09:45:56Z</time>
      </trkpt>
      <trkpt lat="43.74822" lon="6.91099">
        <ele>1121.835</ele>
        <time>2012-01-29T09:46:05Z</time>
      </trkpt>
      <trkpt lat="43.74827" lon="6.91112">
        <ele>1123.165</ele>
        <time>2012-01-29T09:46:12Z</time>
      </trkpt>
      <trkpt lat="43.74833" lon="6.91125">
        <ele>1124.565</ele>
        <time>2012-01-29T09:46:19Z</time>
      </trkpt>
      <trkpt lat="43.74841" lon="6.91144">
        <ele>1126.815</ele>
        <time>2012-01-29T09:46:28Z</time>
      </trkpt>
      <trkpt lat="43.74847" lon="6.91157">
        <ele>1128.075</ele>
        <time>2012-01-29T09:46:35Z</time>
      </trkpt>
      <trkpt lat="43.74853" lon="6.91173">
        <ele>1128.955</ele>
        <time>2012-01-29T09:46:43Z</time>
      </trkpt>
      <trkpt lat="43.74857" lon="6.91191">
        <ele>1130.526</ele>
        <time>2012-01-29T09:46:52Z</time>
      </trkpt>
      <trkpt lat="43.74853" lon="6.91204">
        <ele>1131.625</ele>
        <time>2012-01-29T09:46:59Z</time>
      </trkpt>
      <trkpt lat="43.74843" lon="6.91212">
        <ele>1132.625</ele>
        <time>2012-01-29T09:47:08Z</time>
      </trkpt>
      <trkpt lat="43.74834" lon="6.91221">
        <ele>1133.375</ele>
        <time>2012-01-29T09:47:16Z</time>
      </trkpt>
      <trkpt lat="43.74825" lon="6.91229">
        <ele>1134.645</ele>
        <time>2012-01-29T09:47:24Z</time>
      </trkpt>
      <trkpt lat="43.74818" lon="6.91239">
        <ele>1135.575</ele>
        <time>2012-01-29T09:47:31Z</time>
      </trkpt>
      <trkpt lat="43.74813" lon="6.9125">
        <ele>1137.585</ele>
        <time>2012-01-29T09:47:39Z</time>
      </trkpt>
      <trkpt lat="43.74808" lon="6.91259">
        <ele>1138.615</ele>
        <time>2012-01-29T09:47:46Z</time>
      </trkpt>
      <trkpt lat="43.74808" lon="6.91261">
        <ele>1138.785</ele>
        <time>2012-01-29T09:47:47Z</time>
      </trkpt>
      <trkpt lat="43.74804" lon="6.91268">
        <ele>1138.005</ele>
        <time>2012-01-29T09:47:52Z</time>
      </trkpt>
      <trkpt lat="43.74796" lon="6.91285">
        <ele>1139.645</ele>
        <time>2012-01-29T09:48:01Z</time>
      </trkpt>
      <trkpt lat="43.74787" lon="6.91302">
        <ele>1141.565</ele>
        <time>2012-01-29T09:48:10Z</time>
      </trkpt>
      <trkpt lat="43.7478" lon="6.91314">
        <ele>1141.583</ele>
        <time>2012-01-29T09:48:17Z</time>
      </trkpt>
      <trkpt lat="43.74773" lon="6.91331">
        <ele>1142.415</ele>
        <time>2012-01-29T09:48:26Z</time>
      </trkpt>
      <trkpt lat="43.7477" lon="6.91348">
        <ele>1144.536</ele>
        <time>2012-01-29T09:48:34Z</time>
      </trkpt>
      <trkpt lat="43.74773" lon="6.91364">
        <ele>1146.035</ele>
        <time>2012-01-29T09:48:42Z</time>
      </trkpt>
      <trkpt lat="43.74776" lon="6.91379">
        <ele>1147.836</ele>
        <time>2012-01-29T09:48:50Z</time>
      </trkpt>
      <trkpt lat="43.74777" lon="6.91391">
        <ele>1149.765</ele>
        <time>2012-01-29T09:48:56Z</time>
      </trkpt>
      <trkpt lat="43.74774" lon="6.9141">
        <ele>1151.755</ele>
        <time>2012-01-29T09:49:03Z</time>
      </trkpt>
      <trkpt lat="43.7477" lon="6.9143">
        <ele>1153.505</ele>
        <time>2012-01-29T09:49:11Z</time>
      </trkpt>
      <trkpt lat="43.74764" lon="6.91452">
        <ele>1155.385</ele>
        <time>2012-01-29T09:49:19Z</time>
      </trkpt>
      <trkpt lat="43.74761" lon="6.91474">
        <ele>1155.915</ele>
        <time>2012-01-29T09:49:26Z</time>
      </trkpt>
      <trkpt lat="43.74759" lon="6.91505">
        <ele>1156.024</ele>
        <time>2012-01-29T09:49:35Z</time>
      </trkpt>
      <trkpt lat="43.74762" lon="6.91542">
        <ele>1155.424</ele>
        <time>2012-01-29T09:49:45Z</time>
      </trkpt>
      <trkpt lat="43.74769" lon="6.91567">
        <ele>1156.835</ele>
        <time>2012-01-29T09:49:53Z</time>
      </trkpt>
      <trkpt lat="43.74781" lon="6.91582">
        <ele>1156.645</ele>
        <time>2012-01-29T09:49:59Z</time>
      </trkpt>
      <trkpt lat="43.74793" lon="6.9159">
        <ele>1158.335</ele>
        <time>2012-01-29T09:50:05Z</time>
      </trkpt>
      <trkpt lat="43.74807" lon="6.91598">
        <ele>1159.796</ele>
        <time>2012-01-29T09:50:13Z</time>
      </trkpt>
      <trkpt lat="43.74824" lon="6.91604">
        <ele>1162.346</ele>
        <time>2012-01-29T09:50:23Z</time>
      </trkpt>
      <trkpt lat="43.74837" lon="6.91609">
        <ele>1164.386</ele>
        <time>2012-01-29T09:50:31Z</time>
      </trkpt>
      <trkpt lat="43.7485" lon="6.91617">
        <ele>1165.016</ele>
        <time>2012-01-29T09:50:39Z</time>
      </trkpt>
      <trkpt lat="43.74863" lon="6.91628">
        <ele>1165.885</ele>
        <time>2012-01-29T09:50:48Z</time>
      </trkpt>
      <trkpt lat="43.74871" lon="6.91639">
        <ele>1166.946</ele>
        <time>2012-01-29T09:50:55Z</time>
      </trkpt>
      <trkpt lat="43.74882" lon="6.91652">
        <ele>1168.565</ele>
        <time>2012-01-29T09:51:04Z</time>
      </trkpt>
      <trkpt lat="43.74892" lon="6.91665">
        <ele>1170.786</ele>
        <time>2012-01-29T09:51:12Z</time>
      </trkpt>
      <trkpt lat="43.74899" lon="6.91674">
        <ele>1172.675</ele>
        <time>2012-01-29T09:51:18Z</time>
      </trkpt>
      <trkpt lat="43.74909" lon="6.91682">
        <ele>1174.356</ele>
        <time>2012-01-29T09:51:26Z</time>
      </trkpt>
      <trkpt lat="43.74922" lon="6.91684">
        <ele>1176.676</ele>
        <time>2012-01-29T09:51:35Z</time>
      </trkpt>
      <trkpt lat="43.74932" lon="6.9168">
        <ele>1181.789</ele>
        <time>2012-01-29T09:51:42Z</time>
      </trkpt>
      <trkpt lat="43.74942" lon="6.91676">
        <ele>1185.519</ele>
        <time>2012-01-29T09:51:48Z</time>
      </trkpt>
      <trkpt lat="43.74953" lon="6.91677">
        <ele>1187.667</ele>
        <time>2012-01-29T09:51:56Z</time>
      </trkpt>
      <trkpt lat="43.74955" lon="6.91679">
        <ele>1187.456</ele>
        <time>2012-01-29T09:51:57Z</time>
      </trkpt>
      <trkpt lat="43.74956" lon="6.91687">
        <ele>1187.446</ele>
        <time>2012-01-29T09:52:01Z</time>
      </trkpt>
      <trkpt lat="43.7495" lon="6.91707">
        <ele>1184.034</ele>
        <time>2012-01-29T09:52:10Z</time>
      </trkpt>
      <trkpt lat="43.7494" lon="6.91724">
        <ele>1184.246</ele>
        <time>2012-01-29T09:52:19Z</time>
      </trkpt>
      <trkpt lat="43.74933" lon="6.91734">
        <ele>1182.985</ele>
        <time>2012-01-29T09:52:25Z</time>
      </trkpt>
      <trkpt lat="43.7493" lon="6.9175">
        <ele>1180.315</ele>
        <time>2012-01-29T09:52:33Z</time>
      </trkpt>
      <trkpt lat="43.7493" lon="6.91774">
        <ele>1179.276</ele>
        <time>2012-01-29T09:52:44Z</time>
      </trkpt>
      <trkpt lat="43.74931" lon="6.91795">
        <ele>1180.476</ele>
        <time>2012-01-29T09:52:53Z</time>
      </trkpt>
      <trkpt lat="43.74934" lon="6.91816">
        <ele>1181.966</ele>
        <time>2012-01-29T09:53:02Z</time>
      </trkpt>
      <trkpt lat="43.74939" lon="6.91837">
        <ele>1183.736</ele>
        <time>2012-01-29T09:53:11Z</time>
      </trkpt>
      <trkpt lat="43.74945" lon="6.91857">
        <ele>1185.066</ele>
        <time>2012-01-29T09:53:20Z</time>
      </trkpt>
      <trkpt lat="43.74952" lon="6.91878">
        <ele>1186.356</ele>
        <time>2012-01-29T09:53:29Z</time>
      </trkpt>
      <trkpt lat="43.74958" lon="6.91893">
        <ele>1187.306</ele>
        <time>2012-01-29T09:53:36Z</time>
      </trkpt>
      <trkpt lat="43.74964" lon="6.91913">
        <ele>1189.176</ele>
        <time>2012-01-29T09:53:45Z</time>
      </trkpt>
      <trkpt lat="43.74971" lon="6.91933">
        <ele>1191.056</ele>
        <time>2012-01-29T09:53:54Z</time>
      </trkpt>
      <trkpt lat="43.74975" lon="6.91951">
        <ele>1192.096</ele>
        <time>2012-01-29T09:54:02Z</time>
      </trkpt>
      <trkpt lat="43.74976" lon="6.91972">
        <ele>1192.936</ele>
        <time>2012-01-29T09:54:11Z</time>
      </trkpt>
      <trkpt lat="43.74976" lon="6.91991">
        <ele>1193.646</ele>
        <time>2012-01-29T09:54:19Z</time>
      </trkpt>
      <trkpt lat="43.74974" lon="6.92006">
        <ele>1195.647</ele>
        <time>2012-01-29T09:54:26Z</time>
      </trkpt>
      <trkpt lat="43.74972" lon="6.92022">
        <ele>1196.907</ele>
        <time>2012-01-29T09:54:33Z</time>
      </trkpt>
      <trkpt lat="43.74971" lon="6.92039">
        <ele>1198.387</ele>
        <time>2012-01-29T09:54:40Z</time>
      </trkpt>
      <trkpt lat="43.74971" lon="6.92058">
        <ele>1200.216</ele>
        <time>2012-01-29T09:54:49Z</time>
      </trkpt>
      <trkpt lat="43.74976" lon="6.9207">
        <ele>1202.317</ele>
        <time>2012-01-29T09:54:55Z</time>
      </trkpt>
      <trkpt lat="43.74985" lon="6.92072">
        <ele>1204.247</ele>
        <time>2012-01-29T09:55:01Z</time>
      </trkpt>
      <trkpt lat="43.74991" lon="6.92062">
        <ele>1206.847</ele>
        <time>2012-01-29T09:55:07Z</time>
      </trkpt>
      <trkpt lat="43.74992" lon="6.92049">
        <ele>1209.707</ele>
        <time>2012-01-29T09:55:14Z</time>
      </trkpt>
      <trkpt lat="43.74992" lon="6.92043">
        <ele>1211.047</ele>
        <time>2012-01-29T09:55:21Z</time>
      </trkpt>
      <trkpt lat="43.74992" lon="6.92037">
        <ele>1213.337</ele>
        <time>2012-01-29T09:55:26Z</time>
      </trkpt>
      <trkpt lat="43.74992" lon="6.92019">
        <ele>1214.337</ele>
        <time>2012-01-29T09:55:36Z</time>
      </trkpt>
      <trkpt lat="43.74993" lon="6.91998">
        <ele>1213.326</ele>
        <time>2012-01-29T09:55:47Z</time>
      </trkpt>
      <trkpt lat="43.74994" lon="6.91981">
        <ele>1212.496</ele>
        <time>2012-01-29T09:55:56Z</time>
      </trkpt>
      <trkpt lat="43.74997" lon="6.91955">
        <ele>1211.866</ele>
        <time>2012-01-29T09:56:10Z</time>
      </trkpt>
      <trkpt lat="43.74999" lon="6.91937">
        <ele>1212.116</ele>
        <time>2012-01-29T09:56:20Z</time>
      </trkpt>
      <trkpt lat="43.75" lon="6.91918">
        <ele>1211.976</ele>
        <time>2012-01-29T09:56:31Z</time>
      </trkpt>
      <trkpt lat="43.75" lon="6.919">
        <ele>1212.026</ele>
        <time>2012-01-29T09:56:42Z</time>
      </trkpt>
      <trkpt lat="43.74999" lon="6.91879">
        <ele>1211.836</ele>
        <time>2012-01-29T09:56:53Z</time>
      </trkpt>
      <trkpt lat="43.74999" lon="6.91861">
        <ele>1213.896</ele>
        <time>2012-01-29T09:57:03Z</time>
      </trkpt>
      <trkpt lat="43.75006" lon="6.91851">
        <ele>1215.286</ele>
        <time>2012-01-29T09:57:10Z</time>
      </trkpt>
      <trkpt lat="43.75015" lon="6.91854">
        <ele>1218.806</ele>
        <time>2012-01-29T09:57:17Z</time>
      </trkpt>
      <trkpt lat="43.75018" lon="6.91866">
        <ele>1220.627</ele>
        <time>2012-01-29T09:57:25Z</time>
      </trkpt>
      <trkpt lat="43.75019" lon="6.91886">
        <ele>1221.656</ele>
        <time>2012-01-29T09:57:37Z</time>
      </trkpt>
      <trkpt lat="43.75017" lon="6.91905">
        <ele>1224.597</ele>
        <time>2012-01-29T09:57:48Z</time>
      </trkpt>
      <trkpt lat="43.75017" lon="6.91926">
        <ele>1227.246</ele>
        <time>2012-01-29T09:58:00Z</time>
      </trkpt>
      <trkpt lat="43.75017" lon="6.91946">
        <ele>1229.727</ele>
        <time>2012-01-29T09:58:11Z</time>
      </trkpt>
      <trkpt lat="43.75018" lon="6.91965">
        <ele>1232.207</ele>
        <time>2012-01-29T09:58:22Z</time>
      </trkpt>
      <trkpt lat="43.7502" lon="6.91982">
        <ele>1233.727</ele>
        <time>2012-01-29T09:58:32Z</time>
      </trkpt>
      <trkpt lat="43.75024" lon="6.92001">
        <ele>1234.397</ele>
        <time>2012-01-29T09:58:43Z</time>
      </trkpt>
      <trkpt lat="43.75026" lon="6.92016">
        <ele>1235.457</ele>
        <time>2012-01-29T09:58:52Z</time>
      </trkpt>
      <trkpt lat="43.75027" lon="6.92029">
        <ele>1236.747</ele>
        <time>2012-01-29T09:59:00Z</time>
      </trkpt>
      <trkpt lat="43.75028" lon="6.92033">
        <ele>1237.117</ele>
        <time>2012-01-29T09:59:02Z</time>
      </trkpt>
      <trkpt lat="43.7503" lon="6.92047">
        <ele>1237.713</ele>
        <time>2012-01-29T09:59:11Z</time>
      </trkpt>
      <trkpt lat="43.75033" lon="6.92064">
        <ele>1238.917</ele>
        <time>2012-01-29T09:59:21Z</time>
      </trkpt>
      <trkpt lat="43.75037" lon="6.92081">
        <ele>1240.577</ele>
        <time>2012-01-29T09:59:31Z</time>
      </trkpt>
      <trkpt lat="43.75039" lon="6.92096">
        <ele>1243.758</ele>
        <time>2012-01-29T09:59:40Z</time>
      </trkpt>
      <trkpt lat="43.75043" lon="6.92113">
        <ele>1246.248</ele>
        <time>2012-01-29T09:59:50Z</time>
      </trkpt>
      <trkpt lat="43.75048" lon="6.9213">
        <ele>1247.176</ele>
        <time>2012-01-29T10:00:01Z</time>
      </trkpt>
      <trkpt lat="43.75049" lon="6.92134">
        <ele>1247.567</ele>
        <time>2012-01-29T10:00:05Z</time>
      </trkpt>
      <trkpt lat="43.75051" lon="6.92149">
        <ele>1249.087</ele>
        <time>2012-01-29T10:00:14Z</time>
      </trkpt>
      <trkpt lat="43.75053" lon="6.92164">
        <ele>1250.647</ele>
        <time>2012-01-29T10:00:23Z</time>
      </trkpt>
      <trkpt lat="43.75054" lon="6.9218">
        <ele>1252.747</ele>
        <time>2012-01-29T10:00:32Z</time>
      </trkpt>
      <trkpt lat="43.75058" lon="6.92194">
        <ele>1251.657</ele>
        <time>2012-01-29T10:00:40Z</time>
      </trkpt>
      <trkpt lat="43.75059" lon="6.92213">
        <ele>1252.257</ele>
        <time>2012-01-29T10:00:51Z</time>
      </trkpt>
      <trkpt lat="43.75059" lon="6.92235">
        <ele>1255.008</ele>
        <time>2012-01-29T10:01:04Z</time>
      </trkpt>
      <trkpt lat="43.75059" lon="6.92258">
        <ele>1257.388</ele>
        <time>2012-01-29T10:01:17Z</time>
      </trkpt>
      <trkpt lat="43.75059" lon="6.92278">
        <ele>1259.497</ele>
        <time>2012-01-29T10:01:29Z</time>
      </trkpt>
      <trkpt lat="43.75061" lon="6.92298">
        <ele>1259.547</ele>
        <time>2012-01-29T10:01:40Z</time>
      </trkpt>
      <trkpt lat="43.75062" lon="6.92312">
        <ele>1261.038</ele>
        <time>2012-01-29T10:01:50Z</time>
      </trkpt>
      <trkpt lat="43.75063" lon="6.92315">
        <ele>1260.567</ele>
        <time>2012-01-29T10:01:56Z</time>
      </trkpt>
      <trkpt lat="43.75066" lon="6.9233">
        <ele>1260.057</ele>
        <time>2012-01-29T10:02:03Z</time>
      </trkpt>
      <trkpt lat="43.75068" lon="6.92354">
        <ele>1260.857</ele>
        <time>2012-01-29T10:02:14Z</time>
      </trkpt>
      <trkpt lat="43.7507" lon="6.92368">
        <ele>1261.597</ele>
        <time>2012-01-29T10:02:20Z</time>
      </trkpt>
      <trkpt lat="43.75073" lon="6.92392">
        <ele>1262.677</ele>
        <time>2012-01-29T10:02:30Z</time>
      </trkpt>
      <trkpt lat="43.75078" lon="6.92412">
        <ele>1263.797</ele>
        <time>2012-01-29T10:02:39Z</time>
      </trkpt>
      <trkpt lat="43.75086" lon="6.92429">
        <ele>1264.778</ele>
        <time>2012-01-29T10:02:47Z</time>
      </trkpt>
      <trkpt lat="43.75098" lon="6.92442">
        <ele>1265.467</ele>
        <time>2012-01-29T10:02:56Z</time>
      </trkpt>
      <trkpt lat="43.75112" lon="6.92453">
        <ele>1266.427</ele>
        <time>2012-01-29T10:03:05Z</time>
      </trkpt>
      <trkpt lat="43.75125" lon="6.92454">
        <ele>1268.197</ele>
        <time>2012-01-29T10:03:13Z</time>
      </trkpt>
      <trkpt lat="43.75135" lon="6.92451">
        <ele>1267.876</ele>
        <time>2012-01-29T10:03:20Z</time>
      </trkpt>
      <trkpt lat="43.75141" lon="6.9245">
        <ele>1267.327</ele>
        <time>2012-01-29T10:03:27Z</time>
      </trkpt>
      <trkpt lat="43.75146" lon="6.92449">
        <ele>1267.667</ele>
        <time>2012-01-29T10:03:33Z</time>
      </trkpt>
      <trkpt lat="43.75148" lon="6.92447">
        <ele>1267.917</ele>
        <time>2012-01-29T10:03:37Z</time>
      </trkpt>
      <trkpt lat="43.75154" lon="6.92445">
        <ele>1268.477</ele>
        <time>2012-01-29T10:03:44Z</time>
      </trkpt>
      <trkpt lat="43.75156" lon="6.92444">
        <ele>1268.797</ele>
        <time>2012-01-29T10:03:49Z</time>
      </trkpt>
      <trkpt lat="43.75158" lon="6.92441">
        <ele>1268.597</ele>
        <time>2012-01-29T10:03:55Z</time>
      </trkpt>
      <trkpt lat="43.75164" lon="6.92428">
        <ele>1265.947</ele>
        <time>2012-01-29T10:04:05Z</time>
      </trkpt>
      <trkpt lat="43.75169" lon="6.92415">
        <ele>1267.077</ele>
        <time>2012-01-29T10:04:12Z</time>
      </trkpt>
      <trkpt lat="43.75173" lon="6.924">
        <ele>1267.477</ele>
        <time>2012-01-29T10:04:18Z</time>
      </trkpt>
      <trkpt lat="43.75173" lon="6.924">
        <ele>1267.697</ele>
        <time>2012-01-29T10:04:29Z</time>
      </trkpt>
      <trkpt lat="43.75172" lon="6.924">
        <ele>1267.687</ele>
        <time>2012-01-29T10:04:35Z</time>
      </trkpt>
      <trkpt lat="43.75165" lon="6.924">
        <ele>1268.957</ele>
        <time>2012-01-29T10:04:40Z</time>
      </trkpt>
      <trkpt lat="43.75156" lon="6.92392">
        <ele>1269.216</ele>
        <time>2012-01-29T10:04:45Z</time>
      </trkpt>
      <trkpt lat="43.7515" lon="6.9238">
        <ele>1270.006</ele>
        <time>2012-01-29T10:04:51Z</time>
      </trkpt>
      <trkpt lat="43.75149" lon="6.92379">
        <ele>1269.596</ele>
        <time>2012-01-29T10:04:56Z</time>
      </trkpt>
      <trkpt lat="43.75145" lon="6.92381">
        <ele>1278.017</ele>
        <time>2012-01-29T10:08:54Z</time>
      </trkpt>
      <trkpt lat="43.75147" lon="6.92365">
        <ele>1276.896</ele>
        <time>2012-01-29T10:09:01Z</time>
      </trkpt>
      <trkpt lat="43.75149" lon="6.9234">
        <ele>1275.406</ele>
        <time>2012-01-29T10:09:07Z</time>
      </trkpt>
      <trkpt lat="43.75146" lon="6.9231">
        <ele>1274.007</ele>
        <time>2012-01-29T10:09:15Z</time>
      </trkpt>
      <trkpt lat="43.75136" lon="6.92291">
        <ele>1272.886</ele>
        <time>2012-01-29T10:09:21Z</time>
      </trkpt>
      <trkpt lat="43.75122" lon="6.92273">
        <ele>1272.076</ele>
        <time>2012-01-29T10:09:27Z</time>
      </trkpt>
      <trkpt lat="43.75117" lon="6.92257">
        <ele>1271.586</ele>
        <time>2012-01-29T10:09:31Z</time>
      </trkpt>
      <trkpt lat="43.7511" lon="6.9223">
        <ele>1271.425</ele>
        <time>2012-01-29T10:09:37Z</time>
      </trkpt>
      <trkpt lat="43.75102" lon="6.92201">
        <ele>1270.526</ele>
        <time>2012-01-29T10:09:43Z</time>
      </trkpt>
      <trkpt lat="43.75101" lon="6.92171">
        <ele>1271.357</ele>
        <time>2012-01-29T10:09:49Z</time>
      </trkpt>
      <trkpt lat="43.75106" lon="6.92144">
        <ele>1272.758</ele>
        <time>2012-01-29T10:09:55Z</time>
      </trkpt>
      <trkpt lat="43.75109" lon="6.92122">
        <ele>1272.207</ele>
        <time>2012-01-29T10:10:01Z</time>
      </trkpt>
      <trkpt lat="43.75109" lon="6.92104">
        <ele>1271.186</ele>
        <time>2012-01-29T10:10:06Z</time>
      </trkpt>
      <trkpt lat="43.75107" lon="6.92093">
        <ele>1269.105</ele>
        <time>2012-01-29T10:10:11Z</time>
      </trkpt>
      <trkpt lat="43.75106" lon="6.92095">
        <ele>1268.486</ele>
        <time>2012-01-29T10:10:24Z</time>
      </trkpt>
      <trkpt lat="43.75108" lon="6.92103">
        <ele>1269.567</ele>
        <time>2012-01-29T10:10:28Z</time>
      </trkpt>
      <trkpt lat="43.75111" lon="6.92111">
        <ele>1270.257</ele>
        <time>2012-01-29T10:10:32Z</time>
      </trkpt>
      <trkpt lat="43.75117" lon="6.9211">
        <ele>1269.956</ele>
        <time>2012-01-29T10:10:36Z</time>
      </trkpt>
      <trkpt lat="43.75119" lon="6.92106">
        <ele>1268.916</ele>
        <time>2012-01-29T10:10:42Z</time>
      </trkpt>
      <trkpt lat="43.75119" lon="6.92102">
        <ele>1268.376</ele>
        <time>2012-01-29T10:10:51Z</time>
      </trkpt>
      <trkpt lat="43.75119" lon="6.92101">
        <ele>1267.545</ele>
        <time>2012-01-29T10:10:57Z</time>
      </trkpt>
      <trkpt lat="43.75115" lon="6.92089">
        <ele>1266.206</ele>
        <time>2012-01-29T10:11:04Z</time>
      </trkpt>
      <trkpt lat="43.75112" lon="6.92076">
        <ele>1265.004</ele>
        <time>2012-01-29T10:11:09Z</time>
      </trkpt>
      <trkpt lat="43.75112" lon="6.92073">
        <ele>1264.875</ele>
        <time>2012-01-29T10:11:10Z</time>
      </trkpt>
      <trkpt lat="43.75109" lon="6.92062">
        <ele>1264.086</ele>
        <time>2012-01-29T10:11:17Z</time>
      </trkpt>
      <trkpt lat="43.75109" lon="6.9206">
        <ele>1263.376</ele>
        <time>2012-01-29T10:11:21Z</time>
      </trkpt>
      <trkpt lat="43.75108" lon="6.92056">
        <ele>1262.876</ele>
        <time>2012-01-29T10:11:28Z</time>
      </trkpt>
      <trkpt lat="43.75102" lon="6.92046">
        <ele>1262.075</ele>
        <time>2012-01-29T10:11:34Z</time>
      </trkpt>
      <trkpt lat="43.75099" lon="6.92027">
        <ele>1260.754</ele>
        <time>2012-01-29T10:11:40Z</time>
      </trkpt>
      <trkpt lat="43.75095" lon="6.92009">
        <ele>1257.874</ele>
        <time>2012-01-29T10:11:45Z</time>
      </trkpt>
      <trkpt lat="43.75088" lon="6.91991">
        <ele>1256.123</ele>
        <time>2012-01-29T10:11:50Z</time>
      </trkpt>
      <trkpt lat="43.7508" lon="6.91969">
        <ele>1255.695</ele>
        <time>2012-01-29T10:11:56Z</time>
      </trkpt>
      <trkpt lat="43.75079" lon="6.91952">
        <ele>1256.946</ele>
        <time>2012-01-29T10:12:01Z</time>
      </trkpt>
      <trkpt lat="43.75078" lon="6.91935">
        <ele>1258.447</ele>
        <time>2012-01-29T10:12:07Z</time>
      </trkpt>
      <trkpt lat="43.75083" lon="6.91917">
        <ele>1259.376</ele>
        <time>2012-01-29T10:12:14Z</time>
      </trkpt>
      <trkpt lat="43.75093" lon="6.91898">
        <ele>1260.906</ele>
        <time>2012-01-29T10:12:22Z</time>
      </trkpt>
      <trkpt lat="43.75102" lon="6.91883">
        <ele>1261.506</ele>
        <time>2012-01-29T10:12:29Z</time>
      </trkpt>
      <trkpt lat="43.75112" lon="6.91866">
        <ele>1261.326</ele>
        <time>2012-01-29T10:12:36Z</time>
      </trkpt>
      <trkpt lat="43.75123" lon="6.9185">
        <ele>1260.405</ele>
        <time>2012-01-29T10:12:44Z</time>
      </trkpt>
      <trkpt lat="43.75134" lon="6.91833">
        <ele>1260.826</ele>
        <time>2012-01-29T10:12:52Z</time>
      </trkpt>
      <trkpt lat="43.75143" lon="6.91819">
        <ele>1260.766</ele>
        <time>2012-01-29T10:12:59Z</time>
      </trkpt>
      <trkpt lat="43.75148" lon="6.91809">
        <ele>1260.075</ele>
        <time>2012-01-29T10:13:04Z</time>
      </trkpt>
      <trkpt lat="43.75158" lon="6.918">
        <ele>1259.996</ele>
        <time>2012-01-29T10:13:10Z</time>
      </trkpt>
      <trkpt lat="43.75159" lon="6.91799">
        <ele>1259.915</ele>
        <time>2012-01-29T10:13:11Z</time>
      </trkpt>
      <trkpt lat="43.75166" lon="6.9179">
        <ele>1259.626</ele>
        <time>2012-01-29T10:13:17Z</time>
      </trkpt>
      <trkpt lat="43.75173" lon="6.9178">
        <ele>1259.886</ele>
        <time>2012-01-29T10:13:23Z</time>
      </trkpt>
      <trkpt lat="43.75176" lon="6.91777">
        <ele>1259.375</ele>
        <time>2012-01-29T10:13:28Z</time>
      </trkpt>
      <trkpt lat="43.75176" lon="6.91774">
        <ele>1256.685</ele>
        <time>2012-01-29T10:13:54Z</time>
      </trkpt>
      <trkpt lat="43.75178" lon="6.91773">
        <ele>1256.715</ele>
        <time>2012-01-29T10:14:00Z</time>
      </trkpt>
      <trkpt lat="43.7518" lon="6.91771">
        <ele>1257.125</ele>
        <time>2012-01-29T10:14:10Z</time>
      </trkpt>
      <trkpt lat="43.75189" lon="6.91755">
        <ele>1257.845</ele>
        <time>2012-01-29T10:14:17Z</time>
      </trkpt>
      <trkpt lat="43.75195" lon="6.91745">
        <ele>1258.815</ele>
        <time>2012-01-29T10:14:23Z</time>
      </trkpt>
      <trkpt lat="43.75201" lon="6.91735">
        <ele>1257.995</ele>
        <time>2012-01-29T10:14:32Z</time>
      </trkpt>
      <trkpt lat="43.75207" lon="6.91724">
        <ele>1257.185</ele>
        <time>2012-01-29T10:14:42Z</time>
      </trkpt>
      <trkpt lat="43.75213" lon="6.91713">
        <ele>1255.406</ele>
        <time>2012-01-29T10:14:51Z</time>
      </trkpt>
      <trkpt lat="43.75218" lon="6.91704">
        <ele>1256.806</ele>
        <time>2012-01-29T10:14:59Z</time>
      </trkpt>
      <trkpt lat="43.75225" lon="6.91691">
        <ele>1255.736</ele>
        <time>2012-01-29T10:15:10Z</time>
      </trkpt>
      <trkpt lat="43.75227" lon="6.91687">
        <ele>1255.375</ele>
        <time>2012-01-29T10:15:15Z</time>
      </trkpt>
      <trkpt lat="43.75232" lon="6.91677">
        <ele>1254.545</ele>
        <time>2012-01-29T10:15:23Z</time>
      </trkpt>
      <trkpt lat="43.75237" lon="6.91668">
        <ele>1253.575</ele>
        <time>2012-01-29T10:15:31Z</time>
      </trkpt>
      <trkpt lat="43.75243" lon="6.91656">
        <ele>1254.115</ele>
        <time>2012-01-29T10:15:40Z</time>
      </trkpt>
      <trkpt lat="43.75247" lon="6.91647">
        <ele>1252.385</ele>
        <time>2012-01-29T10:15:48Z</time>
      </trkpt>
      <trkpt lat="43.75248" lon="6.91644">
        <ele>1251.835</ele>
        <time>2012-01-29T10:15:54Z</time>
      </trkpt>
      <trkpt lat="43.75251" lon="6.91639">
        <ele>1251.925</ele>
        <time>2012-01-29T10:16:04Z</time>
      </trkpt>
      <trkpt lat="43.75252" lon="6.91635">
        <ele>1252.455</ele>
        <time>2012-01-29T10:16:10Z</time>
      </trkpt>
      <trkpt lat="43.75257" lon="6.91627">
        <ele>1252.695</ele>
        <time>2012-01-29T10:16:15Z</time>
      </trkpt>
      <trkpt lat="43.75263" lon="6.91616">
        <ele>1252.085</ele>
        <time>2012-01-29T10:16:22Z</time>
      </trkpt>
      <trkpt lat="43.75265" lon="6.91611">
        <ele>1251.295</ele>
        <time>2012-01-29T10:16:34Z</time>
      </trkpt>
      <trkpt lat="43.75269" lon="6.91601">
        <ele>1250.255</ele>
        <time>2012-01-29T10:16:43Z</time>
      </trkpt>
      <trkpt lat="43.75273" lon="6.91591">
        <ele>1249.975</ele>
        <time>2012-01-29T10:16:51Z</time>
      </trkpt>
      <trkpt lat="43.75275" lon="6.91579">
        <ele>1250.486</ele>
        <time>2012-01-29T10:17:01Z</time>
      </trkpt>
      <trkpt lat="43.75277" lon="6.91566">
        <ele>1250.785</ele>
        <time>2012-01-29T10:17:12Z</time>
      </trkpt>
      <trkpt lat="43.75277" lon="6.91555">
        <ele>1252.535</ele>
        <time>2012-01-29T10:17:21Z</time>
      </trkpt>
      <trkpt lat="43.75278" lon="6.91549">
        <ele>1253.435</ele>
        <time>2012-01-29T10:17:29Z</time>
      </trkpt>
      <trkpt lat="43.75278" lon="6.91542">
        <ele>1253.925</ele>
        <time>2012-01-29T10:17:33Z</time>
      </trkpt>
      <trkpt lat="43.7528" lon="6.91531">
        <ele>1254.165</ele>
        <time>2012-01-29T10:17:41Z</time>
      </trkpt>
      <trkpt lat="43.75283" lon="6.91519">
        <ele>1253.895</ele>
        <time>2012-01-29T10:17:50Z</time>
      </trkpt>
      <trkpt lat="43.75286" lon="6.91508">
        <ele>1253.445</ele>
        <time>2012-01-29T10:17:59Z</time>
      </trkpt>
      <trkpt lat="43.75288" lon="6.91501">
        <ele>1252.435</ele>
        <time>2012-01-29T10:18:07Z</time>
      </trkpt>
      <trkpt lat="43.75291" lon="6.91492">
        <ele>1252.165</ele>
        <time>2012-01-29T10:18:15Z</time>
      </trkpt>
      <trkpt lat="43.75292" lon="6.91482">
        <ele>1252.515</ele>
        <time>2012-01-29T10:18:23Z</time>
      </trkpt>
      <trkpt lat="43.75294" lon="6.9147">
        <ele>1254.285</ele>
        <time>2012-01-29T10:18:34Z</time>
      </trkpt>
      <trkpt lat="43.75296" lon="6.91465">
        <ele>1254.485</ele>
        <time>2012-01-29T10:18:43Z</time>
      </trkpt>
      <trkpt lat="43.75296" lon="6.91465">
        <ele>1255.505</ele>
        <time>2012-01-29T10:18:52Z</time>
      </trkpt>
      <trkpt lat="43.75297" lon="6.91451">
        <ele>1256.126</ele>
        <time>2012-01-29T10:18:58Z</time>
      </trkpt>
      <trkpt lat="43.75297" lon="6.91439">
        <ele>1256.585</ele>
        <time>2012-01-29T10:19:02Z</time>
      </trkpt>
      <trkpt lat="43.75296" lon="6.91436">
        <ele>1257.395</ele>
        <time>2012-01-29T10:19:09Z</time>
      </trkpt>
      <trkpt lat="43.75295" lon="6.91433">
        <ele>1257.695</ele>
        <time>2012-01-29T10:19:14Z</time>
      </trkpt>
      <trkpt lat="43.75292" lon="6.91425">
        <ele>1257.545</ele>
        <time>2012-01-29T10:19:21Z</time>
      </trkpt>
      <trkpt lat="43.75289" lon="6.91418">
        <ele>1257.575</ele>
        <time>2012-01-29T10:19:30Z</time>
      </trkpt>
      <trkpt lat="43.75287" lon="6.91413">
        <ele>1256.825</ele>
        <time>2012-01-29T10:19:39Z</time>
      </trkpt>
      <trkpt lat="43.75286" lon="6.91397">
        <ele>1256.905</ele>
        <time>2012-01-29T10:19:48Z</time>
      </trkpt>
      <trkpt lat="43.75285" lon="6.91384">
        <ele>1257.125</ele>
        <time>2012-01-29T10:19:56Z</time>
      </trkpt>
      <trkpt lat="43.75285" lon="6.91373">
        <ele>1257.335</ele>
        <time>2012-01-29T10:20:05Z</time>
      </trkpt>
      <trkpt lat="43.75283" lon="6.91361">
        <ele>1257.885</ele>
        <time>2012-01-29T10:20:14Z</time>
      </trkpt>
      <trkpt lat="43.75281" lon="6.9135">
        <ele>1258.725</ele>
        <time>2012-01-29T10:20:23Z</time>
      </trkpt>
      <trkpt lat="43.75278" lon="6.91341">
        <ele>1258.805</ele>
        <time>2012-01-29T10:20:31Z</time>
      </trkpt>
      <trkpt lat="43.75276" lon="6.9133">
        <ele>1258.955</ele>
        <time>2012-01-29T10:20:40Z</time>
      </trkpt>
      <trkpt lat="43.75274" lon="6.9132">
        <ele>1258.985</ele>
        <time>2012-01-29T10:20:48Z</time>
      </trkpt>
      <trkpt lat="43.75272" lon="6.91308">
        <ele>1259.015</ele>
        <time>2012-01-29T10:20:57Z</time>
      </trkpt>
      <trkpt lat="43.75269" lon="6.91301">
        <ele>1258.974</ele>
        <time>2012-01-29T10:21:03Z</time>
      </trkpt>
      <trkpt lat="43.75268" lon="6.91301">
        <ele>1259.085</ele>
        <time>2012-01-29T10:21:07Z</time>
      </trkpt>
      <trkpt lat="43.75267" lon="6.91301">
        <ele>1258.914</ele>
        <time>2012-01-29T10:21:13Z</time>
      </trkpt>
      <trkpt lat="43.75265" lon="6.91297">
        <ele>1261.924</ele>
        <time>2012-01-29T10:21:59Z</time>
      </trkpt>
      <trkpt lat="43.75264" lon="6.91295">
        <ele>1261.985</ele>
        <time>2012-01-29T10:22:03Z</time>
      </trkpt>
      <trkpt lat="43.75261" lon="6.91284">
        <ele>1261.405</ele>
        <time>2012-01-29T10:22:10Z</time>
      </trkpt>
      <trkpt lat="43.7526" lon="6.91268">
        <ele>1260.414</ele>
        <time>2012-01-29T10:22:15Z</time>
      </trkpt>
      <trkpt lat="43.75258" lon="6.91243">
        <ele>1259.804</ele>
        <time>2012-01-29T10:22:22Z</time>
      </trkpt>
      <trkpt lat="43.75258" lon="6.91224">
        <ele>1260.025</ele>
        <time>2012-01-29T10:22:28Z</time>
      </trkpt>
      <trkpt lat="43.75259" lon="6.91198">
        <ele>1260.475</ele>
        <time>2012-01-29T10:22:37Z</time>
      </trkpt>
      <trkpt lat="43.7526" lon="6.91181">
        <ele>1260.845</ele>
        <time>2012-01-29T10:22:43Z</time>
      </trkpt>
      <trkpt lat="43.75262" lon="6.91161">
        <ele>1261.695</ele>
        <time>2012-01-29T10:22:51Z</time>
      </trkpt>
      <trkpt lat="43.75264" lon="6.91142">
        <ele>1262.757</ele>
        <time>2012-01-29T10:22:59Z</time>
      </trkpt>
      <trkpt lat="43.75265" lon="6.91124">
        <ele>1263.254</ele>
        <time>2012-01-29T10:23:07Z</time>
      </trkpt>
      <trkpt lat="43.75265" lon="6.91105">
        <ele>1263.515</ele>
        <time>2012-01-29T10:23:15Z</time>
      </trkpt>
      <trkpt lat="43.75266" lon="6.91095">
        <ele>1263.365</ele>
        <time>2012-01-29T10:23:20Z</time>
      </trkpt>
      <trkpt lat="43.75268" lon="6.9108">
        <ele>1264.315</ele>
        <time>2012-01-29T10:23:28Z</time>
      </trkpt>
      <trkpt lat="43.75271" lon="6.91069">
        <ele>1265.135</ele>
        <time>2012-01-29T10:23:34Z</time>
      </trkpt>
      <trkpt lat="43.7527" lon="6.91054">
        <ele>1265.545</ele>
        <time>2012-01-29T10:23:41Z</time>
      </trkpt>
      <trkpt lat="43.7527" lon="6.91038">
        <ele>1266.155</ele>
        <time>2012-01-29T10:23:49Z</time>
      </trkpt>
      <trkpt lat="43.75272" lon="6.91035">
        <ele>1266.845</ele>
        <time>2012-01-29T10:23:54Z</time>
      </trkpt>
      <trkpt lat="43.75275" lon="6.91031">
        <ele>1267.835</ele>
        <time>2012-01-29T10:24:08Z</time>
      </trkpt>
      <trkpt lat="43.75279" lon="6.91021">
        <ele>1268.635</ele>
        <time>2012-01-29T10:24:16Z</time>
      </trkpt>
      <trkpt lat="43.75282" lon="6.91015">
        <ele>1268.674</ele>
        <time>2012-01-29T10:24:22Z</time>
      </trkpt>
      <trkpt lat="43.75286" lon="6.91008">
        <ele>1269.365</ele>
        <time>2012-01-29T10:24:29Z</time>
      </trkpt>
      <trkpt lat="43.75287" lon="6.91007">
        <ele>1269.515</ele>
        <time>2012-01-29T10:24:30Z</time>
      </trkpt>
      <trkpt lat="43.75288" lon="6.90997">
        <ele>1269.824</ele>
        <time>2012-01-29T10:24:36Z</time>
      </trkpt>
      <trkpt lat="43.75287" lon="6.90995">
        <ele>1269.874</ele>
        <time>2012-01-29T10:24:41Z</time>
      </trkpt>
      <trkpt lat="43.75288" lon="6.90987">
        <ele>1270.094</ele>
        <time>2012-01-29T10:24:46Z</time>
      </trkpt>
      <trkpt lat="43.75285" lon="6.90969">
        <ele>1270.684</ele>
        <time>2012-01-29T10:24:54Z</time>
      </trkpt>
      <trkpt lat="43.7528" lon="6.90949">
        <ele>1270.944</ele>
        <time>2012-01-29T10:25:02Z</time>
      </trkpt>
      <trkpt lat="43.7528" lon="6.90945">
        <ele>1270.514</ele>
        <time>2012-01-29T10:25:07Z</time>
      </trkpt>
      <trkpt lat="43.75282" lon="6.90944">
        <ele>1269.934</ele>
        <time>2012-01-29T10:25:12Z</time>
      </trkpt>
      <trkpt lat="43.75285" lon="6.9093">
        <ele>1269.224</ele>
        <time>2012-01-29T10:25:20Z</time>
      </trkpt>
      <trkpt lat="43.75285" lon="6.90922">
        <ele>1268.913</ele>
        <time>2012-01-29T10:25:25Z</time>
      </trkpt>
      <trkpt lat="43.75287" lon="6.90901">
        <ele>1267.683</ele>
        <time>2012-01-29T10:25:32Z</time>
      </trkpt>
      <trkpt lat="43.7529" lon="6.90881">
        <ele>1266.092</ele>
        <time>2012-01-29T10:25:39Z</time>
      </trkpt>
      <trkpt lat="43.75287" lon="6.90858">
        <ele>1263.951</ele>
        <time>2012-01-29T10:25:45Z</time>
      </trkpt>
      <trkpt lat="43.75279" lon="6.90834">
        <ele>1262.933</ele>
        <time>2012-01-29T10:25:51Z</time>
      </trkpt>
      <trkpt lat="43.75271" lon="6.90806">
        <ele>1263.595</ele>
        <time>2012-01-29T10:25:59Z</time>
      </trkpt>
      <trkpt lat="43.7527" lon="6.90796">
        <ele>1264.145</ele>
        <time>2012-01-29T10:26:03Z</time>
      </trkpt>
      <trkpt lat="43.7527" lon="6.9079">
        <ele>1265.384</ele>
        <time>2012-01-29T10:26:10Z</time>
      </trkpt>
      <trkpt lat="43.75267" lon="6.90784">
        <ele>1265.734</ele>
        <time>2012-01-29T10:26:15Z</time>
      </trkpt>
      <trkpt lat="43.75263" lon="6.90763">
        <ele>1266.674</ele>
        <time>2012-01-29T10:26:22Z</time>
      </trkpt>
      <trkpt lat="43.7526" lon="6.90753">
        <ele>1266.734</ele>
        <time>2012-01-29T10:26:28Z</time>
      </trkpt>
      <trkpt lat="43.75258" lon="6.90742">
        <ele>1266.123</ele>
        <time>2012-01-29T10:26:33Z</time>
      </trkpt>
      <trkpt lat="43.75258" lon="6.90737">
        <ele>1265.533</ele>
        <time>2012-01-29T10:26:38Z</time>
      </trkpt>
      <trkpt lat="43.75258" lon="6.90738">
        <ele>1267.114</ele>
        <time>2012-01-29T10:27:13Z</time>
      </trkpt>
      <trkpt lat="43.75255" lon="6.90734">
        <ele>1265.032</ele>
        <time>2012-01-29T10:27:20Z</time>
      </trkpt>
      <trkpt lat="43.75252" lon="6.9072">
        <ele>1264.213</ele>
        <time>2012-01-29T10:27:25Z</time>
      </trkpt>
      <trkpt lat="43.75252" lon="6.90711">
        <ele>1264.584</ele>
        <time>2012-01-29T10:27:29Z</time>
      </trkpt>
      <trkpt lat="43.75252" lon="6.90697">
        <ele>1265.534</ele>
        <time>2012-01-29T10:27:36Z</time>
      </trkpt>
      <trkpt lat="43.75252" lon="6.90686">
        <ele>1267.414</ele>
        <time>2012-01-29T10:27:45Z</time>
      </trkpt>
      <trkpt lat="43.75251" lon="6.90684">
        <ele>1267.334</ele>
        <time>2012-01-29T10:27:47Z</time>
      </trkpt>
      <trkpt lat="43.7525" lon="6.90678">
        <ele>1267.733</ele>
        <time>2012-01-29T10:27:54Z</time>
      </trkpt>
      <trkpt lat="43.75249" lon="6.90677">
        <ele>1267.954</ele>
        <time>2012-01-29T10:27:59Z</time>
      </trkpt>
      <trkpt lat="43.75246" lon="6.90673">
        <ele>1269.344</ele>
        <time>2012-01-29T10:28:05Z</time>
      </trkpt>
      <trkpt lat="43.75246" lon="6.90663">
        <ele>1270.604</ele>
        <time>2012-01-29T10:28:12Z</time>
      </trkpt>
      <trkpt lat="43.75243" lon="6.90654">
        <ele>1271.664</ele>
        <time>2012-01-29T10:28:19Z</time>
      </trkpt>
      <trkpt lat="43.75239" lon="6.90642">
        <ele>1273.745</ele>
        <time>2012-01-29T10:28:29Z</time>
      </trkpt>
      <trkpt lat="43.75235" lon="6.90634">
        <ele>1275.224</ele>
        <time>2012-01-29T10:28:36Z</time>
      </trkpt>
      <trkpt lat="43.75231" lon="6.90622">
        <ele>1276.904</ele>
        <time>2012-01-29T10:28:45Z</time>
      </trkpt>
      <trkpt lat="43.75229" lon="6.90607">
        <ele>1278.134</ele>
        <time>2012-01-29T10:28:55Z</time>
      </trkpt>
      <trkpt lat="43.75227" lon="6.90592">
        <ele>1278.184</ele>
        <time>2012-01-29T10:29:04Z</time>
      </trkpt>
      <trkpt lat="43.75227" lon="6.90586">
        <ele>1278.214</ele>
        <time>2012-01-29T10:29:08Z</time>
      </trkpt>
      <trkpt lat="43.75225" lon="6.90573">
        <ele>1278.144</ele>
        <time>2012-01-29T10:29:17Z</time>
      </trkpt>
      <trkpt lat="43.75222" lon="6.90562">
        <ele>1279.634</ele>
        <time>2012-01-29T10:29:25Z</time>
      </trkpt>
      <trkpt lat="43.75219" lon="6.90547">
        <ele>1280.264</ele>
        <time>2012-01-29T10:29:34Z</time>
      </trkpt>
      <trkpt lat="43.75216" lon="6.90535">
        <ele>1281.164</ele>
        <time>2012-01-29T10:29:43Z</time>
      </trkpt>
      <trkpt lat="43.75212" lon="6.90527">
        <ele>1282.192</ele>
        <time>2012-01-29T10:29:51Z</time>
      </trkpt>
      <trkpt lat="43.75211" lon="6.90525">
        <ele>1282.683</ele>
        <time>2012-01-29T10:29:55Z</time>
      </trkpt>
      <trkpt lat="43.75212" lon="6.9052">
        <ele>1283.183</ele>
        <time>2012-01-29T10:30:02Z</time>
      </trkpt>
      <trkpt lat="43.75211" lon="6.90515">
        <ele>1283.823</ele>
        <time>2012-01-29T10:30:08Z</time>
      </trkpt>
      <trkpt lat="43.75211" lon="6.9051">
        <ele>1284.033</ele>
        <time>2012-01-29T10:30:14Z</time>
      </trkpt>
      <trkpt lat="43.75212" lon="6.90509">
        <ele>1284.374</ele>
        <time>2012-01-29T10:30:16Z</time>
      </trkpt>
      <trkpt lat="43.75212" lon="6.90504">
        <ele>1285.244</ele>
        <time>2012-01-29T10:30:23Z</time>
      </trkpt>
      <trkpt lat="43.75212" lon="6.90498">
        <ele>1285.704</ele>
        <time>2012-01-29T10:30:28Z</time>
      </trkpt>
      <trkpt lat="43.75211" lon="6.90487">
        <ele>1285.644</ele>
        <time>2012-01-29T10:30:35Z</time>
      </trkpt>
      <trkpt lat="43.75211" lon="6.90483">
        <ele>1285.503</ele>
        <time>2012-01-29T10:30:38Z</time>
      </trkpt>
      <trkpt lat="43.75212" lon="6.90477">
        <ele>1284.823</ele>
        <time>2012-01-29T10:30:44Z</time>
      </trkpt>
      <trkpt lat="43.75214" lon="6.90476">
        <ele>1284.953</ele>
        <time>2012-01-29T10:30:54Z</time>
      </trkpt>
      <trkpt lat="43.75214" lon="6.90476">
        <ele>1285.283</ele>
        <time>2012-01-29T10:31:02Z</time>
      </trkpt>
      <trkpt lat="43.75213" lon="6.90475">
        <ele>1291.173</ele>
        <time>2012-01-29T10:34:37Z</time>
      </trkpt>
      <trkpt lat="43.75212" lon="6.90471">
        <ele>1289.453</ele>
        <time>2012-01-29T10:34:42Z</time>
      </trkpt>
      <trkpt lat="43.75211" lon="6.90468">
        <ele>1288.132</ele>
        <time>2012-01-29T10:34:46Z</time>
      </trkpt>
      <trkpt lat="43.75212" lon="6.90465">
        <ele>1287.663</ele>
        <time>2012-01-29T10:34:51Z</time>
      </trkpt>
      <trkpt lat="43.75212" lon="6.9046">
        <ele>1286.632</ele>
        <time>2012-01-29T10:34:56Z</time>
      </trkpt>
      <trkpt lat="43.75211" lon="6.90456">
        <ele>1285.682</ele>
        <time>2012-01-29T10:35:01Z</time>
      </trkpt>
      <trkpt lat="43.75211" lon="6.90452">
        <ele>1285.472</ele>
        <time>2012-01-29T10:35:07Z</time>
      </trkpt>
      <trkpt lat="43.7521" lon="6.90446">
        <ele>1284.402</ele>
        <time>2012-01-29T10:35:15Z</time>
      </trkpt>
      <trkpt lat="43.75206" lon="6.9044">
        <ele>1283.492</ele>
        <time>2012-01-29T10:35:21Z</time>
      </trkpt>
      <trkpt lat="43.75203" lon="6.90437">
        <ele>1283.052</ele>
        <time>2012-01-29T10:35:26Z</time>
      </trkpt>
      <trkpt lat="43.75194" lon="6.90437">
        <ele>1282.4</ele>
        <time>2012-01-29T10:35:32Z</time>
      </trkpt>
      <trkpt lat="43.75195" lon="6.90438">
        <ele>1282.594</ele>
        <time>2012-01-29T10:35:44Z</time>
      </trkpt>
      <trkpt lat="43.75194" lon="6.90439">
        <ele>1282.022</ele>
        <time>2012-01-29T10:35:47Z</time>
      </trkpt>
      <trkpt lat="43.7519" lon="6.90449">
        <ele>1278.16</ele>
        <time>2012-01-29T10:35:54Z</time>
      </trkpt>
      <trkpt lat="43.75187" lon="6.9045">
        <ele>1277.131</ele>
        <time>2012-01-29T10:35:59Z</time>
      </trkpt>
      <trkpt lat="43.75185" lon="6.90448">
        <ele>1276.912</ele>
        <time>2012-01-29T10:36:05Z</time>
      </trkpt>
      <trkpt lat="43.75184" lon="6.90447">
        <ele>1276.832</ele>
        <time>2012-01-29T10:36:06Z</time>
      </trkpt>
      <trkpt lat="43.75183" lon="6.90444">
        <ele>1276.103</ele>
        <time>2012-01-29T10:36:13Z</time>
      </trkpt>
      <trkpt lat="43.75183" lon="6.90444">
        <ele>1275.803</ele>
        <time>2012-01-29T10:36:16Z</time>
      </trkpt>
      <trkpt lat="43.75181" lon="6.90443">
        <ele>1275.1</ele>
        <time>2012-01-29T10:36:20Z</time>
      </trkpt>
      <trkpt lat="43.75173" lon="6.90434">
        <ele>1273.352</ele>
        <time>2012-01-29T10:36:27Z</time>
      </trkpt>
      <trkpt lat="43.75169" lon="6.9043">
        <ele>1272.762</ele>
        <time>2012-01-29T10:36:29Z</time>
      </trkpt>
      <trkpt lat="43.75163" lon="6.90424">
        <ele>1272.462</ele>
        <time>2012-01-29T10:36:33Z</time>
      </trkpt>
      <trkpt lat="43.75159" lon="6.9042">
        <ele>1272.712</ele>
        <time>2012-01-29T10:36:37Z</time>
      </trkpt>
      <trkpt lat="43.75152" lon="6.90408">
        <ele>1271.842</ele>
        <time>2012-01-29T10:36:43Z</time>
      </trkpt>
      <trkpt lat="43.75148" lon="6.90403">
        <ele>1272.792</ele>
        <time>2012-01-29T10:36:47Z</time>
      </trkpt>
      <trkpt lat="43.75147" lon="6.90393">
        <ele>1273.432</ele>
        <time>2012-01-29T10:36:55Z</time>
      </trkpt>
      <trkpt lat="43.75146" lon="6.9039">
        <ele>1272.953</ele>
        <time>2012-01-29T10:37:01Z</time>
      </trkpt>
      <trkpt lat="43.75145" lon="6.90385">
        <ele>1271.492</ele>
        <time>2012-01-29T10:37:08Z</time>
      </trkpt>
      <trkpt lat="43.75142" lon="6.9038">
        <ele>1271.302</ele>
        <time>2012-01-29T10:37:10Z</time>
      </trkpt>
      <trkpt lat="43.75138" lon="6.90365">
        <ele>1270.631</ele>
        <time>2012-01-29T10:37:17Z</time>
      </trkpt>
      <trkpt lat="43.75136" lon="6.90363">
        <ele>1272.073</ele>
        <time>2012-01-29T10:37:21Z</time>
      </trkpt>
      <trkpt lat="43.75135" lon="6.90355">
        <ele>1270.88</ele>
        <time>2012-01-29T10:37:29Z</time>
      </trkpt>
      <trkpt lat="43.75129" lon="6.90339">
        <ele>1269.191</ele>
        <time>2012-01-29T10:37:35Z</time>
      </trkpt>
      <trkpt lat="43.75128" lon="6.90322">
        <ele>1269.202</ele>
        <time>2012-01-29T10:37:40Z</time>
      </trkpt>
      <trkpt lat="43.75128" lon="6.9032">
        <ele>1268.923</ele>
        <time>2012-01-29T10:37:44Z</time>
      </trkpt>
      <trkpt lat="43.75126" lon="6.90311">
        <ele>1270.983</ele>
        <time>2012-01-29T10:37:51Z</time>
      </trkpt>
      <trkpt lat="43.75125" lon="6.90309">
        <ele>1271.575</ele>
        <time>2012-01-29T10:37:56Z</time>
      </trkpt>
      <trkpt lat="43.75124" lon="6.90306">
        <ele>1271.012</ele>
        <time>2012-01-29T10:38:02Z</time>
      </trkpt>
      <trkpt lat="43.7512" lon="6.90299">
        <ele>1271.523</ele>
        <time>2012-01-29T10:38:07Z</time>
      </trkpt>
      <trkpt lat="43.75114" lon="6.90285">
        <ele>1270.45</ele>
        <time>2012-01-29T10:38:12Z</time>
      </trkpt>
      <trkpt lat="43.75112" lon="6.90282">
        <ele>1270.279</ele>
        <time>2012-01-29T10:38:14Z</time>
      </trkpt>
      <trkpt lat="43.75106" lon="6.90273">
        <ele>1271.299</ele>
        <time>2012-01-29T10:38:19Z</time>
      </trkpt>
      <trkpt lat="43.75103" lon="6.90265">
        <ele>1270.481</ele>
        <time>2012-01-29T10:38:24Z</time>
      </trkpt>
      <trkpt lat="43.75102" lon="6.90263">
        <ele>1270.332</ele>
        <time>2012-01-29T10:38:28Z</time>
      </trkpt>
      <trkpt lat="43.75101" lon="6.90262">
        <ele>1270.972</ele>
        <time>2012-01-29T10:38:32Z</time>
      </trkpt>
      <trkpt lat="43.75096" lon="6.90255">
        <ele>1270.189</ele>
        <time>2012-01-29T10:38:36Z</time>
      </trkpt>
      <trkpt lat="43.75082" lon="6.90244">
        <ele>1267.555</ele>
        <time>2012-01-29T10:38:42Z</time>
      </trkpt>
      <trkpt lat="43.75078" lon="6.90235">
        <ele>1266.67</ele>
        <time>2012-01-29T10:38:46Z</time>
      </trkpt>
      <trkpt lat="43.75075" lon="6.90226">
        <ele>1265.441</ele>
        <time>2012-01-29T10:38:52Z</time>
      </trkpt>
      <trkpt lat="43.75073" lon="6.90221">
        <ele>1264.041</ele>
        <time>2012-01-29T10:38:57Z</time>
      </trkpt>
      <trkpt lat="43.75068" lon="6.90221">
        <ele>1267.771</ele>
        <time>2012-01-29T10:39:23Z</time>
      </trkpt>
      <trkpt lat="43.7506" lon="6.90212">
        <ele>1267.011</ele>
        <time>2012-01-29T10:39:28Z</time>
      </trkpt>
      <trkpt lat="43.75051" lon="6.90199">
        <ele>1265.281</ele>
        <time>2012-01-29T10:39:33Z</time>
      </trkpt>
      <trkpt lat="43.7505" lon="6.90196">
        <ele>1263.959</ele>
        <time>2012-01-29T10:39:36Z</time>
      </trkpt>
      <trkpt lat="43.75051" lon="6.90195">
        <ele>1262.258</ele>
        <time>2012-01-29T10:39:39Z</time>
      </trkpt>
      <trkpt lat="43.75048" lon="6.90185">
        <ele>1260.141</ele>
        <time>2012-01-29T10:39:45Z</time>
      </trkpt>
      <trkpt lat="43.75045" lon="6.90174">
        <ele>1260.439</ele>
        <time>2012-01-29T10:39:51Z</time>
      </trkpt>
      <trkpt lat="43.7504" lon="6.90166">
        <ele>1259.333</ele>
        <time>2012-01-29T10:39:59Z</time>
      </trkpt>
      <trkpt lat="43.75037" lon="6.9016">
        <ele>1259.816</ele>
        <time>2012-01-29T10:40:06Z</time>
      </trkpt>
      <trkpt lat="43.75035" lon="6.9016">
        <ele>1260.364</ele>
        <time>2012-01-29T10:40:10Z</time>
      </trkpt>
      <trkpt lat="43.75027" lon="6.90149">
        <ele>1259.57</ele>
        <time>2012-01-29T10:40:17Z</time>
      </trkpt>
      <trkpt lat="43.75018" lon="6.90135">
        <ele>1259.54</ele>
        <time>2012-01-29T10:40:22Z</time>
      </trkpt>
      <trkpt lat="43.75014" lon="6.90122">
        <ele>1258.119</ele>
        <time>2012-01-29T10:40:29Z</time>
      </trkpt>
      <trkpt lat="43.75008" lon="6.90107">
        <ele>1256.207</ele>
        <time>2012-01-29T10:40:35Z</time>
      </trkpt>
      <trkpt lat="43.74999" lon="6.90094">
        <ele>1257.081</ele>
        <time>2012-01-29T10:40:40Z</time>
      </trkpt>
      <trkpt lat="43.74989" lon="6.9008">
        <ele>1256.169</ele>
        <time>2012-01-29T10:40:46Z</time>
      </trkpt>
      <trkpt lat="43.7498" lon="6.90073">
        <ele>1255.829</ele>
        <time>2012-01-29T10:40:50Z</time>
      </trkpt>
      <trkpt lat="43.74966" lon="6.90062">
        <ele>1254.516</ele>
        <time>2012-01-29T10:40:56Z</time>
      </trkpt>
      <trkpt lat="43.74953" lon="6.90046">
        <ele>1251.275</ele>
        <time>2012-01-29T10:41:01Z</time>
      </trkpt>
      <trkpt lat="43.74946" lon="6.90037">
        <ele>1248.602</ele>
        <time>2012-01-29T10:41:05Z</time>
      </trkpt>
      <trkpt lat="43.74942" lon="6.90031">
        <ele>1246.464</ele>
        <time>2012-01-29T10:41:08Z</time>
      </trkpt>
      <trkpt lat="43.74938" lon="6.90024">
        <ele>1244.951</ele>
        <time>2012-01-29T10:41:11Z</time>
      </trkpt>
      <trkpt lat="43.74936" lon="6.9001">
        <ele>1243.627</ele>
        <time>2012-01-29T10:41:17Z</time>
      </trkpt>
      <trkpt lat="43.74936" lon="6.90007">
        <ele>1243.519</ele>
        <time>2012-01-29T10:41:18Z</time>
      </trkpt>
      <trkpt lat="43.74937" lon="6.90004">
        <ele>1241.229</ele>
        <time>2012-01-29T10:41:24Z</time>
      </trkpt>
      <trkpt lat="43.74938" lon="6.9">
        <ele>1240.18</ele>
        <time>2012-01-29T10:41:32Z</time>
      </trkpt>
      <trkpt lat="43.74935" lon="6.89994">
        <ele>1239.65</ele>
        <time>2012-01-29T10:41:37Z</time>
      </trkpt>
      <trkpt lat="43.74929" lon="6.89979">
        <ele>1237.264</ele>
        <time>2012-01-29T10:41:43Z</time>
      </trkpt>
      <trkpt lat="43.74922" lon="6.89971">
        <ele>1237.22</ele>
        <time>2012-01-29T10:41:48Z</time>
      </trkpt>
      <trkpt lat="43.74922" lon="6.89971">
        <ele>1238.844</ele>
        <time>2012-01-29T10:41:55Z</time>
      </trkpt>
      <trkpt lat="43.74921" lon="6.8997">
        <ele>1239.543</ele>
        <time>2012-01-29T10:42:33Z</time>
      </trkpt>
      <trkpt lat="43.74921" lon="6.8997">
        <ele>1239.568</ele>
        <time>2012-01-29T10:42:40Z</time>
      </trkpt>
      <trkpt lat="43.74916" lon="6.89977">
        <ele>1237.686</ele>
        <time>2012-01-29T10:42:45Z</time>
      </trkpt>
      <trkpt lat="43.7491" lon="6.89979">
        <ele>1235.925</ele>
        <time>2012-01-29T10:42:48Z</time>
      </trkpt>
      <trkpt lat="43.74909" lon="6.89979">
        <ele>1235.324</ele>
        <time>2012-01-29T10:42:49Z</time>
      </trkpt>
      <trkpt lat="43.7491" lon="6.89987">
        <ele>1232.249</ele>
        <time>2012-01-29T10:42:54Z</time>
      </trkpt>
      <trkpt lat="43.7491" lon="6.89992">
        <ele>1230.766</ele>
        <time>2012-01-29T10:42:56Z</time>
      </trkpt>
      <trkpt lat="43.74906" lon="6.9">
        <ele>1227.553</ele>
        <time>2012-01-29T10:43:00Z</time>
      </trkpt>
      <trkpt lat="43.74902" lon="6.9001">
        <ele>1224.579</ele>
        <time>2012-01-29T10:43:04Z</time>
      </trkpt>
      <trkpt lat="43.74894" lon="6.90014">
        <ele>1222.628</ele>
        <time>2012-01-29T10:43:10Z</time>
      </trkpt>
      <trkpt lat="43.74894" lon="6.90021">
        <ele>1222.158</ele>
        <time>2012-01-29T10:43:13Z</time>
      </trkpt>
      <trkpt lat="43.74895" lon="6.90031">
        <ele>1221.539</ele>
        <time>2012-01-29T10:43:16Z</time>
      </trkpt>
      <trkpt lat="43.7489" lon="6.9004">
        <ele>1219.566</ele>
        <time>2012-01-29T10:43:20Z</time>
      </trkpt>
      <trkpt lat="43.74889" lon="6.90046">
        <ele>1217.887</ele>
        <time>2012-01-29T10:43:25Z</time>
      </trkpt>
      <trkpt lat="43.74885" lon="6.90051">
        <ele>1216.438</ele>
        <time>2012-01-29T10:43:34Z</time>
      </trkpt>
      <trkpt lat="43.74882" lon="6.90054">
        <ele>1215.667</ele>
        <time>2012-01-29T10:43:36Z</time>
      </trkpt>
      <trkpt lat="43.74875" lon="6.90065">
        <ele>1213.676</ele>
        <time>2012-01-29T10:43:42Z</time>
      </trkpt>
      <trkpt lat="43.74869" lon="6.90064">
        <ele>1213.651</ele>
        <time>2012-01-29T10:43:46Z</time>
      </trkpt>
      <trkpt lat="43.74869" lon="6.90064">
        <ele>1214.122</ele>
        <time>2012-01-29T10:43:47Z</time>
      </trkpt>
      <trkpt lat="43.74864" lon="6.90063">
        <ele>1216.712</ele>
        <time>2012-01-29T10:43:54Z</time>
      </trkpt>
      <trkpt lat="43.74863" lon="6.90063">
        <ele>1217.492</ele>
        <time>2012-01-29T10:43:58Z</time>
      </trkpt>
      <trkpt lat="43.74854" lon="6.90067">
        <ele>1216.76</ele>
        <time>2012-01-29T10:44:05Z</time>
      </trkpt>
      <trkpt lat="43.74844" lon="6.90065">
        <ele>1216.702</ele>
        <time>2012-01-29T10:44:10Z</time>
      </trkpt>
      <trkpt lat="43.74841" lon="6.90065">
        <ele>1216.571</ele>
        <time>2012-01-29T10:44:15Z</time>
      </trkpt>
      <trkpt lat="43.74836" lon="6.90064">
        <ele>1215.461</ele>
        <time>2012-01-29T10:44:25Z</time>
      </trkpt>
      <trkpt lat="43.74823" lon="6.90064">
        <ele>1215.218</ele>
        <time>2012-01-29T10:44:31Z</time>
      </trkpt>
      <trkpt lat="43.74822" lon="6.90068">
        <ele>1214.399</ele>
        <time>2012-01-29T10:44:35Z</time>
      </trkpt>
      <trkpt lat="43.74824" lon="6.9007">
        <ele>1213.555</ele>
        <time>2012-01-29T10:44:37Z</time>
      </trkpt>
      <trkpt lat="43.74833" lon="6.90078">
        <ele>1210.795</ele>
        <time>2012-01-29T10:44:43Z</time>
      </trkpt>
      <trkpt lat="43.74829" lon="6.90084">
        <ele>1208.803</ele>
        <time>2012-01-29T10:44:48Z</time>
      </trkpt>
      <trkpt lat="43.74817" lon="6.90085">
        <ele>1207.184</ele>
        <time>2012-01-29T10:44:53Z</time>
      </trkpt>
      <trkpt lat="43.7481" lon="6.90084">
        <ele>1205.998</ele>
        <time>2012-01-29T10:44:58Z</time>
      </trkpt>
      <trkpt lat="43.74807" lon="6.90086">
        <ele>1206.718</ele>
        <time>2012-01-29T10:45:13Z</time>
      </trkpt>
      <trkpt lat="43.74806" lon="6.90089">
        <ele>1205.959</ele>
        <time>2012-01-29T10:45:15Z</time>
      </trkpt>
      <trkpt lat="43.74812" lon="6.90101">
        <ele>1203.737</ele>
        <time>2012-01-29T10:45:20Z</time>
      </trkpt>
      <trkpt lat="43.74806" lon="6.90109">
        <ele>1201.717</ele>
        <time>2012-01-29T10:45:25Z</time>
      </trkpt>
      <trkpt lat="43.748" lon="6.9011">
        <ele>1201.269</ele>
        <time>2012-01-29T10:45:28Z</time>
      </trkpt>
      <trkpt lat="43.74794" lon="6.90108">
        <ele>1201.02</ele>
        <time>2012-01-29T10:45:31Z</time>
      </trkpt>
      <trkpt lat="43.74785" lon="6.90092">
        <ele>1198.588</ele>
        <time>2012-01-29T10:45:38Z</time>
      </trkpt>
      <trkpt lat="43.74774" lon="6.90075">
        <ele>1196.465</ele>
        <time>2012-01-29T10:45:43Z</time>
      </trkpt>
      <trkpt lat="43.74762" lon="6.90059">
        <ele>1194.535</ele>
        <time>2012-01-29T10:45:48Z</time>
      </trkpt>
      <trkpt lat="43.74758" lon="6.90052">
        <ele>1193.698</ele>
        <time>2012-01-29T10:45:52Z</time>
      </trkpt>
      <trkpt lat="43.74757" lon="6.90051">
        <ele>1193.18</ele>
        <time>2012-01-29T10:45:56Z</time>
      </trkpt>
      <trkpt lat="43.74747" lon="6.90046">
        <ele>1191.548</ele>
        <time>2012-01-29T10:46:01Z</time>
      </trkpt>
      <trkpt lat="43.74735" lon="6.90035">
        <ele>1189.857</ele>
        <time>2012-01-29T10:46:06Z</time>
      </trkpt>
      <trkpt lat="43.74725" lon="6.90024">
        <ele>1188.339</ele>
        <time>2012-01-29T10:46:11Z</time>
      </trkpt>
      <trkpt lat="43.74721" lon="6.90022">
        <ele>1187.63</ele>
        <time>2012-01-29T10:46:14Z</time>
      </trkpt>
      <trkpt lat="43.74712" lon="6.90016">
        <ele>1186.55</ele>
        <time>2012-01-29T10:46:21Z</time>
      </trkpt>
      <trkpt lat="43.7471" lon="6.90011">
        <ele>1186.249</ele>
        <time>2012-01-29T10:46:23Z</time>
      </trkpt>
      <trkpt lat="43.74705" lon="6.89992">
        <ele>1185.572</ele>
        <time>2012-01-29T10:46:30Z</time>
      </trkpt>
      <trkpt lat="43.74703" lon="6.89982">
        <ele>1184.68</ele>
        <time>2012-01-29T10:46:36Z</time>
      </trkpt>
      <trkpt lat="43.74702" lon="6.89977">
        <ele>1184.059</ele>
        <time>2012-01-29T10:46:40Z</time>
      </trkpt>
      <trkpt lat="43.74695" lon="6.89968">
        <ele>1182.554</ele>
        <time>2012-01-29T10:46:45Z</time>
      </trkpt>
      <trkpt lat="43.74687" lon="6.89955">
        <ele>1180.915</ele>
        <time>2012-01-29T10:46:50Z</time>
      </trkpt>
      <trkpt lat="43.74686" lon="6.89952">
        <ele>1180.522</ele>
        <time>2012-01-29T10:46:51Z</time>
      </trkpt>
      <trkpt lat="43.74682" lon="6.89932">
        <ele>1177.808</ele>
        <time>2012-01-29T10:46:57Z</time>
      </trkpt>
      <trkpt lat="43.74678" lon="6.899">
        <ele>1174.808</ele>
        <time>2012-01-29T10:47:03Z</time>
      </trkpt>
      <trkpt lat="43.74677" lon="6.89889">
        <ele>1174.057</ele>
        <time>2012-01-29T10:47:07Z</time>
      </trkpt>
      <trkpt lat="43.74677" lon="6.89883">
        <ele>1173.901</ele>
        <time>2012-01-29T10:47:12Z</time>
      </trkpt>
      <trkpt lat="43.74677" lon="6.89883">
        <ele>1172.759</ele>
        <time>2012-01-29T10:47:18Z</time>
      </trkpt>
      <trkpt lat="43.74678" lon="6.8988">
        <ele>1172.752</ele>
        <time>2012-01-29T10:47:24Z</time>
      </trkpt>
      <trkpt lat="43.74678" lon="6.89878">
        <ele>1173.001</ele>
        <time>2012-01-29T10:47:33Z</time>
      </trkpt>
      <trkpt lat="43.74679" lon="6.89875">
        <ele>1172.79</ele>
        <time>2012-01-29T10:47:43Z</time>
      </trkpt>
      <trkpt lat="43.74679" lon="6.8987">
        <ele>1172.363</ele>
        <time>2012-01-29T10:47:49Z</time>
      </trkpt>
      <trkpt lat="43.74679" lon="6.89866">
        <ele>1172.011</ele>
        <time>2012-01-29T10:47:53Z</time>
      </trkpt>
      <trkpt lat="43.74677" lon="6.89849">
        <ele>1171.641</ele>
        <time>2012-01-29T10:48:03Z</time>
      </trkpt>
      <trkpt lat="43.74673" lon="6.89837">
        <ele>1171.501</ele>
        <time>2012-01-29T10:48:13Z</time>
      </trkpt>
      <trkpt lat="43.74667" lon="6.89825">
        <ele>1173.502</ele>
        <time>2012-01-29T10:48:23Z</time>
      </trkpt>
      <trkpt lat="43.7466" lon="6.89819">
        <ele>1173.883</ele>
        <time>2012-01-29T10:48:32Z</time>
      </trkpt>
      <trkpt lat="43.74653" lon="6.89812">
        <ele>1174.954</ele>
        <time>2012-01-29T10:48:43Z</time>
      </trkpt>
      <trkpt lat="43.74647" lon="6.898">
        <ele>1178.765</ele>
        <time>2012-01-29T10:48:56Z</time>
      </trkpt>
      <trkpt lat="43.74641" lon="6.89792">
        <ele>1178.832</ele>
        <time>2012-01-29T10:49:06Z</time>
      </trkpt>
      <trkpt lat="43.74635" lon="6.89782">
        <ele>1179.252</ele>
        <time>2012-01-29T10:49:17Z</time>
      </trkpt>
      <trkpt lat="43.74629" lon="6.89774">
        <ele>1180.194</ele>
        <time>2012-01-29T10:49:27Z</time>
      </trkpt>
      <trkpt lat="43.74628" lon="6.89773">
        <ele>1180.131</ele>
        <time>2012-01-29T10:49:32Z</time>
      </trkpt>
      <trkpt lat="43.74623" lon="6.89763">
        <ele>1180.531</ele>
        <time>2012-01-29T10:49:40Z</time>
      </trkpt>
      <trkpt lat="43.7462" lon="6.89755">
        <ele>1179.961</ele>
        <time>2012-01-29T10:49:49Z</time>
      </trkpt>
      <trkpt lat="43.7462" lon="6.89753">
        <ele>1179.51</ele>
        <time>2012-01-29T10:49:56Z</time>
      </trkpt>
      <trkpt lat="43.74616" lon="6.89749">
        <ele>1177.332</ele>
        <time>2012-01-29T10:50:08Z</time>
      </trkpt>
      <trkpt lat="43.7461" lon="6.89738">
        <ele>1176.501</ele>
        <time>2012-01-29T10:50:18Z</time>
      </trkpt>
      <trkpt lat="43.74604" lon="6.89728">
        <ele>1177.844</ele>
        <time>2012-01-29T10:50:29Z</time>
      </trkpt>
      <trkpt lat="43.74599" lon="6.89718">
        <ele>1179.775</ele>
        <time>2012-01-29T10:50:40Z</time>
      </trkpt>
      <trkpt lat="43.74598" lon="6.89714">
        <ele>1180.342</ele>
        <time>2012-01-29T10:50:44Z</time>
      </trkpt>
      <trkpt lat="43.74593" lon="6.89701">
        <ele>1182.064</ele>
        <time>2012-01-29T10:50:56Z</time>
      </trkpt>
      <trkpt lat="43.74591" lon="6.89694">
        <ele>1182.822</ele>
        <time>2012-01-29T10:51:06Z</time>
      </trkpt>
      <trkpt lat="43.74591" lon="6.89694">
        <ele>1182.811</ele>
        <time>2012-01-29T10:51:07Z</time>
      </trkpt>
      <trkpt lat="43.74587" lon="6.89691">
        <ele>1183.742</ele>
        <time>2012-01-29T10:51:15Z</time>
      </trkpt>
      <trkpt lat="43.74582" lon="6.89683">
        <ele>1186.99</ele>
        <time>2012-01-29T10:51:25Z</time>
      </trkpt>
      <trkpt lat="43.74581" lon="6.89681">
        <ele>1187.131</ele>
        <time>2012-01-29T10:51:28Z</time>
      </trkpt>
      <trkpt lat="43.74572" lon="6.89677">
        <ele>1188.51</ele>
        <time>2012-01-29T10:51:38Z</time>
      </trkpt>
      <trkpt lat="43.74567" lon="6.89671">
        <ele>1189.472</ele>
        <time>2012-01-29T10:51:46Z</time>
      </trkpt>
      <trkpt lat="43.74564" lon="6.89667">
        <ele>1190.795</ele>
        <time>2012-01-29T10:51:51Z</time>
      </trkpt>
      <trkpt lat="43.74555" lon="6.8966">
        <ele>1192.736</ele>
        <time>2012-01-29T10:52:00Z</time>
      </trkpt>
      <trkpt lat="43.74548" lon="6.89655">
        <ele>1192.79</ele>
        <time>2012-01-29T10:52:08Z</time>
      </trkpt>
      <trkpt lat="43.74545" lon="6.89653">
        <ele>1191.498</ele>
        <time>2012-01-29T10:52:58Z</time>
      </trkpt>
      <trkpt lat="43.7454" lon="6.8965">
        <ele>1191.178</ele>
        <time>2012-01-29T10:53:03Z</time>
      </trkpt>
      <trkpt lat="43.74535" lon="6.89647">
        <ele>1190.967</ele>
        <time>2012-01-29T10:53:08Z</time>
      </trkpt>
      <trkpt lat="43.74534" lon="6.89648">
        <ele>1190.991</ele>
        <time>2012-01-29T10:53:14Z</time>
      </trkpt>
      <trkpt lat="43.74533" lon="6.89649">
        <ele>1190.318</ele>
        <time>2012-01-29T10:53:20Z</time>
      </trkpt>
      <trkpt lat="43.74531" lon="6.8965">
        <ele>1189.259</ele>
        <time>2012-01-29T10:53:25Z</time>
      </trkpt>
      <trkpt lat="43.74531" lon="6.89651">
        <ele>1189.059</ele>
        <time>2012-01-29T10:53:26Z</time>
      </trkpt>
      <trkpt lat="43.74529" lon="6.89654">
        <ele>1187.266</ele>
        <time>2012-01-29T10:53:32Z</time>
      </trkpt>
      <trkpt lat="43.74529" lon="6.89654">
        <ele>1187.086</ele>
        <time>2012-01-29T10:53:33Z</time>
      </trkpt>
      <trkpt lat="43.74524" lon="6.89646">
        <ele>1185.441</ele>
        <time>2012-01-29T10:53:38Z</time>
      </trkpt>
      <trkpt lat="43.74522" lon="6.89641">
        <ele>1184.607</ele>
        <time>2012-01-29T10:53:44Z</time>
      </trkpt>
      <trkpt lat="43.74521" lon="6.89637">
        <ele>1184.679</ele>
        <time>2012-01-29T10:53:49Z</time>
      </trkpt>
      <trkpt lat="43.7452" lon="6.89636">
        <ele>1184.376</ele>
        <time>2012-01-29T10:53:56Z</time>
      </trkpt>
      <trkpt lat="43.74518" lon="6.89635">
        <ele>1183.915</ele>
        <time>2012-01-29T10:54:02Z</time>
      </trkpt>
      <trkpt lat="43.74516" lon="6.89633">
        <ele>1183.828</ele>
        <time>2012-01-29T10:54:09Z</time>
      </trkpt>
      <trkpt lat="43.74515" lon="6.8963">
        <ele>1183.336</ele>
        <time>2012-01-29T10:54:16Z</time>
      </trkpt>
      <trkpt lat="43.74512" lon="6.89624">
        <ele>1181.908</ele>
        <time>2012-01-29T10:54:21Z</time>
      </trkpt>
      <trkpt lat="43.74509" lon="6.89613">
        <ele>1180.212</ele>
        <time>2012-01-29T10:54:26Z</time>
      </trkpt>
      <trkpt lat="43.74506" lon="6.896">
        <ele>1178.767</ele>
        <time>2012-01-29T10:54:30Z</time>
      </trkpt>
      <trkpt lat="43.74497" lon="6.89579">
        <ele>1177.484</ele>
        <time>2012-01-29T10:54:36Z</time>
      </trkpt>
      <trkpt lat="43.74495" lon="6.89564">
        <ele>1176.428</ele>
        <time>2012-01-29T10:54:42Z</time>
      </trkpt>
      <trkpt lat="43.74488" lon="6.89542">
        <ele>1173.918</ele>
        <time>2012-01-29T10:54:49Z</time>
      </trkpt>
      <trkpt lat="43.74485" lon="6.89538">
        <ele>1172.984</ele>
        <time>2012-01-29T10:54:53Z</time>
      </trkpt>
      <trkpt lat="43.74488" lon="6.89537">
        <ele>1177.032</ele>
        <time>2012-01-29T10:55:31Z</time>
      </trkpt>
      <trkpt lat="43.74485" lon="6.89531">
        <ele>1176.873</ele>
        <time>2012-01-29T10:55:42Z</time>
      </trkpt>
      <trkpt lat="43.74484" lon="6.89529">
        <ele>1177.022</ele>
        <time>2012-01-29T10:55:46Z</time>
      </trkpt>
      <trkpt lat="43.74484" lon="6.89528">
        <ele>1176.54</ele>
        <time>2012-01-29T10:55:50Z</time>
      </trkpt>
      <trkpt lat="43.74482" lon="6.89529">
        <ele>1174.729</ele>
        <time>2012-01-29T10:55:57Z</time>
      </trkpt>
      <trkpt lat="43.74482" lon="6.89529">
        <ele>1174.097</ele>
        <time>2012-01-29T10:56:00Z</time>
      </trkpt>
      <trkpt lat="43.74478" lon="6.8954">
        <ele>1172.376</ele>
        <time>2012-01-29T10:56:05Z</time>
      </trkpt>
      <trkpt lat="43.74473" lon="6.89558">
        <ele>1169.687</ele>
        <time>2012-01-29T10:56:10Z</time>
      </trkpt>
      <trkpt lat="43.74469" lon="6.89579">
        <ele>1166.025</ele>
        <time>2012-01-29T10:56:16Z</time>
      </trkpt>
      <trkpt lat="43.74464" lon="6.89594">
        <ele>1162.82</ele>
        <time>2012-01-29T10:56:21Z</time>
      </trkpt>
      <trkpt lat="43.74459" lon="6.89607">
        <ele>1160.269</ele>
        <time>2012-01-29T10:56:25Z</time>
      </trkpt>
      <trkpt lat="43.74453" lon="6.8963">
        <ele>1155.577</ele>
        <time>2012-01-29T10:56:32Z</time>
      </trkpt>
      <trkpt lat="43.74449" lon="6.89641">
        <ele>1152.666</ele>
        <time>2012-01-29T10:56:36Z</time>
      </trkpt>
      <trkpt lat="43.7445" lon="6.89643">
        <ele>1151.315</ele>
        <time>2012-01-29T10:56:43Z</time>
      </trkpt>
      <trkpt lat="43.74447" lon="6.89647">
        <ele>1150.522</ele>
        <time>2012-01-29T10:56:56Z</time>
      </trkpt>
      <trkpt lat="43.74444" lon="6.89652">
        <ele>1149.556</ele>
        <time>2012-01-29T10:57:00Z</time>
      </trkpt>
      <trkpt lat="43.74443" lon="6.89653">
        <ele>1149.527</ele>
        <time>2012-01-29T10:57:06Z</time>
      </trkpt>
      <trkpt lat="43.74439" lon="6.89666">
        <ele>1148.336</ele>
        <time>2012-01-29T10:57:11Z</time>
      </trkpt>
      <trkpt lat="43.74436" lon="6.89688">
        <ele>1145.882</ele>
        <time>2012-01-29T10:57:17Z</time>
      </trkpt>
      <trkpt lat="43.74432" lon="6.89707">
        <ele>1143.977</ele>
        <time>2012-01-29T10:57:22Z</time>
      </trkpt>
      <trkpt lat="43.74429" lon="6.89725">
        <ele>1142.994</ele>
        <time>2012-01-29T10:57:27Z</time>
      </trkpt>
      <trkpt lat="43.7442" lon="6.89742">
        <ele>1140.293</ele>
        <time>2012-01-29T10:57:32Z</time>
      </trkpt>
      <trkpt lat="43.74408" lon="6.89761">
        <ele>1135.569</ele>
        <time>2012-01-29T10:57:38Z</time>
      </trkpt>
      <trkpt lat="43.74401" lon="6.89782">
        <ele>1132.886</ele>
        <time>2012-01-29T10:57:43Z</time>
      </trkpt>
      <trkpt lat="43.74391" lon="6.89792">
        <ele>1130.062</ele>
        <time>2012-01-29T10:57:47Z</time>
      </trkpt>
      <trkpt lat="43.74381" lon="6.89803">
        <ele>1126.927</ele>
        <time>2012-01-29T10:57:52Z</time>
      </trkpt>
      <trkpt lat="43.74375" lon="6.89808">
        <ele>1125.859</ele>
        <time>2012-01-29T10:57:56Z</time>
      </trkpt>
      <trkpt lat="43.74377" lon="6.89811">
        <ele>1121.689</ele>
        <time>2012-01-29T10:58:09Z</time>
      </trkpt>
      <trkpt lat="43.74376" lon="6.89813">
        <ele>1121.152</ele>
        <time>2012-01-29T10:58:16Z</time>
      </trkpt>
      <trkpt lat="43.74376" lon="6.89815">
        <ele>1119.95</ele>
        <time>2012-01-29T10:58:45Z</time>
      </trkpt>
      <trkpt lat="43.7437" lon="6.89824">
        <ele>1119.402</ele>
        <time>2012-01-29T10:58:51Z</time>
      </trkpt>
      <trkpt lat="43.74358" lon="6.8984">
        <ele>1117.637</ele>
        <time>2012-01-29T10:58:57Z</time>
      </trkpt>
      <trkpt lat="43.74346" lon="6.89859">
        <ele>1115.479</ele>
        <time>2012-01-29T10:59:02Z</time>
      </trkpt>
      <trkpt lat="43.74333" lon="6.89888">
        <ele>1114.534</ele>
        <time>2012-01-29T10:59:08Z</time>
      </trkpt>
      <trkpt lat="43.74319" lon="6.89913">
        <ele>1114.414</ele>
        <time>2012-01-29T10:59:14Z</time>
      </trkpt>
      <trkpt lat="43.74301" lon="6.89934">
        <ele>1113.36</ele>
        <time>2012-01-29T10:59:20Z</time>
      </trkpt>
      <trkpt lat="43.74282" lon="6.89948">
        <ele>1110.207</ele>
        <time>2012-01-29T10:59:25Z</time>
      </trkpt>
      <trkpt lat="43.74274" lon="6.89953">
        <ele>1109.528</ele>
        <time>2012-01-29T10:59:27Z</time>
      </trkpt>
      <trkpt lat="43.74255" lon="6.8996">
        <ele>1110.37</ele>
        <time>2012-01-29T10:59:31Z</time>
      </trkpt>
      <trkpt lat="43.74224" lon="6.8997">
        <ele>1106.809</ele>
        <time>2012-01-29T10:59:37Z</time>
      </trkpt>
      <trkpt lat="43.74192" lon="6.89983">
        <ele>1104.708</ele>
        <time>2012-01-29T10:59:42Z</time>
      </trkpt>
      <trkpt lat="43.74175" lon="6.89993">
        <ele>1103.459</ele>
        <time>2012-01-29T10:59:45Z</time>
      </trkpt>
      <trkpt lat="43.74165" lon="6.90001">
        <ele>1104.111</ele>
        <time>2012-01-29T10:59:49Z</time>
      </trkpt>
      <trkpt lat="43.74164" lon="6.90004">
        <ele>1100.69</ele>
        <time>2012-01-29T11:00:02Z</time>
      </trkpt>
      <trkpt lat="43.74164" lon="6.90014">
        <ele>1100.079</ele>
        <time>2012-01-29T11:00:07Z</time>
      </trkpt>
      <trkpt lat="43.7417" lon="6.90047">
        <ele>1097.688</ele>
        <time>2012-01-29T11:00:14Z</time>
      </trkpt>
      <trkpt lat="43.74172" lon="6.90083">
        <ele>1096.849</ele>
        <time>2012-01-29T11:00:20Z</time>
      </trkpt>
      <trkpt lat="43.74172" lon="6.90094">
        <ele>1097.03</ele>
        <time>2012-01-29T11:00:24Z</time>
      </trkpt>
      <trkpt lat="43.74171" lon="6.90094">
        <ele>1096.91</ele>
        <time>2012-01-29T11:00:29Z</time>
      </trkpt>
      <trkpt lat="43.74171" lon="6.90086">
        <ele>1095.71</ele>
        <time>2012-01-29T11:00:36Z</time>
      </trkpt>
      <trkpt lat="43.7417" lon="6.90078">
        <ele>1095.27</ele>
        <time>2012-01-29T11:00:40Z</time>
      </trkpt>
      <trkpt lat="43.74168" lon="6.90076">
        <ele>1095.65</ele>
        <time>2012-01-29T11:00:45Z</time>
      </trkpt>
      <trkpt lat="43.74168" lon="6.90073">
        <ele>1090.321</ele>
        <time>2012-01-29T11:10:26Z</time>
      </trkpt>
      <trkpt lat="43.74167" lon="6.90075">
        <ele>1091.221</ele>
        <time>2012-01-29T11:10:37Z</time>
      </trkpt>
      <trkpt lat="43.74168" lon="6.90089">
        <ele>1092.321</ele>
        <time>2012-01-29T11:10:43Z</time>
      </trkpt>
      <trkpt lat="43.74169" lon="6.901">
        <ele>1092.59</ele>
        <time>2012-01-29T11:10:49Z</time>
      </trkpt>
      <trkpt lat="43.74169" lon="6.901">
        <ele>1091.81</ele>
        <time>2012-01-29T11:10:54Z</time>
      </trkpt>
      <trkpt lat="43.74168" lon="6.90095">
        <ele>1091.87</ele>
        <time>2012-01-29T11:10:59Z</time>
      </trkpt>
      <trkpt lat="43.74167" lon="6.90091">
        <ele>1092.08</ele>
        <time>2012-01-29T11:11:04Z</time>
      </trkpt>
      <trkpt lat="43.74175" lon="6.90097">
        <ele>1104.59</ele>
        <time>2012-01-29T11:17:45Z</time>
      </trkpt>
      <trkpt lat="43.74177" lon="6.90101">
        <ele>1100.029</ele>
        <time>2012-01-29T11:17:51Z</time>
      </trkpt>
      <trkpt lat="43.74176" lon="6.90105">
        <ele>1098.807</ele>
        <time>2012-01-29T11:17:55Z</time>
      </trkpt>
      <trkpt lat="43.74175" lon="6.90124">
        <ele>1097.75</ele>
        <time>2012-01-29T11:18:02Z</time>
      </trkpt>
      <trkpt lat="43.74175" lon="6.90152">
        <ele>1098.24</ele>
        <time>2012-01-29T11:18:09Z</time>
      </trkpt>
      <trkpt lat="43.74175" lon="6.90174">
        <ele>1098.71</ele>
        <time>2012-01-29T11:18:15Z</time>
      </trkpt>
      <trkpt lat="43.74176" lon="6.90199">
        <ele>1097.91</ele>
        <time>2012-01-29T11:18:21Z</time>
      </trkpt>
      <trkpt lat="43.74177" lon="6.90223">
        <ele>1097.921</ele>
        <time>2012-01-29T11:18:27Z</time>
      </trkpt>
      <trkpt lat="43.7418" lon="6.90257">
        <ele>1096.7</ele>
        <time>2012-01-29T11:18:36Z</time>
      </trkpt>
      <trkpt lat="43.74182" lon="6.90286">
        <ele>1096.25</ele>
        <time>2012-01-29T11:18:43Z</time>
      </trkpt>
      <trkpt lat="43.74185" lon="6.90315">
        <ele>1095.781</ele>
        <time>2012-01-29T11:18:50Z</time>
      </trkpt>
      <trkpt lat="43.7419" lon="6.90357">
        <ele>1094.3</ele>
        <time>2012-01-29T11:18:59Z</time>
      </trkpt>
      <trkpt lat="43.74195" lon="6.90396">
        <ele>1092.58</ele>
        <time>2012-01-29T11:19:07Z</time>
      </trkpt>
      <trkpt lat="43.74202" lon="6.90439">
        <ele>1091.131</ele>
        <time>2012-01-29T11:19:16Z</time>
      </trkpt>
      <trkpt lat="43.74211" lon="6.90472">
        <ele>1090.491</ele>
        <time>2012-01-29T11:19:23Z</time>
      </trkpt>
      <trkpt lat="43.74228" lon="6.90519">
        <ele>1089.341</ele>
        <time>2012-01-29T11:19:33Z</time>
      </trkpt>
      <trkpt lat="43.74241" lon="6.90553">
        <ele>1088.701</ele>
        <time>2012-01-29T11:19:40Z</time>
      </trkpt>
      <trkpt lat="43.74258" lon="6.90596">
        <ele>1088.101</ele>
        <time>2012-01-29T11:19:49Z</time>
      </trkpt>
      <trkpt lat="43.74272" lon="6.90621">
        <ele>1087.921</ele>
        <time>2012-01-29T11:19:55Z</time>
      </trkpt>
      <trkpt lat="43.74293" lon="6.90654">
        <ele>1086.101</ele>
        <time>2012-01-29T11:20:03Z</time>
      </trkpt>
      <trkpt lat="43.74308" lon="6.90684">
        <ele>1086.651</ele>
        <time>2012-01-29T11:20:10Z</time>
      </trkpt>
      <trkpt lat="43.74314" lon="6.90715">
        <ele>1085.601</ele>
        <time>2012-01-29T11:20:16Z</time>
      </trkpt>
      <trkpt lat="43.74324" lon="6.90755">
        <ele>1084.871</ele>
        <time>2012-01-29T11:20:24Z</time>
      </trkpt>
      <trkpt lat="43.74339" lon="6.90802">
        <ele>1083.511</ele>
        <time>2012-01-29T11:20:34Z</time>
      </trkpt>
      <trkpt lat="43.74352" lon="6.90831">
        <ele>1082.982</ele>
        <time>2012-01-29T11:20:41Z</time>
      </trkpt>
      <trkpt lat="43.74373" lon="6.90862">
        <ele>1084.013</ele>
        <time>2012-01-29T11:20:50Z</time>
      </trkpt>
      <trkpt lat="43.74392" lon="6.90878">
        <ele>1083.221</ele>
        <time>2012-01-29T11:20:56Z</time>
      </trkpt>
      <trkpt lat="43.74424" lon="6.90906">
        <ele>1082.962</ele>
        <time>2012-01-29T11:21:06Z</time>
      </trkpt>
      <trkpt lat="43.7445" lon="6.90928">
        <ele>1084.233</ele>
        <time>2012-01-29T11:21:15Z</time>
      </trkpt>
      <trkpt lat="43.74469" lon="6.90956">
        <ele>1085.953</ele>
        <time>2012-01-29T11:21:24Z</time>
      </trkpt>
      <trkpt lat="43.7448" lon="6.90986">
        <ele>1086.653</ele>
        <time>2012-01-29T11:21:32Z</time>
      </trkpt>
      <trkpt lat="43.74488" lon="6.91015">
        <ele>1087.093</ele>
        <time>2012-01-29T11:21:39Z</time>
      </trkpt>
      <trkpt lat="43.74502" lon="6.91057">
        <ele>1086.974</ele>
        <time>2012-01-29T11:21:50Z</time>
      </trkpt>
      <trkpt lat="43.74511" lon="6.91091">
        <ele>1086.663</ele>
        <time>2012-01-29T11:21:59Z</time>
      </trkpt>
      <trkpt lat="43.74521" lon="6.91107">
        <ele>1086.934</ele>
        <time>2012-01-29T11:22:04Z</time>
      </trkpt>
      <trkpt lat="43.74531" lon="6.91106">
        <ele>1087.614</ele>
        <time>2012-01-29T11:22:08Z</time>
      </trkpt>
      <trkpt lat="43.74545" lon="6.91098">
        <ele>1090.435</ele>
        <time>2012-01-29T11:22:15Z</time>
      </trkpt>
      <trkpt lat="43.74555" lon="6.9109">
        <ele>1093.485</ele>
        <time>2012-01-29T11:22:22Z</time>
      </trkpt>
      <trkpt lat="43.74566" lon="6.91083">
        <ele>1096.105</ele>
        <time>2012-01-29T11:22:29Z</time>
      </trkpt>
      <trkpt lat="43.7458" lon="6.91074">
        <ele>1097.103</ele>
        <time>2012-01-29T11:22:38Z</time>
      </trkpt>
      <trkpt lat="43.74592" lon="6.91067">
        <ele>1098.514</ele>
        <time>2012-01-29T11:22:45Z</time>
      </trkpt>
      <trkpt lat="43.74608" lon="6.91059">
        <ele>1099.374</ele>
        <time>2012-01-29T11:22:54Z</time>
      </trkpt>
      <trkpt lat="43.74624" lon="6.9105">
        <ele>1100.463</ele>
        <time>2012-01-29T11:23:03Z</time>
      </trkpt>
      <trkpt lat="43.7464" lon="6.91044">
        <ele>1103.865</ele>
        <time>2012-01-29T11:23:12Z</time>
      </trkpt>
      <trkpt lat="43.74656" lon="6.91043">
        <ele>1106.334</ele>
        <time>2012-01-29T11:23:20Z</time>
      </trkpt>
      <trkpt lat="43.7467" lon="6.91045">
        <ele>1106.334</ele>
        <time>2012-01-29T11:23:27Z</time>
      </trkpt>
      <trkpt lat="43.7469" lon="6.9105">
        <ele>1105.124</ele>
        <time>2012-01-29T11:23:36Z</time>
      </trkpt>
      <trkpt lat="43.74702" lon="6.91049">
        <ele>1106.995</ele>
        <time>2012-01-29T11:23:42Z</time>
      </trkpt>
      <trkpt lat="43.74716" lon="6.91044">
        <ele>1110.886</ele>
        <time>2012-01-29T11:23:50Z</time>
      </trkpt>
      <trkpt lat="43.74726" lon="6.91039">
        <ele>1111.894</ele>
        <time>2012-01-29T11:23:56Z</time>
      </trkpt>
      <trkpt lat="43.74737" lon="6.91031">
        <ele>1113.421</ele>
        <time>2012-01-29T11:24:03Z</time>
      </trkpt>
      <trkpt lat="43.7475" lon="6.91024">
        <ele>1115.244</ele>
        <time>2012-01-29T11:24:10Z</time>
      </trkpt>
      <trkpt lat="43.74764" lon="6.91025">
        <ele>1115.954</ele>
        <time>2012-01-29T11:24:18Z</time>
      </trkpt>
      <trkpt lat="43.7478" lon="6.91031">
        <ele>1113.244</ele>
        <time>2012-01-29T11:24:26Z</time>
      </trkpt>
      <trkpt lat="43.7479" lon="6.9104">
        <ele>1112.484</ele>
        <time>2012-01-29T11:24:32Z</time>
      </trkpt>
      <trkpt lat="43.74798" lon="6.91052">
        <ele>1111.844</ele>
        <time>2012-01-29T11:24:39Z</time>
      </trkpt>
      <trkpt lat="43.74805" lon="6.91066">
        <ele>1111.884</ele>
        <time>2012-01-29T11:24:47Z</time>
      </trkpt>
      <trkpt lat="43.74811" lon="6.9108">
        <ele>1112.184</ele>
        <time>2012-01-29T11:24:54Z</time>
      </trkpt>
      <trkpt lat="43.74818" lon="6.91097">
        <ele>1113.465</ele>
        <time>2012-01-29T11:25:03Z</time>
      </trkpt>
      <trkpt lat="43.74824" lon="6.91111">
        <ele>1115.745</ele>
        <time>2012-01-29T11:25:11Z</time>
      </trkpt>
      <trkpt lat="43.74824" lon="6.91113">
        <ele>1115.685</ele>
        <time>2012-01-29T11:25:12Z</time>
      </trkpt>
      <trkpt lat="43.74831" lon="6.91125">
        <ele>1117.135</ele>
        <time>2012-01-29T11:25:20Z</time>
      </trkpt>
      <trkpt lat="43.74835" lon="6.91134">
        <ele>1118.695</ele>
        <time>2012-01-29T11:25:26Z</time>
      </trkpt>
      <trkpt lat="43.7484" lon="6.91148">
        <ele>1120.625</ele>
        <time>2012-01-29T11:25:34Z</time>
      </trkpt>
      <trkpt lat="43.74845" lon="6.91161">
        <ele>1125.217</ele>
        <time>2012-01-29T11:25:43Z</time>
      </trkpt>
      <trkpt lat="43.74847" lon="6.91173">
        <ele>1129.477</ele>
        <time>2012-01-29T11:25:51Z</time>
      </trkpt>
      <trkpt lat="43.74848" lon="6.91176">
        <ele>1130.477</ele>
        <time>2012-01-29T11:25:53Z</time>
      </trkpt>
      <trkpt lat="43.74841" lon="6.91192">
        <ele>1133.396</ele>
        <time>2012-01-29T11:26:03Z</time>
      </trkpt>
      <trkpt lat="43.74833" lon="6.912">
        <ele>1134.265</ele>
        <time>2012-01-29T11:26:10Z</time>
      </trkpt>
      <trkpt lat="43.74825" lon="6.91209">
        <ele>1135.967</ele>
        <time>2012-01-29T11:26:17Z</time>
      </trkpt>
      <trkpt lat="43.74818" lon="6.91222">
        <ele>1136.165</ele>
        <time>2012-01-29T11:26:26Z</time>
      </trkpt>
      <trkpt lat="43.74811" lon="6.91234">
        <ele>1136.455</ele>
        <time>2012-01-29T11:26:34Z</time>
      </trkpt>
      <trkpt lat="43.74806" lon="6.91242">
        <ele>1140.997</ele>
        <time>2012-01-29T11:26:40Z</time>
      </trkpt>
      <trkpt lat="43.748" lon="6.91254">
        <ele>1143.116</ele>
        <time>2012-01-29T11:26:48Z</time>
      </trkpt>
      <trkpt lat="43.74794" lon="6.91266">
        <ele>1145.716</ele>
        <time>2012-01-29T11:26:56Z</time>
      </trkpt>
      <trkpt lat="43.74786" lon="6.91283">
        <ele>1147.016</ele>
        <time>2012-01-29T11:27:06Z</time>
      </trkpt>
      <trkpt lat="43.74779" lon="6.91294">
        <ele>1150.136</ele>
        <time>2012-01-29T11:27:13Z</time>
      </trkpt>
      <trkpt lat="43.74772" lon="6.91309">
        <ele>1150.776</ele>
        <time>2012-01-29T11:27:22Z</time>
      </trkpt>
      <trkpt lat="43.74765" lon="6.91323">
        <ele>1152.095</ele>
        <time>2012-01-29T11:27:30Z</time>
      </trkpt>
      <trkpt lat="43.74762" lon="6.91337">
        <ele>1152.945</ele>
        <time>2012-01-29T11:27:37Z</time>
      </trkpt>
      <trkpt lat="43.74763" lon="6.91353">
        <ele>1154.336</ele>
        <time>2012-01-29T11:27:45Z</time>
      </trkpt>
      <trkpt lat="43.74768" lon="6.9137">
        <ele>1156.876</ele>
        <time>2012-01-29T11:27:54Z</time>
      </trkpt>
      <trkpt lat="43.7477" lon="6.91384">
        <ele>1156.525</ele>
        <time>2012-01-29T11:28:01Z</time>
      </trkpt>
      <trkpt lat="43.74769" lon="6.914">
        <ele>1156.476</ele>
        <time>2012-01-29T11:28:08Z</time>
      </trkpt>
      <trkpt lat="43.74764" lon="6.91417">
        <ele>1159.946</ele>
        <time>2012-01-29T11:28:15Z</time>
      </trkpt>
      <trkpt lat="43.74761" lon="6.91432">
        <ele>1162.046</ele>
        <time>2012-01-29T11:28:21Z</time>
      </trkpt>
      <trkpt lat="43.74757" lon="6.91451">
        <ele>1164.666</ele>
        <time>2012-01-29T11:28:28Z</time>
      </trkpt>
      <trkpt lat="43.74753" lon="6.91473">
        <ele>1165.916</ele>
        <time>2012-01-29T11:28:35Z</time>
      </trkpt>
      <trkpt lat="43.74752" lon="6.91494">
        <ele>1165.915</ele>
        <time>2012-01-29T11:28:42Z</time>
      </trkpt>
      <trkpt lat="43.74753" lon="6.91517">
        <ele>1164.404</ele>
        <time>2012-01-29T11:28:49Z</time>
      </trkpt>
      <trkpt lat="43.74759" lon="6.91547">
        <ele>1158.263</ele>
        <time>2012-01-29T11:28:58Z</time>
      </trkpt>
      <trkpt lat="43.7477" lon="6.91573">
        <ele>1155.725</ele>
        <time>2012-01-29T11:29:07Z</time>
      </trkpt>
      <trkpt lat="43.74785" lon="6.91587">
        <ele>1155.524</ele>
        <time>2012-01-29T11:29:15Z</time>
      </trkpt>
      <trkpt lat="43.74798" lon="6.91594">
        <ele>1154.425</ele>
        <time>2012-01-29T11:29:22Z</time>
      </trkpt>
      <trkpt lat="43.74807" lon="6.91597">
        <ele>1154.325</ele>
        <time>2012-01-29T11:29:28Z</time>
      </trkpt>
      <trkpt lat="43.74817" lon="6.916">
        <ele>1154.266</ele>
        <time>2012-01-29T11:29:34Z</time>
      </trkpt>
      <trkpt lat="43.7483" lon="6.91603">
        <ele>1154.206</ele>
        <time>2012-01-29T11:29:41Z</time>
      </trkpt>
      <trkpt lat="43.74846" lon="6.91611">
        <ele>1155.535</ele>
        <time>2012-01-29T11:29:51Z</time>
      </trkpt>
      <trkpt lat="43.74855" lon="6.91619">
        <ele>1155.985</ele>
        <time>2012-01-29T11:29:58Z</time>
      </trkpt>
      <trkpt lat="43.74865" lon="6.91631">
        <ele>1157.255</ele>
        <time>2012-01-29T11:30:07Z</time>
      </trkpt>
      <trkpt lat="43.74876" lon="6.91643">
        <ele>1159.216</ele>
        <time>2012-01-29T11:30:16Z</time>
      </trkpt>
      <trkpt lat="43.74887" lon="6.91657">
        <ele>1162.236</ele>
        <time>2012-01-29T11:30:26Z</time>
      </trkpt>
      <trkpt lat="43.74898" lon="6.91668">
        <ele>1165.066</ele>
        <time>2012-01-29T11:30:35Z</time>
      </trkpt>
      <trkpt lat="43.74909" lon="6.91674">
        <ele>1168.847</ele>
        <time>2012-01-29T11:30:43Z</time>
      </trkpt>
      <trkpt lat="43.74922" lon="6.91676">
        <ele>1168.856</ele>
        <time>2012-01-29T11:30:51Z</time>
      </trkpt>
      <trkpt lat="43.74929" lon="6.91671">
        <ele>1170.146</ele>
        <time>2012-01-29T11:30:57Z</time>
      </trkpt>
      <trkpt lat="43.74937" lon="6.91666">
        <ele>1173.727</ele>
        <time>2012-01-29T11:31:03Z</time>
      </trkpt>
      <trkpt lat="43.74944" lon="6.91667">
        <ele>1174.196</ele>
        <time>2012-01-29T11:31:07Z</time>
      </trkpt>
      <trkpt lat="43.74952" lon="6.91677">
        <ele>1173.655</ele>
        <time>2012-01-29T11:31:14Z</time>
      </trkpt>
      <trkpt lat="43.74951" lon="6.91691">
        <ele>1174.266</ele>
        <time>2012-01-29T11:31:21Z</time>
      </trkpt>
      <trkpt lat="43.74945" lon="6.91702">
        <ele>1177.136</ele>
        <time>2012-01-29T11:31:27Z</time>
      </trkpt>
      <trkpt lat="43.74938" lon="6.91716">
        <ele>1176.985</ele>
        <time>2012-01-29T11:31:34Z</time>
      </trkpt>
      <trkpt lat="43.74929" lon="6.91731">
        <ele>1176.526</ele>
        <time>2012-01-29T11:31:43Z</time>
      </trkpt>
      <trkpt lat="43.74927" lon="6.91744">
        <ele>1176.556</ele>
        <time>2012-01-29T11:31:49Z</time>
      </trkpt>
      <trkpt lat="43.74924" lon="6.91761">
        <ele>1181.397</ele>
        <time>2012-01-29T11:31:56Z</time>
      </trkpt>
      <trkpt lat="43.74923" lon="6.91781">
        <ele>1185.656</ele>
        <time>2012-01-29T11:32:04Z</time>
      </trkpt>
      <trkpt lat="43.74923" lon="6.91796">
        <ele>1187.946</ele>
        <time>2012-01-29T11:32:11Z</time>
      </trkpt>
      <trkpt lat="43.74927" lon="6.91818">
        <ele>1189.986</ele>
        <time>2012-01-29T11:32:21Z</time>
      </trkpt>
      <trkpt lat="43.74929" lon="6.91831">
        <ele>1191.026</ele>
        <time>2012-01-29T11:32:27Z</time>
      </trkpt>
      <trkpt lat="43.74934" lon="6.91846">
        <ele>1192.016</ele>
        <time>2012-01-29T11:32:34Z</time>
      </trkpt>
      <trkpt lat="43.74939" lon="6.91865">
        <ele>1193.536</ele>
        <time>2012-01-29T11:32:43Z</time>
      </trkpt>
      <trkpt lat="43.74947" lon="6.91885">
        <ele>1193.976</ele>
        <time>2012-01-29T11:32:53Z</time>
      </trkpt>
      <trkpt lat="43.74955" lon="6.91908">
        <ele>1194.156</ele>
        <time>2012-01-29T11:33:04Z</time>
      </trkpt>
      <trkpt lat="43.74961" lon="6.91924">
        <ele>1195.026</ele>
        <time>2012-01-29T11:33:12Z</time>
      </trkpt>
      <trkpt lat="43.74964" lon="6.91941">
        <ele>1196.666</ele>
        <time>2012-01-29T11:33:20Z</time>
      </trkpt>
      <trkpt lat="43.74966" lon="6.91956">
        <ele>1198.046</ele>
        <time>2012-01-29T11:33:27Z</time>
      </trkpt>
      <trkpt lat="43.74966" lon="6.91974">
        <ele>1199.556</ele>
        <time>2012-01-29T11:33:35Z</time>
      </trkpt>
      <trkpt lat="43.74965" lon="6.91991">
        <ele>1201.547</ele>
        <time>2012-01-29T11:33:43Z</time>
      </trkpt>
      <trkpt lat="43.74963" lon="6.92011">
        <ele>1204.126</ele>
        <time>2012-01-29T11:33:52Z</time>
      </trkpt>
      <trkpt lat="43.74961" lon="6.92035">
        <ele>1206.736</ele>
        <time>2012-01-29T11:34:02Z</time>
      </trkpt>
      <trkpt lat="43.74961" lon="6.92054">
        <ele>1208.076</ele>
        <time>2012-01-29T11:34:10Z</time>
      </trkpt>
      <trkpt lat="43.74972" lon="6.92071">
        <ele>1208.076</ele>
        <time>2012-01-29T11:34:19Z</time>
      </trkpt>
      <trkpt lat="43.74981" lon="6.92069">
        <ele>1208.137</ele>
        <time>2012-01-29T11:34:24Z</time>
      </trkpt>
      <trkpt lat="43.74988" lon="6.92052">
        <ele>1208.297</ele>
        <time>2012-01-29T11:34:32Z</time>
      </trkpt>
      <trkpt lat="43.74989" lon="6.92033">
        <ele>1208.857</ele>
        <time>2012-01-29T11:34:40Z</time>
      </trkpt>
      <trkpt lat="43.74991" lon="6.92014">
        <ele>1208.146</ele>
        <time>2012-01-29T11:34:47Z</time>
      </trkpt>
      <trkpt lat="43.74992" lon="6.91997">
        <ele>1207.346</ele>
        <time>2012-01-29T11:34:54Z</time>
      </trkpt>
      <trkpt lat="43.74993" lon="6.91977">
        <ele>1207.196</ele>
        <time>2012-01-29T11:35:02Z</time>
      </trkpt>
      <trkpt lat="43.74994" lon="6.91952">
        <ele>1208.966</ele>
        <time>2012-01-29T11:35:13Z</time>
      </trkpt>
      <trkpt lat="43.74996" lon="6.91934">
        <ele>1208.607</ele>
        <time>2012-01-29T11:35:21Z</time>
      </trkpt>
      <trkpt lat="43.74997" lon="6.91918">
        <ele>1208.947</ele>
        <time>2012-01-29T11:35:28Z</time>
      </trkpt>
      <trkpt lat="43.74998" lon="6.91899">
        <ele>1210.157</ele>
        <time>2012-01-29T11:35:37Z</time>
      </trkpt>
      <trkpt lat="43.74997" lon="6.91879">
        <ele>1211.807</ele>
        <time>2012-01-29T11:35:46Z</time>
      </trkpt>
      <trkpt lat="43.74996" lon="6.91861">
        <ele>1212.657</ele>
        <time>2012-01-29T11:35:54Z</time>
      </trkpt>
      <trkpt lat="43.75" lon="6.91846">
        <ele>1213.677</ele>
        <time>2012-01-29T11:36:01Z</time>
      </trkpt>
      <trkpt lat="43.7501" lon="6.91848">
        <ele>1215.677</ele>
        <time>2012-01-29T11:36:07Z</time>
      </trkpt>
      <trkpt lat="43.75015" lon="6.91862">
        <ele>1217.707</ele>
        <time>2012-01-29T11:36:14Z</time>
      </trkpt>
      <trkpt lat="43.75014" lon="6.9188">
        <ele>1221.747</ele>
        <time>2012-01-29T11:36:22Z</time>
      </trkpt>
      <trkpt lat="43.75014" lon="6.919">
        <ele>1224.736</ele>
        <time>2012-01-29T11:36:31Z</time>
      </trkpt>
      <trkpt lat="43.75015" lon="6.91921">
        <ele>1226.756</ele>
        <time>2012-01-29T11:36:41Z</time>
      </trkpt>
      <trkpt lat="43.75015" lon="6.91942">
        <ele>1229.567</ele>
        <time>2012-01-29T11:36:50Z</time>
      </trkpt>
      <trkpt lat="43.75016" lon="6.91959">
        <ele>1231.716</ele>
        <time>2012-01-29T11:36:58Z</time>
      </trkpt>
      <trkpt lat="43.75019" lon="6.91983">
        <ele>1234.286</ele>
        <time>2012-01-29T11:37:09Z</time>
      </trkpt>
      <trkpt lat="43.75022" lon="6.92006">
        <ele>1236.656</ele>
        <time>2012-01-29T11:37:20Z</time>
      </trkpt>
      <trkpt lat="43.75024" lon="6.92021">
        <ele>1238.026</ele>
        <time>2012-01-29T11:37:28Z</time>
      </trkpt>
      <trkpt lat="43.75026" lon="6.92035">
        <ele>1238.327</ele>
        <time>2012-01-29T11:37:35Z</time>
      </trkpt>
      <trkpt lat="43.75028" lon="6.92049">
        <ele>1239.447</ele>
        <time>2012-01-29T11:37:42Z</time>
      </trkpt>
      <trkpt lat="43.75031" lon="6.92065">
        <ele>1240.867</ele>
        <time>2012-01-29T11:37:49Z</time>
      </trkpt>
      <trkpt lat="43.75034" lon="6.92076">
        <ele>1241.906</ele>
        <time>2012-01-29T11:37:56Z</time>
      </trkpt>
      <trkpt lat="43.75036" lon="6.92084">
        <ele>1241.836</ele>
        <time>2012-01-29T11:38:02Z</time>
      </trkpt>
      <trkpt lat="43.75041" lon="6.92103">
        <ele>1242.097</ele>
        <time>2012-01-29T11:38:14Z</time>
      </trkpt>
      <trkpt lat="43.75047" lon="6.92123">
        <ele>1242.807</ele>
        <time>2012-01-29T11:38:26Z</time>
      </trkpt>
      <trkpt lat="43.75049" lon="6.92138">
        <ele>1244.707</ele>
        <time>2012-01-29T11:38:36Z</time>
      </trkpt>
      <trkpt lat="43.75049" lon="6.92141">
        <ele>1244.957</ele>
        <time>2012-01-29T11:38:38Z</time>
      </trkpt>
      <trkpt lat="43.75049" lon="6.92143">
        <ele>1244.526</ele>
        <time>2012-01-29T11:38:44Z</time>
      </trkpt>
      <trkpt lat="43.7505" lon="6.92147">
        <ele>1245.866</ele>
        <time>2012-01-29T11:40:11Z</time>
      </trkpt>
      <trkpt lat="43.75051" lon="6.92149">
        <ele>1246.677</ele>
        <time>2012-01-29T11:40:14Z</time>
      </trkpt>
      <trkpt lat="43.75053" lon="6.92155">
        <ele>1246.967</ele>
        <time>2012-01-29T11:40:20Z</time>
      </trkpt>
      <trkpt lat="43.75053" lon="6.92157">
        <ele>1247.227</ele>
        <time>2012-01-29T11:40:21Z</time>
      </trkpt>
      <trkpt lat="43.75055" lon="6.92178">
        <ele>1247.917</ele>
        <time>2012-01-29T11:40:32Z</time>
      </trkpt>
      <trkpt lat="43.75057" lon="6.92195">
        <ele>1249.337</ele>
        <time>2012-01-29T11:40:42Z</time>
      </trkpt>
      <trkpt lat="43.75057" lon="6.92205">
        <ele>1248.336</ele>
        <time>2012-01-29T11:40:50Z</time>
      </trkpt>
      <trkpt lat="43.75057" lon="6.92204">
        <ele>1247.996</ele>
        <time>2012-01-29T11:40:55Z</time>
      </trkpt>
      <trkpt lat="43.7506" lon="6.92219">
        <ele>1249.757</ele>
        <time>2012-01-29T11:41:04Z</time>
      </trkpt>
      <trkpt lat="43.75061" lon="6.92244">
        <ele>1251.457</ele>
        <time>2012-01-29T11:41:18Z</time>
      </trkpt>
      <trkpt lat="43.75062" lon="6.92266">
        <ele>1253.067</ele>
        <time>2012-01-29T11:41:30Z</time>
      </trkpt>
      <trkpt lat="43.75063" lon="6.92292">
        <ele>1255.708</ele>
        <time>2012-01-29T11:41:44Z</time>
      </trkpt>
      <trkpt lat="43.75065" lon="6.92316">
        <ele>1257.627</ele>
        <time>2012-01-29T11:41:57Z</time>
      </trkpt>
      <trkpt lat="43.75067" lon="6.92338">
        <ele>1259.387</ele>
        <time>2012-01-29T11:42:09Z</time>
      </trkpt>
      <trkpt lat="43.7507" lon="6.92365">
        <ele>1260.127</ele>
        <time>2012-01-29T11:42:23Z</time>
      </trkpt>
      <trkpt lat="43.75071" lon="6.9238">
        <ele>1261.417</ele>
        <time>2012-01-29T11:42:32Z</time>
      </trkpt>
      <trkpt lat="43.75073" lon="6.92397">
        <ele>1263.157</ele>
        <time>2012-01-29T11:42:42Z</time>
      </trkpt>
      <trkpt lat="43.75077" lon="6.92416">
        <ele>1264.727</ele>
        <time>2012-01-29T11:42:53Z</time>
      </trkpt>
      <trkpt lat="43.75084" lon="6.92434">
        <ele>1266.407</ele>
        <time>2012-01-29T11:43:03Z</time>
      </trkpt>
      <trkpt lat="43.75098" lon="6.92449">
        <ele>1267.037</ele>
        <time>2012-01-29T11:43:16Z</time>
      </trkpt>
      <trkpt lat="43.75112" lon="6.9245">
        <ele>1265.258</ele>
        <time>2012-01-29T11:43:25Z</time>
      </trkpt>
      <trkpt lat="43.75127" lon="6.92449">
        <ele>1265.137</ele>
        <time>2012-01-29T11:43:36Z</time>
      </trkpt>
      <trkpt lat="43.75141" lon="6.92446">
        <ele>1265.387</ele>
        <time>2012-01-29T11:43:46Z</time>
      </trkpt>
      <trkpt lat="43.75142" lon="6.92446">
        <ele>1265.367</ele>
        <time>2012-01-29T11:43:47Z</time>
      </trkpt>
      <trkpt lat="43.75145" lon="6.92445">
        <ele>1265.517</ele>
        <time>2012-01-29T11:43:51Z</time>
      </trkpt>
      <trkpt lat="43.75149" lon="6.92447">
        <ele>1265.107</ele>
        <time>2012-01-29T11:43:55Z</time>
      </trkpt>
      <trkpt lat="43.75155" lon="6.92459">
        <ele>1265.718</ele>
        <time>2012-01-29T11:44:04Z</time>
      </trkpt>
      <trkpt lat="43.75155" lon="6.92461">
        <ele>1265.848</ele>
        <time>2012-01-29T11:44:05Z</time>
      </trkpt>
      <trkpt lat="43.75155" lon="6.92466">
        <ele>1266.787</ele>
        <time>2012-01-29T11:44:10Z</time>
      </trkpt>
      <trkpt lat="43.75153" lon="6.92468">
        <ele>1267.517</ele>
        <time>2012-01-29T11:44:16Z</time>
      </trkpt>
      <trkpt lat="43.75153" lon="6.9247">
        <ele>1268.268</ele>
        <time>2012-01-29T11:44:19Z</time>
      </trkpt>
      <trkpt lat="43.7515" lon="6.92482">
        <ele>1270.038</ele>
        <time>2012-01-29T11:44:25Z</time>
      </trkpt>
      <trkpt lat="43.75144" lon="6.92505">
        <ele>1271.367</ele>
        <time>2012-01-29T11:44:33Z</time>
      </trkpt>
      <trkpt lat="43.75141" lon="6.92519">
        <ele>1271.998</ele>
        <time>2012-01-29T11:44:39Z</time>
      </trkpt>
      <trkpt lat="43.75138" lon="6.92533">
        <ele>1271.917</ele>
        <time>2012-01-29T11:44:44Z</time>
      </trkpt>
      <trkpt lat="43.75137" lon="6.92548">
        <ele>1271.827</ele>
        <time>2012-01-29T11:44:51Z</time>
      </trkpt>
      <trkpt lat="43.75137" lon="6.92568">
        <ele>1272.348</ele>
        <time>2012-01-29T11:44:58Z</time>
      </trkpt>
      <trkpt lat="43.75138" lon="6.92576">
        <ele>1271.967</ele>
        <time>2012-01-29T11:45:04Z</time>
      </trkpt>
      <trkpt lat="43.75141" lon="6.92579">
        <ele>1275.488</ele>
        <time>2012-01-29T11:45:39Z</time>
      </trkpt>
      <trkpt lat="43.75143" lon="6.92587">
        <ele>1275.598</ele>
        <time>2012-01-29T11:45:45Z</time>
      </trkpt>
      <trkpt lat="43.75149" lon="6.92599">
        <ele>1275.218</ele>
        <time>2012-01-29T11:45:52Z</time>
      </trkpt>
      <trkpt lat="43.75165" lon="6.92606">
        <ele>1274.567</ele>
        <time>2012-01-29T11:46:00Z</time>
      </trkpt>
      <trkpt lat="43.7518" lon="6.9261">
        <ele>1274.278</ele>
        <time>2012-01-29T11:46:08Z</time>
      </trkpt>
      <trkpt lat="43.75192" lon="6.92616">
        <ele>1273.857</ele>
        <time>2012-01-29T11:46:15Z</time>
      </trkpt>
      <trkpt lat="43.75195" lon="6.92618">
        <ele>1273.527</ele>
        <time>2012-01-29T11:46:17Z</time>
      </trkpt>
      <trkpt lat="43.75196" lon="6.92618">
        <ele>1271.627</ele>
        <time>2012-01-29T11:46:24Z</time>
      </trkpt>
      <trkpt lat="43.75198" lon="6.92623">
        <ele>1270.297</ele>
        <time>2012-01-29T11:46:29Z</time>
      </trkpt>
      <trkpt lat="43.75211" lon="6.92634">
        <ele>1268.597</ele>
        <time>2012-01-29T11:46:36Z</time>
      </trkpt>
      <trkpt lat="43.7522" lon="6.92645">
        <ele>1269.148</ele>
        <time>2012-01-29T11:46:42Z</time>
      </trkpt>
      <trkpt lat="43.75226" lon="6.92653">
        <ele>1268.978</ele>
        <time>2012-01-29T11:46:48Z</time>
      </trkpt>
      <trkpt lat="43.75226" lon="6.92653">
        <ele>1268.357</ele>
        <time>2012-01-29T11:46:58Z</time>
      </trkpt>
      <trkpt lat="43.75228" lon="6.92658">
        <ele>1268.339</ele>
        <time>2012-01-29T11:47:08Z</time>
      </trkpt>
      <trkpt lat="43.75227" lon="6.92659">
        <ele>1268.148</ele>
        <time>2012-01-29T11:47:10Z</time>
      </trkpt>
      <trkpt lat="43.75231" lon="6.92668">
        <ele>1267.908</ele>
        <time>2012-01-29T11:47:18Z</time>
      </trkpt>
      <trkpt lat="43.75234" lon="6.9268">
        <ele>1268.118</ele>
        <time>2012-01-29T11:47:26Z</time>
      </trkpt>
      <trkpt lat="43.75238" lon="6.92692">
        <ele>1269.348</ele>
        <time>2012-01-29T11:47:35Z</time>
      </trkpt>
      <trkpt lat="43.75243" lon="6.92703">
        <ele>1269.898</ele>
        <time>2012-01-29T11:47:43Z</time>
      </trkpt>
      <trkpt lat="43.75249" lon="6.92714">
        <ele>1270.568</ele>
        <time>2012-01-29T11:47:52Z</time>
      </trkpt>
      <trkpt lat="43.75251" lon="6.92723">
        <ele>1270.888</ele>
        <time>2012-01-29T11:47:58Z</time>
      </trkpt>
      <trkpt lat="43.75255" lon="6.92736">
        <ele>1271.088</ele>
        <time>2012-01-29T11:48:07Z</time>
      </trkpt>
      <trkpt lat="43.75256" lon="6.92747">
        <ele>1271.258</ele>
        <time>2012-01-29T11:48:15Z</time>
      </trkpt>
      <trkpt lat="43.75256" lon="6.92753">
        <ele>1271.458</ele>
        <time>2012-01-29T11:48:20Z</time>
      </trkpt>
      <trkpt lat="43.75254" lon="6.92761">
        <ele>1271.828</ele>
        <time>2012-01-29T11:48:26Z</time>
      </trkpt>
      <trkpt lat="43.75257" lon="6.92772">
        <ele>1272.168</ele>
        <time>2012-01-29T11:48:34Z</time>
      </trkpt>
      <trkpt lat="43.75264" lon="6.92787">
        <ele>1272.098</ele>
        <time>2012-01-29T11:48:44Z</time>
      </trkpt>
      <trkpt lat="43.75268" lon="6.92801">
        <ele>1271.618</ele>
        <time>2012-01-29T11:48:53Z</time>
      </trkpt>
      <trkpt lat="43.75271" lon="6.92812">
        <ele>1270.887</ele>
        <time>2012-01-29T11:49:02Z</time>
      </trkpt>
      <trkpt lat="43.7527" lon="6.9281">
        <ele>1267.778</ele>
        <time>2012-01-29T11:49:31Z</time>
      </trkpt>
      <trkpt lat="43.75266" lon="6.92816">
        <ele>1267.718</ele>
        <time>2012-01-29T11:49:37Z</time>
      </trkpt>
      <trkpt lat="43.75258" lon="6.92828">
        <ele>1268.158</ele>
        <time>2012-01-29T11:49:47Z</time>
      </trkpt>
      <trkpt lat="43.75252" lon="6.92839">
        <ele>1268.198</ele>
        <time>2012-01-29T11:49:55Z</time>
      </trkpt>
      <trkpt lat="43.75249" lon="6.92848">
        <ele>1267.888</ele>
        <time>2012-01-29T11:50:01Z</time>
      </trkpt>
      <trkpt lat="43.75246" lon="6.92856">
        <ele>1267.667</ele>
        <time>2012-01-29T11:50:07Z</time>
      </trkpt>
      <trkpt lat="43.75246" lon="6.92863">
        <ele>1267.477</ele>
        <time>2012-01-29T11:50:11Z</time>
      </trkpt>
      <trkpt lat="43.75245" lon="6.92885">
        <ele>1266.517</ele>
        <time>2012-01-29T11:50:23Z</time>
      </trkpt>
      <trkpt lat="43.75244" lon="6.92903">
        <ele>1265.657</ele>
        <time>2012-01-29T11:50:33Z</time>
      </trkpt>
      <trkpt lat="43.75243" lon="6.92915">
        <ele>1265.218</ele>
        <time>2012-01-29T11:50:40Z</time>
      </trkpt>
      <trkpt lat="43.75243" lon="6.92927">
        <ele>1264.988</ele>
        <time>2012-01-29T11:50:47Z</time>
      </trkpt>
      <trkpt lat="43.75242" lon="6.92941">
        <ele>1264.848</ele>
        <time>2012-01-29T11:50:55Z</time>
      </trkpt>
      <trkpt lat="43.75241" lon="6.92952">
        <ele>1264.928</ele>
        <time>2012-01-29T11:51:02Z</time>
      </trkpt>
      <trkpt lat="43.7524" lon="6.92962">
        <ele>1265.168</ele>
        <time>2012-01-29T11:51:09Z</time>
      </trkpt>
      <trkpt lat="43.75241" lon="6.92976">
        <ele>1265.728</ele>
        <time>2012-01-29T11:51:18Z</time>
      </trkpt>
      <trkpt lat="43.75244" lon="6.9299">
        <ele>1266.518</ele>
        <time>2012-01-29T11:51:27Z</time>
      </trkpt>
      <trkpt lat="43.75248" lon="6.93003">
        <ele>1266.918</ele>
        <time>2012-01-29T11:51:36Z</time>
      </trkpt>
      <trkpt lat="43.75249" lon="6.93006">
        <ele>1266.958</ele>
        <time>2012-01-29T11:51:38Z</time>
      </trkpt>
      <trkpt lat="43.75251" lon="6.93011">
        <ele>1266.738</ele>
        <time>2012-01-29T11:51:45Z</time>
      </trkpt>
      <trkpt lat="43.75252" lon="6.93018">
        <ele>1267.748</ele>
        <time>2012-01-29T11:51:57Z</time>
      </trkpt>
      <trkpt lat="43.75254" lon="6.93031">
        <ele>1268.389</ele>
        <time>2012-01-29T11:52:06Z</time>
      </trkpt>
      <trkpt lat="43.75255" lon="6.93035">
        <ele>1268.489</ele>
        <time>2012-01-29T11:52:08Z</time>
      </trkpt>
      <trkpt lat="43.75258" lon="6.93047">
        <ele>1268.909</ele>
        <time>2012-01-29T11:52:17Z</time>
      </trkpt>
      <trkpt lat="43.75261" lon="6.93057">
        <ele>1269.519</ele>
        <time>2012-01-29T11:52:25Z</time>
      </trkpt>
      <trkpt lat="43.75265" lon="6.9307">
        <ele>1269.929</ele>
        <time>2012-01-29T11:52:34Z</time>
      </trkpt>
      <trkpt lat="43.75268" lon="6.93082">
        <ele>1270.219</ele>
        <time>2012-01-29T11:52:44Z</time>
      </trkpt>
      <trkpt lat="43.75271" lon="6.93094">
        <ele>1270.389</ele>
        <time>2012-01-29T11:52:53Z</time>
      </trkpt>
      <trkpt lat="43.75275" lon="6.93105">
        <ele>1270.458</ele>
        <time>2012-01-29T11:53:02Z</time>
      </trkpt>
      <trkpt lat="43.75278" lon="6.93117">
        <ele>1270.538</ele>
        <time>2012-01-29T11:53:11Z</time>
      </trkpt>
      <trkpt lat="43.75282" lon="6.93124">
        <ele>1270.288</ele>
        <time>2012-01-29T11:53:18Z</time>
      </trkpt>
      <trkpt lat="43.7528" lon="6.93125">
        <ele>1279.16</ele>
        <time>2012-01-29T11:54:03Z</time>
      </trkpt>
      <trkpt lat="43.75283" lon="6.93138">
        <ele>1278.789</ele>
        <time>2012-01-29T11:54:12Z</time>
      </trkpt>
      <trkpt lat="43.75284" lon="6.93149">
        <ele>1277.728</ele>
        <time>2012-01-29T11:54:19Z</time>
      </trkpt>
      <trkpt lat="43.75284" lon="6.93159">
        <ele>1276.548</ele>
        <time>2012-01-29T11:54:26Z</time>
      </trkpt>
      <trkpt lat="43.75285" lon="6.93174">
        <ele>1275.348</ele>
        <time>2012-01-29T11:54:34Z</time>
      </trkpt>
      <trkpt lat="43.75284" lon="6.93176">
        <ele>1274.758</ele>
        <time>2012-01-29T11:54:38Z</time>
      </trkpt>
      <trkpt lat="43.75282" lon="6.9318">
        <ele>1273.978</ele>
        <time>2012-01-29T11:54:42Z</time>
      </trkpt>
      <trkpt lat="43.75282" lon="6.93184">
        <ele>1273.638</ele>
        <time>2012-01-29T11:54:44Z</time>
      </trkpt>
      <trkpt lat="43.75286" lon="6.93194">
        <ele>1273.559</ele>
        <time>2012-01-29T11:54:52Z</time>
      </trkpt>
      <trkpt lat="43.75287" lon="6.93198">
        <ele>1273.779</ele>
        <time>2012-01-29T11:54:55Z</time>
      </trkpt>
      <trkpt lat="43.75289" lon="6.93203">
        <ele>1273.869</ele>
        <time>2012-01-29T11:54:59Z</time>
      </trkpt>
      <trkpt lat="43.75292" lon="6.93212">
        <ele>1274.159</ele>
        <time>2012-01-29T11:55:07Z</time>
      </trkpt>
      <trkpt lat="43.75293" lon="6.93225">
        <ele>1273.909</ele>
        <time>2012-01-29T11:55:15Z</time>
      </trkpt>
      <trkpt lat="43.75293" lon="6.93234">
        <ele>1273.498</ele>
        <time>2012-01-29T11:55:21Z</time>
      </trkpt>
      <trkpt lat="43.75294" lon="6.9324">
        <ele>1273.358</ele>
        <time>2012-01-29T11:55:26Z</time>
      </trkpt>
      <trkpt lat="43.75294" lon="6.93244">
        <ele>1272.718</ele>
        <time>2012-01-29T11:55:32Z</time>
      </trkpt>
      <trkpt lat="43.75294" lon="6.93241">
        <ele>1271.624</ele>
        <time>2012-01-29T11:56:12Z</time>
      </trkpt>
      <trkpt lat="43.75301" lon="6.93244">
        <ele>1272.291</ele>
        <time>2012-01-29T11:56:19Z</time>
      </trkpt>
      <trkpt lat="43.75312" lon="6.93246">
        <ele>1274.283</ele>
        <time>2012-01-29T11:56:29Z</time>
      </trkpt>
      <trkpt lat="43.75321" lon="6.93253">
        <ele>1276.374</ele>
        <time>2012-01-29T11:56:38Z</time>
      </trkpt>
      <trkpt lat="43.75326" lon="6.93261">
        <ele>1277.379</ele>
        <time>2012-01-29T11:56:45Z</time>
      </trkpt>
      <trkpt lat="43.75335" lon="6.93268">
        <ele>1278.525</ele>
        <time>2012-01-29T11:56:54Z</time>
      </trkpt>
      <trkpt lat="43.75345" lon="6.93276">
        <ele>1279.682</ele>
        <time>2012-01-29T11:57:05Z</time>
      </trkpt>
      <trkpt lat="43.75353" lon="6.9328">
        <ele>1280.065</ele>
        <time>2012-01-29T11:57:12Z</time>
      </trkpt>
      <trkpt lat="43.75363" lon="6.93285">
        <ele>1280.146</ele>
        <time>2012-01-29T11:57:22Z</time>
      </trkpt>
      <trkpt lat="43.75373" lon="6.93288">
        <ele>1280.203</ele>
        <time>2012-01-29T11:57:30Z</time>
      </trkpt>
      <trkpt lat="43.75384" lon="6.93293">
        <ele>1279.924</ele>
        <time>2012-01-29T11:57:40Z</time>
      </trkpt>
      <trkpt lat="43.75392" lon="6.93296">
        <ele>1280.006</ele>
        <time>2012-01-29T11:57:47Z</time>
      </trkpt>
      <trkpt lat="43.75403" lon="6.93301">
        <ele>1280.135</ele>
        <time>2012-01-29T11:57:56Z</time>
      </trkpt>
      <trkpt lat="43.75407" lon="6.93305">
        <ele>1278.648</ele>
        <time>2012-01-29T11:58:01Z</time>
      </trkpt>
      <trkpt lat="43.75411" lon="6.93313">
        <ele>1276.16</ele>
        <time>2012-01-29T11:58:08Z</time>
      </trkpt>
      <trkpt lat="43.7542" lon="6.93322">
        <ele>1273.981</ele>
        <time>2012-01-29T11:58:17Z</time>
      </trkpt>
      <trkpt lat="43.75427" lon="6.93324">
        <ele>1273.523</ele>
        <time>2012-01-29T11:58:24Z</time>
      </trkpt>
      <trkpt lat="43.75433" lon="6.93324">
        <ele>1273.535</ele>
        <time>2012-01-29T11:58:29Z</time>
      </trkpt>
      <trkpt lat="43.75436" lon="6.93327">
        <ele>1275.012</ele>
        <time>2012-01-29T11:58:35Z</time>
      </trkpt>
      <trkpt lat="43.75438" lon="6.93332">
        <ele>1269.478</ele>
        <time>2012-01-29T11:59:26Z</time>
      </trkpt>
      <trkpt lat="43.75441" lon="6.93341">
        <ele>1269.307</ele>
        <time>2012-01-29T11:59:32Z</time>
      </trkpt>
      <trkpt lat="43.75444" lon="6.93346">
        <ele>1269.25</ele>
        <time>2012-01-29T11:59:37Z</time>
      </trkpt>
      <trkpt lat="43.75449" lon="6.9335">
        <ele>1269.554</ele>
        <time>2012-01-29T11:59:43Z</time>
      </trkpt>
      <trkpt lat="43.75454" lon="6.93359">
        <ele>1269.52</ele>
        <time>2012-01-29T11:59:51Z</time>
      </trkpt>
      <trkpt lat="43.75456" lon="6.93364">
        <ele>1270.001</ele>
        <time>2012-01-29T11:59:57Z</time>
      </trkpt>
      <trkpt lat="43.75459" lon="6.93366">
        <ele>1270.32</ele>
        <time>2012-01-29T12:00:03Z</time>
      </trkpt>
      <trkpt lat="43.7546" lon="6.93368">
        <ele>1269.473</ele>
        <time>2012-01-29T12:00:09Z</time>
      </trkpt>
      <trkpt lat="43.7546" lon="6.93368">
        <ele>1269.885</ele>
        <time>2012-01-29T12:00:19Z</time>
      </trkpt>
      <trkpt lat="43.75462" lon="6.93379">
        <ele>1269.759</ele>
        <time>2012-01-29T12:00:27Z</time>
      </trkpt>
      <trkpt lat="43.75465" lon="6.93382">
        <ele>1269.094</ele>
        <time>2012-01-29T12:00:34Z</time>
      </trkpt>
      <trkpt lat="43.75463" lon="6.93384">
        <ele>1271.634</ele>
        <time>2012-01-29T12:00:59Z</time>
      </trkpt>
      <trkpt lat="43.75462" lon="6.93386">
        <ele>1272.897</ele>
        <time>2012-01-29T12:01:06Z</time>
      </trkpt>
      <trkpt lat="43.75464" lon="6.93391">
        <ele>1273.195</ele>
        <time>2012-01-29T12:01:13Z</time>
      </trkpt>
      <trkpt lat="43.75465" lon="6.93392">
        <ele>1273.239</ele>
        <time>2012-01-29T12:01:15Z</time>
      </trkpt>
      <trkpt lat="43.75468" lon="6.93399">
        <ele>1273.228</ele>
        <time>2012-01-29T12:01:22Z</time>
      </trkpt>
      <trkpt lat="43.75468" lon="6.93403">
        <ele>1273.068</ele>
        <time>2012-01-29T12:01:27Z</time>
      </trkpt>
      <trkpt lat="43.75469" lon="6.93411">
        <ele>1272.869</ele>
        <time>2012-01-29T12:01:35Z</time>
      </trkpt>
      <trkpt lat="43.7547" lon="6.93416">
        <ele>1272.776</ele>
        <time>2012-01-29T12:01:40Z</time>
      </trkpt>
      <trkpt lat="43.75472" lon="6.93421">
        <ele>1272.417</ele>
        <time>2012-01-29T12:01:45Z</time>
      </trkpt>
      <trkpt lat="43.75469" lon="6.93432">
        <ele>1272.71</ele>
        <time>2012-01-29T12:01:54Z</time>
      </trkpt>
      <trkpt lat="43.75469" lon="6.93437">
        <ele>1272.671</ele>
        <time>2012-01-29T12:02:01Z</time>
      </trkpt>
      <trkpt lat="43.75468" lon="6.93438">
        <ele>1272.368</ele>
        <time>2012-01-29T12:02:03Z</time>
      </trkpt>
      <trkpt lat="43.75464" lon="6.93442">
        <ele>1271.364</ele>
        <time>2012-01-29T12:02:10Z</time>
      </trkpt>
      <trkpt lat="43.75463" lon="6.93444">
        <ele>1271.213</ele>
        <time>2012-01-29T12:02:11Z</time>
      </trkpt>
      <trkpt lat="43.75463" lon="6.93455">
        <ele>1271.079</ele>
        <time>2012-01-29T12:02:20Z</time>
      </trkpt>
      <trkpt lat="43.75461" lon="6.93469">
        <ele>1271.35</ele>
        <time>2012-01-29T12:02:31Z</time>
      </trkpt>
      <trkpt lat="43.7546" lon="6.93478">
        <ele>1271.002</ele>
        <time>2012-01-29T12:02:37Z</time>
      </trkpt>
      <trkpt lat="43.7546" lon="6.9348">
        <ele>1272.384</ele>
        <time>2012-01-29T12:02:51Z</time>
      </trkpt>
      <trkpt lat="43.75458" lon="6.93489">
        <ele>1271.434</ele>
        <time>2012-01-29T12:02:58Z</time>
      </trkpt>
      <trkpt lat="43.75458" lon="6.93499">
        <ele>1270.882</ele>
        <time>2012-01-29T12:03:06Z</time>
      </trkpt>
      <trkpt lat="43.75456" lon="6.93503">
        <ele>1270.74</ele>
        <time>2012-01-29T12:03:10Z</time>
      </trkpt>
      <trkpt lat="43.75454" lon="6.93523">
        <ele>1270.482</ele>
        <time>2012-01-29T12:03:22Z</time>
      </trkpt>
      <trkpt lat="43.75453" lon="6.93535">
        <ele>1271.053</ele>
        <time>2012-01-29T12:03:30Z</time>
      </trkpt>
      <trkpt lat="43.75452" lon="6.93545">
        <ele>1271.593</ele>
        <time>2012-01-29T12:03:38Z</time>
      </trkpt>
      <trkpt lat="43.75452" lon="6.93547">
        <ele>1271.753</ele>
        <time>2012-01-29T12:03:40Z</time>
      </trkpt>
      <trkpt lat="43.75449" lon="6.93551">
        <ele>1272.154</ele>
        <time>2012-01-29T12:03:46Z</time>
      </trkpt>
      <trkpt lat="43.75448" lon="6.93555">
        <ele>1272.444</ele>
        <time>2012-01-29T12:03:50Z</time>
      </trkpt>
      <trkpt lat="43.75448" lon="6.93558">
        <ele>1272.421</ele>
        <time>2012-01-29T12:03:53Z</time>
      </trkpt>
      <trkpt lat="43.75447" lon="6.93565">
        <ele>1272.733</ele>
        <time>2012-01-29T12:03:59Z</time>
      </trkpt>
      <trkpt lat="43.75445" lon="6.93576">
        <ele>1273.231</ele>
        <time>2012-01-29T12:04:09Z</time>
      </trkpt>
      <trkpt lat="43.75444" lon="6.93578">
        <ele>1272.743</ele>
        <time>2012-01-29T12:04:12Z</time>
      </trkpt>
      <trkpt lat="43.75446" lon="6.9358">
        <ele>1273.475</ele>
        <time>2012-01-29T12:04:18Z</time>
      </trkpt>
      <trkpt lat="43.75446" lon="6.9358">
        <ele>1273.523</ele>
        <time>2012-01-29T12:04:19Z</time>
      </trkpt>
      <trkpt lat="43.75445" lon="6.93587">
        <ele>1273.762</ele>
        <time>2012-01-29T12:04:26Z</time>
      </trkpt>
      <trkpt lat="43.75444" lon="6.93593">
        <ele>1274.085</ele>
        <time>2012-01-29T12:04:32Z</time>
      </trkpt>
      <trkpt lat="43.75443" lon="6.93594">
        <ele>1274.185</ele>
        <time>2012-01-29T12:04:34Z</time>
      </trkpt>
      <trkpt lat="43.75443" lon="6.936">
        <ele>1274.33</ele>
        <time>2012-01-29T12:04:39Z</time>
      </trkpt>
      <trkpt lat="43.75442" lon="6.93607">
        <ele>1274.633</ele>
        <time>2012-01-29T12:04:46Z</time>
      </trkpt>
      <trkpt lat="43.7544" lon="6.93615">
        <ele>1275.052</ele>
        <time>2012-01-29T12:04:53Z</time>
      </trkpt>
      <trkpt lat="43.75439" lon="6.9362">
        <ele>1274.837</ele>
        <time>2012-01-29T12:05:00Z</time>
      </trkpt>
      <trkpt lat="43.75438" lon="6.93621">
        <ele>1274.151</ele>
        <time>2012-01-29T12:05:07Z</time>
      </trkpt>
      <trkpt lat="43.75438" lon="6.93623">
        <ele>1271.15</ele>
        <time>2012-01-29T12:05:31Z</time>
      </trkpt>
      <trkpt lat="43.75437" lon="6.93633">
        <ele>1271.05</ele>
        <time>2012-01-29T12:05:40Z</time>
      </trkpt>
      <trkpt lat="43.75437" lon="6.93643">
        <ele>1271.36</ele>
        <time>2012-01-29T12:05:48Z</time>
      </trkpt>
      <trkpt lat="43.75436" lon="6.93649">
        <ele>1271.74</ele>
        <time>2012-01-29T12:05:54Z</time>
      </trkpt>
      <trkpt lat="43.75435" lon="6.93657">
        <ele>1272.15</ele>
        <time>2012-01-29T12:06:01Z</time>
      </trkpt>
      <trkpt lat="43.75433" lon="6.93667">
        <ele>1272.48</ele>
        <time>2012-01-29T12:06:09Z</time>
      </trkpt>
      <trkpt lat="43.75432" lon="6.93669">
        <ele>1272.79</ele>
        <time>2012-01-29T12:06:13Z</time>
      </trkpt>
      <trkpt lat="43.75431" lon="6.93671">
        <ele>1272.65</ele>
        <time>2012-01-29T12:06:15Z</time>
      </trkpt>
      <trkpt lat="43.75431" lon="6.93678">
        <ele>1272.799</ele>
        <time>2012-01-29T12:06:22Z</time>
      </trkpt>
      <trkpt lat="43.7543" lon="6.93679">
        <ele>1272.86</ele>
        <time>2012-01-29T12:06:26Z</time>
      </trkpt>
      <trkpt lat="43.75429" lon="6.93682">
        <ele>1272.26</ele>
        <time>2012-01-29T12:06:35Z</time>
      </trkpt>
      <trkpt lat="43.75428" lon="6.93684">
        <ele>1271.288</ele>
        <time>2012-01-29T12:06:40Z</time>
      </trkpt>
      <trkpt lat="43.75426" lon="6.93685">
        <ele>1271.891</ele>
        <time>2012-01-29T12:06:51Z</time>
      </trkpt>
      <trkpt lat="43.75424" lon="6.93686">
        <ele>1271.83</ele>
        <time>2012-01-29T12:06:53Z</time>
      </trkpt>
      <trkpt lat="43.75422" lon="6.93689">
        <ele>1271.73</ele>
        <time>2012-01-29T12:06:59Z</time>
      </trkpt>
      <trkpt lat="43.75422" lon="6.93688">
        <ele>1273.18</ele>
        <time>2012-01-29T12:07:10Z</time>
      </trkpt>
      <trkpt lat="43.75419" lon="6.93693">
        <ele>1273.2</ele>
        <time>2012-01-29T12:07:16Z</time>
      </trkpt>
      <trkpt lat="43.75413" lon="6.93707">
        <ele>1273.08</ele>
        <time>2012-01-29T12:07:28Z</time>
      </trkpt>
      <trkpt lat="43.75408" lon="6.93719">
        <ele>1273.9</ele>
        <time>2012-01-29T12:07:39Z</time>
      </trkpt>
      <trkpt lat="43.75403" lon="6.9373">
        <ele>1274.551</ele>
        <time>2012-01-29T12:07:49Z</time>
      </trkpt>
      <trkpt lat="43.75398" lon="6.93742">
        <ele>1275.301</ele>
        <time>2012-01-29T12:08:00Z</time>
      </trkpt>
      <trkpt lat="43.75394" lon="6.93749">
        <ele>1275.76</ele>
        <time>2012-01-29T12:08:08Z</time>
      </trkpt>
      <trkpt lat="43.75389" lon="6.93755">
        <ele>1276.07</ele>
        <time>2012-01-29T12:08:15Z</time>
      </trkpt>
      <trkpt lat="43.75381" lon="6.93763">
        <ele>1276.24</ele>
        <time>2012-01-29T12:08:25Z</time>
      </trkpt>
      <trkpt lat="43.75375" lon="6.9377">
        <ele>1276.49</ele>
        <time>2012-01-29T12:08:33Z</time>
      </trkpt>
      <trkpt lat="43.75373" lon="6.93773">
        <ele>1276.88</ele>
        <time>2012-01-29T12:08:37Z</time>
      </trkpt>
      <trkpt lat="43.75365" lon="6.93781">
        <ele>1276.68</ele>
        <time>2012-01-29T12:08:47Z</time>
      </trkpt>
      <trkpt lat="43.75359" lon="6.93787">
        <ele>1276.49</ele>
        <time>2012-01-29T12:08:54Z</time>
      </trkpt>
      <trkpt lat="43.75352" lon="6.93795">
        <ele>1276.089</ele>
        <time>2012-01-29T12:09:04Z</time>
      </trkpt>
      <trkpt lat="43.75351" lon="6.93795">
        <ele>1280.69</ele>
        <time>2012-01-29T12:10:09Z</time>
      </trkpt>
      <trkpt lat="43.75352" lon="6.93798">
        <ele>1280.92</ele>
        <time>2012-01-29T12:10:17Z</time>
      </trkpt>
      <trkpt lat="43.75352" lon="6.93799">
        <ele>1281.29</ele>
        <time>2012-01-29T12:10:20Z</time>
      </trkpt>
      <trkpt lat="43.75351" lon="6.93803">
        <ele>1279.849</ele>
        <time>2012-01-29T12:10:23Z</time>
      </trkpt>
      <trkpt lat="43.75351" lon="6.93809">
        <ele>1279.53</ele>
        <time>2012-01-29T12:10:27Z</time>
      </trkpt>
      <trkpt lat="43.75353" lon="6.93816">
        <ele>1279.291</ele>
        <time>2012-01-29T12:10:33Z</time>
      </trkpt>
      <trkpt lat="43.75358" lon="6.93824">
        <ele>1279.79</ele>
        <time>2012-01-29T12:10:41Z</time>
      </trkpt>
      <trkpt lat="43.75362" lon="6.93829">
        <ele>1279.661</ele>
        <time>2012-01-29T12:10:46Z</time>
      </trkpt>
      <trkpt lat="43.75367" lon="6.93843">
        <ele>1278.91</ele>
        <time>2012-01-29T12:10:55Z</time>
      </trkpt>
      <trkpt lat="43.75369" lon="6.93855">
        <ele>1277.64</ele>
        <time>2012-01-29T12:11:03Z</time>
      </trkpt>
      <trkpt lat="43.75371" lon="6.93866">
        <ele>1275.819</ele>
        <time>2012-01-29T12:11:11Z</time>
      </trkpt>
      <trkpt lat="43.75372" lon="6.9387">
        <ele>1274.939</ele>
        <time>2012-01-29T12:11:16Z</time>
      </trkpt>
      <trkpt lat="43.75375" lon="6.93879">
        <ele>1272.889</ele>
        <time>2012-01-29T12:11:23Z</time>
      </trkpt>
      <trkpt lat="43.75374" lon="6.93882">
        <ele>1273.25</ele>
        <time>2012-01-29T12:11:27Z</time>
      </trkpt>
      <trkpt lat="43.75372" lon="6.93884">
        <ele>1276.09</ele>
        <time>2012-01-29T12:11:38Z</time>
      </trkpt>
      <trkpt lat="43.75372" lon="6.93888">
        <ele>1277.07</ele>
        <time>2012-01-29T12:11:43Z</time>
      </trkpt>
      <trkpt lat="43.75373" lon="6.93898">
        <ele>1277.069</ele>
        <time>2012-01-29T12:11:51Z</time>
      </trkpt>
      <trkpt lat="43.75374" lon="6.93909">
        <ele>1276.02</ele>
        <time>2012-01-29T12:12:00Z</time>
      </trkpt>
      <trkpt lat="43.75375" lon="6.93916">
        <ele>1274.729</ele>
        <time>2012-01-29T12:12:05Z</time>
      </trkpt>
      <trkpt lat="43.75375" lon="6.93929">
        <ele>1272.229</ele>
        <time>2012-01-29T12:12:14Z</time>
      </trkpt>
      <trkpt lat="43.75374" lon="6.93944">
        <ele>1271.14</ele>
        <time>2012-01-29T12:12:25Z</time>
      </trkpt>
      <trkpt lat="43.75374" lon="6.93958">
        <ele>1270.24</ele>
        <time>2012-01-29T12:12:35Z</time>
      </trkpt>
      <trkpt lat="43.75373" lon="6.93963">
        <ele>1270.44</ele>
        <time>2012-01-29T12:12:40Z</time>
      </trkpt>
      <trkpt lat="43.75369" lon="6.93971">
        <ele>1272.072</ele>
        <time>2012-01-29T12:12:50Z</time>
      </trkpt>
      <trkpt lat="43.75362" lon="6.93982">
        <ele>1271.631</ele>
        <time>2012-01-29T12:13:03Z</time>
      </trkpt>
      <trkpt lat="43.75356" lon="6.93989">
        <ele>1272.281</ele>
        <time>2012-01-29T12:13:14Z</time>
      </trkpt>
      <trkpt lat="43.7535" lon="6.93994">
        <ele>1272.351</ele>
        <time>2012-01-29T12:13:23Z</time>
      </trkpt>
      <trkpt lat="43.75345" lon="6.94002">
        <ele>1271.971</ele>
        <time>2012-01-29T12:13:33Z</time>
      </trkpt>
      <trkpt lat="43.75338" lon="6.9401">
        <ele>1274.961</ele>
        <time>2012-01-29T12:13:45Z</time>
      </trkpt>
      <trkpt lat="43.75331" lon="6.94016">
        <ele>1276.852</ele>
        <time>2012-01-29T12:13:57Z</time>
      </trkpt>
      <trkpt lat="43.75326" lon="6.94023">
        <ele>1275.931</ele>
        <time>2012-01-29T12:14:07Z</time>
      </trkpt>
      <trkpt lat="43.75321" lon="6.94033">
        <ele>1276.581</ele>
        <time>2012-01-29T12:14:18Z</time>
      </trkpt>
      <trkpt lat="43.7532" lon="6.94041">
        <ele>1279.391</ele>
        <time>2012-01-29T12:14:28Z</time>
      </trkpt>
      <trkpt lat="43.7532" lon="6.94049">
        <ele>1281.311</ele>
        <time>2012-01-29T12:14:37Z</time>
      </trkpt>
      <trkpt lat="43.7532" lon="6.94053">
        <ele>1282.451</ele>
        <time>2012-01-29T12:14:43Z</time>
      </trkpt>
      <trkpt lat="43.75319" lon="6.94061">
        <ele>1284.121</ele>
        <time>2012-01-29T12:14:51Z</time>
      </trkpt>
      <trkpt lat="43.75318" lon="6.94064">
        <ele>1285.521</ele>
        <time>2012-01-29T12:14:58Z</time>
      </trkpt>
      <trkpt lat="43.75317" lon="6.9407">
        <ele>1287.001</ele>
        <time>2012-01-29T12:15:04Z</time>
      </trkpt>
      <trkpt lat="43.75314" lon="6.94073">
        <ele>1288.622</ele>
        <time>2012-01-29T12:15:10Z</time>
      </trkpt>
      <trkpt lat="43.75313" lon="6.94072">
        <ele>1288.86</ele>
        <time>2012-01-29T12:15:16Z</time>
      </trkpt>
      <trkpt lat="43.75312" lon="6.94083">
        <ele>1299.051</ele>
        <time>2012-01-29T12:19:50Z</time>
      </trkpt>
      <trkpt lat="43.75311" lon="6.94085">
        <ele>1297.501</ele>
        <time>2012-01-29T12:19:57Z</time>
      </trkpt>
      <trkpt lat="43.7531" lon="6.94086">
        <ele>1295.581</ele>
        <time>2012-01-29T12:20:06Z</time>
      </trkpt>
      <trkpt lat="43.7531" lon="6.94086">
        <ele>1292.611</ele>
        <time>2012-01-29T12:20:23Z</time>
      </trkpt>
      <trkpt lat="43.75305" lon="6.94095">
        <ele>1290.342</ele>
        <time>2012-01-29T12:20:31Z</time>
      </trkpt>
      <trkpt lat="43.75302" lon="6.94101">
        <ele>1290.333</ele>
        <time>2012-01-29T12:20:37Z</time>
      </trkpt>
      <trkpt lat="43.75299" lon="6.94109">
        <ele>1291.181</ele>
        <time>2012-01-29T12:20:46Z</time>
      </trkpt>
      <trkpt lat="43.75298" lon="6.94111">
        <ele>1291.542</ele>
        <time>2012-01-29T12:20:49Z</time>
      </trkpt>
      <trkpt lat="43.75293" lon="6.94117">
        <ele>1292.652</ele>
        <time>2012-01-29T12:20:58Z</time>
      </trkpt>
      <trkpt lat="43.75289" lon="6.94122">
        <ele>1293.364</ele>
        <time>2012-01-29T12:21:06Z</time>
      </trkpt>
      <trkpt lat="43.75286" lon="6.94128">
        <ele>1294.152</ele>
        <time>2012-01-29T12:21:14Z</time>
      </trkpt>
      <trkpt lat="43.75282" lon="6.94134">
        <ele>1294.791</ele>
        <time>2012-01-29T12:21:23Z</time>
      </trkpt>
      <trkpt lat="43.7528" lon="6.94138">
        <ele>1295.811</ele>
        <time>2012-01-29T12:21:32Z</time>
      </trkpt>
      <trkpt lat="43.75276" lon="6.94142">
        <ele>1297.112</ele>
        <time>2012-01-29T12:21:43Z</time>
      </trkpt>
      <trkpt lat="43.75272" lon="6.9415">
        <ele>1297.721</ele>
        <time>2012-01-29T12:21:51Z</time>
      </trkpt>
      <trkpt lat="43.75268" lon="6.94156">
        <ele>1298.712</ele>
        <time>2012-01-29T12:21:59Z</time>
      </trkpt>
      <trkpt lat="43.75265" lon="6.94162">
        <ele>1299.402</ele>
        <time>2012-01-29T12:22:07Z</time>
      </trkpt>
      <trkpt lat="43.75259" lon="6.94168">
        <ele>1300.502</ele>
        <time>2012-01-29T12:22:18Z</time>
      </trkpt>
      <trkpt lat="43.75254" lon="6.94174">
        <ele>1301.182</ele>
        <time>2012-01-29T12:22:28Z</time>
      </trkpt>
      <trkpt lat="43.75249" lon="6.94179">
        <ele>1301.682</ele>
        <time>2012-01-29T12:22:37Z</time>
      </trkpt>
      <trkpt lat="43.75244" lon="6.94185">
        <ele>1302.031</ele>
        <time>2012-01-29T12:22:47Z</time>
      </trkpt>
      <trkpt lat="43.75238" lon="6.9419">
        <ele>1302.421</ele>
        <time>2012-01-29T12:22:56Z</time>
      </trkpt>
      <trkpt lat="43.75232" lon="6.94195">
        <ele>1302.902</ele>
        <time>2012-01-29T12:23:05Z</time>
      </trkpt>
      <trkpt lat="43.75227" lon="6.94201">
        <ele>1303.421</ele>
        <time>2012-01-29T12:23:14Z</time>
      </trkpt>
      <trkpt lat="43.7522" lon="6.94207">
        <ele>1303.881</ele>
        <time>2012-01-29T12:23:24Z</time>
      </trkpt>
      <trkpt lat="43.75217" lon="6.94211">
        <ele>1304.891</ele>
        <time>2012-01-29T12:23:33Z</time>
      </trkpt>
      <trkpt lat="43.75216" lon="6.94215">
        <ele>1306.101</ele>
        <time>2012-01-29T12:23:44Z</time>
      </trkpt>
      <trkpt lat="43.75214" lon="6.94216">
        <ele>1306.202</ele>
        <time>2012-01-29T12:23:46Z</time>
      </trkpt>
      <trkpt lat="43.7521" lon="6.9422">
        <ele>1307.183</ele>
        <time>2012-01-29T12:23:50Z</time>
      </trkpt>
      <trkpt lat="43.75204" lon="6.9423">
        <ele>1307.691</ele>
        <time>2012-01-29T12:23:58Z</time>
      </trkpt>
      <trkpt lat="43.752" lon="6.94237">
        <ele>1307.992</ele>
        <time>2012-01-29T12:24:06Z</time>
      </trkpt>
      <trkpt lat="43.75196" lon="6.94244">
        <ele>1307.971</ele>
        <time>2012-01-29T12:24:14Z</time>
      </trkpt>
      <trkpt lat="43.75192" lon="6.94252">
        <ele>1308.392</ele>
        <time>2012-01-29T12:24:23Z</time>
      </trkpt>
      <trkpt lat="43.75188" lon="6.9426">
        <ele>1308.652</ele>
        <time>2012-01-29T12:24:31Z</time>
      </trkpt>
      <trkpt lat="43.75182" lon="6.94269">
        <ele>1309.612</ele>
        <time>2012-01-29T12:24:42Z</time>
      </trkpt>
      <trkpt lat="43.75175" lon="6.94276">
        <ele>1310.812</ele>
        <time>2012-01-29T12:24:53Z</time>
      </trkpt>
      <trkpt lat="43.75168" lon="6.94282">
        <ele>1312.231</ele>
        <time>2012-01-29T12:25:03Z</time>
      </trkpt>
      <trkpt lat="43.75161" lon="6.94288">
        <ele>1313.943</ele>
        <time>2012-01-29T12:25:14Z</time>
      </trkpt>
      <trkpt lat="43.75157" lon="6.9429">
        <ele>1315.313</ele>
        <time>2012-01-29T12:25:19Z</time>
      </trkpt>
      <trkpt lat="43.75151" lon="6.94297">
        <ele>1317.223</ele>
        <time>2012-01-29T12:25:30Z</time>
      </trkpt>
      <trkpt lat="43.75146" lon="6.94301">
        <ele>1318.883</ele>
        <time>2012-01-29T12:25:38Z</time>
      </trkpt>
      <trkpt lat="43.75141" lon="6.94306">
        <ele>1320.533</ele>
        <time>2012-01-29T12:25:46Z</time>
      </trkpt>
      <trkpt lat="43.75134" lon="6.94312">
        <ele>1321.122</ele>
        <time>2012-01-29T12:25:56Z</time>
      </trkpt>
      <trkpt lat="43.75128" lon="6.94318">
        <ele>1323.042</ele>
        <time>2012-01-29T12:26:06Z</time>
      </trkpt>
      <trkpt lat="43.75122" lon="6.94325">
        <ele>1324.722</ele>
        <time>2012-01-29T12:26:17Z</time>
      </trkpt>
      <trkpt lat="43.75119" lon="6.94329">
        <ele>1325.401</ele>
        <time>2012-01-29T12:26:24Z</time>
      </trkpt>
      <trkpt lat="43.75117" lon="6.94332">
        <ele>1325.671</ele>
        <time>2012-01-29T12:26:32Z</time>
      </trkpt>
      <trkpt lat="43.75112" lon="6.9434">
        <ele>1323.601</ele>
        <time>2012-01-29T12:26:39Z</time>
      </trkpt>
      <trkpt lat="43.75109" lon="6.9435">
        <ele>1322.831</ele>
        <time>2012-01-29T12:26:49Z</time>
      </trkpt>
      <trkpt lat="43.75105" lon="6.94359">
        <ele>1323.751</ele>
        <time>2012-01-29T12:26:59Z</time>
      </trkpt>
      <trkpt lat="43.75104" lon="6.94364">
        <ele>1324.261</ele>
        <time>2012-01-29T12:27:05Z</time>
      </trkpt>
      <trkpt lat="43.75101" lon="6.94376">
        <ele>1323.761</ele>
        <time>2012-01-29T12:27:15Z</time>
      </trkpt>
      <trkpt lat="43.75101" lon="6.94389">
        <ele>1325.361</ele>
        <time>2012-01-29T12:27:26Z</time>
      </trkpt>
      <trkpt lat="43.75101" lon="6.944">
        <ele>1325.481</ele>
        <time>2012-01-29T12:27:35Z</time>
      </trkpt>
      <trkpt lat="43.75101" lon="6.94413">
        <ele>1325.081</ele>
        <time>2012-01-29T12:27:45Z</time>
      </trkpt>
      <trkpt lat="43.751" lon="6.94427">
        <ele>1324.81</ele>
        <time>2012-01-29T12:27:56Z</time>
      </trkpt>
      <trkpt lat="43.75099" lon="6.94442">
        <ele>1323.39</ele>
        <time>2012-01-29T12:28:07Z</time>
      </trkpt>
      <trkpt lat="43.75098" lon="6.94455">
        <ele>1322.73</ele>
        <time>2012-01-29T12:28:16Z</time>
      </trkpt>
      <trkpt lat="43.75098" lon="6.94472">
        <ele>1321.03</ele>
        <time>2012-01-29T12:28:27Z</time>
      </trkpt>
      <trkpt lat="43.75096" lon="6.94486">
        <ele>1320.411</ele>
        <time>2012-01-29T12:28:37Z</time>
      </trkpt>
      <trkpt lat="43.75096" lon="6.94499">
        <ele>1320.551</ele>
        <time>2012-01-29T12:28:46Z</time>
      </trkpt>
      <trkpt lat="43.75096" lon="6.9451">
        <ele>1320.841</ele>
        <time>2012-01-29T12:28:54Z</time>
      </trkpt>
      <trkpt lat="43.75096" lon="6.94525">
        <ele>1320.652</ele>
        <time>2012-01-29T12:29:05Z</time>
      </trkpt>
      <trkpt lat="43.75097" lon="6.94538">
        <ele>1320.953</ele>
        <time>2012-01-29T12:29:15Z</time>
      </trkpt>
      <trkpt lat="43.75097" lon="6.94545">
        <ele>1320.841</ele>
        <time>2012-01-29T12:29:22Z</time>
      </trkpt>
      <trkpt lat="43.75098" lon="6.94554">
        <ele>1320.571</ele>
        <time>2012-01-29T12:29:31Z</time>
      </trkpt>
      <trkpt lat="43.75097" lon="6.94565">
        <ele>1321.002</ele>
        <time>2012-01-29T12:29:40Z</time>
      </trkpt>
      <trkpt lat="43.75096" lon="6.9457">
        <ele>1322.332</ele>
        <time>2012-01-29T12:29:47Z</time>
      </trkpt>
      <trkpt lat="43.75097" lon="6.94573">
        <ele>1323.432</ele>
        <time>2012-01-29T12:30:07Z</time>
      </trkpt>
      <trkpt lat="43.75097" lon="6.94577">
        <ele>1324.022</ele>
        <time>2012-01-29T12:30:10Z</time>
      </trkpt>
      <trkpt lat="43.75098" lon="6.9458">
        <ele>1324.061</ele>
        <time>2012-01-29T12:30:13Z</time>
      </trkpt>
      <trkpt lat="43.75097" lon="6.94591">
        <ele>1325.082</ele>
        <time>2012-01-29T12:30:22Z</time>
      </trkpt>
      <trkpt lat="43.75096" lon="6.94603">
        <ele>1326.123</ele>
        <time>2012-01-29T12:30:33Z</time>
      </trkpt>
      <trkpt lat="43.75094" lon="6.94614">
        <ele>1327.642</ele>
        <time>2012-01-29T12:30:43Z</time>
      </trkpt>
      <trkpt lat="43.75092" lon="6.94625">
        <ele>1328.871</ele>
        <time>2012-01-29T12:30:53Z</time>
      </trkpt>
      <trkpt lat="43.75089" lon="6.94636">
        <ele>1330.371</ele>
        <time>2012-01-29T12:31:03Z</time>
      </trkpt>
      <trkpt lat="43.75087" lon="6.94645">
        <ele>1331.252</ele>
        <time>2012-01-29T12:31:12Z</time>
      </trkpt>
      <trkpt lat="43.75086" lon="6.94655">
        <ele>1331.701</ele>
        <time>2012-01-29T12:31:21Z</time>
      </trkpt>
      <trkpt lat="43.75085" lon="6.94659">
        <ele>1331.31</ele>
        <time>2012-01-29T12:31:26Z</time>
      </trkpt>
      <trkpt lat="43.75085" lon="6.94661">
        <ele>1331.611</ele>
        <time>2012-01-29T12:31:34Z</time>
      </trkpt>
      <trkpt lat="43.75084" lon="6.94667">
        <ele>1331.741</ele>
        <time>2012-01-29T12:31:42Z</time>
      </trkpt>
      <trkpt lat="43.75082" lon="6.94682">
        <ele>1332.501</ele>
        <time>2012-01-29T12:31:52Z</time>
      </trkpt>
      <trkpt lat="43.7508" lon="6.94694">
        <ele>1332.52</ele>
        <time>2012-01-29T12:32:00Z</time>
      </trkpt>
      <trkpt lat="43.75079" lon="6.94704">
        <ele>1332.06</ele>
        <time>2012-01-29T12:32:07Z</time>
      </trkpt>
      <trkpt lat="43.75079" lon="6.9471">
        <ele>1331.551</ele>
        <time>2012-01-29T12:32:15Z</time>
      </trkpt>
      <trkpt lat="43.75079" lon="6.9471">
        <ele>1330.662</ele>
        <time>2012-01-29T12:32:22Z</time>
      </trkpt>
      <trkpt lat="43.7508" lon="6.94715">
        <ele>1330.432</ele>
        <time>2012-01-29T12:32:28Z</time>
      </trkpt>
      <trkpt lat="43.75081" lon="6.94718">
        <ele>1330.421</ele>
        <time>2012-01-29T12:32:32Z</time>
      </trkpt>
      <trkpt lat="43.75081" lon="6.9472">
        <ele>1330.431</ele>
        <time>2012-01-29T12:32:34Z</time>
      </trkpt>
      <trkpt lat="43.75083" lon="6.94732">
        <ele>1330.572</ele>
        <time>2012-01-29T12:32:45Z</time>
      </trkpt>
      <trkpt lat="43.75084" lon="6.94738">
        <ele>1330.641</ele>
        <time>2012-01-29T12:32:52Z</time>
      </trkpt>
      <trkpt lat="43.75085" lon="6.94739">
        <ele>1330.461</ele>
        <time>2012-01-29T12:32:58Z</time>
      </trkpt>
      <trkpt lat="43.75087" lon="6.94741">
        <ele>1330.261</ele>
        <time>2012-01-29T12:33:03Z</time>
      </trkpt>
      <trkpt lat="43.75087" lon="6.94747">
        <ele>1330.262</ele>
        <time>2012-01-29T12:33:12Z</time>
      </trkpt>
      <trkpt lat="43.75087" lon="6.9475">
        <ele>1330.512</ele>
        <time>2012-01-29T12:33:18Z</time>
      </trkpt>
      <trkpt lat="43.75087" lon="6.94752">
        <ele>1330.822</ele>
        <time>2012-01-29T12:33:21Z</time>
      </trkpt>
      <trkpt lat="43.75088" lon="6.94755">
        <ele>1330.952</ele>
        <time>2012-01-29T12:33:26Z</time>
      </trkpt>
      <trkpt lat="43.7509" lon="6.94761">
        <ele>1331.071</ele>
        <time>2012-01-29T12:33:32Z</time>
      </trkpt>
      <trkpt lat="43.75092" lon="6.94764">
        <ele>1330.892</ele>
        <time>2012-01-29T12:33:38Z</time>
      </trkpt>
      <trkpt lat="43.75093" lon="6.94768">
        <ele>1330.782</ele>
        <time>2012-01-29T12:33:44Z</time>
      </trkpt>
      <trkpt lat="43.75094" lon="6.94771">
        <ele>1330.812</ele>
        <time>2012-01-29T12:33:50Z</time>
      </trkpt>
      <trkpt lat="43.75096" lon="6.94777">
        <ele>1330.761</ele>
        <time>2012-01-29T12:33:58Z</time>
      </trkpt>
      <trkpt lat="43.75098" lon="6.94781">
        <ele>1330.721</ele>
        <time>2012-01-29T12:34:04Z</time>
      </trkpt>
      <trkpt lat="43.75099" lon="6.94787">
        <ele>1330.501</ele>
        <time>2012-01-29T12:34:12Z</time>
      </trkpt>
      <trkpt lat="43.75099" lon="6.94791">
        <ele>1330.602</ele>
        <time>2012-01-29T12:34:17Z</time>
      </trkpt>
      <trkpt lat="43.75099" lon="6.94796">
        <ele>1330.571</ele>
        <time>2012-01-29T12:34:24Z</time>
      </trkpt>
      <trkpt lat="43.75098" lon="6.94802">
        <ele>1331.091</ele>
        <time>2012-01-29T12:34:31Z</time>
      </trkpt>
      <trkpt lat="43.75097" lon="6.94809">
        <ele>1331.042</ele>
        <time>2012-01-29T12:34:39Z</time>
      </trkpt>
      <trkpt lat="43.75096" lon="6.94812">
        <ele>1330.391</ele>
        <time>2012-01-29T12:34:44Z</time>
      </trkpt>
      <trkpt lat="43.75093" lon="6.94822">
        <ele>1330.312</ele>
        <time>2012-01-29T12:34:54Z</time>
      </trkpt>
      <trkpt lat="43.75094" lon="6.94824">
        <ele>1330.241</ele>
        <time>2012-01-29T12:35:00Z</time>
      </trkpt>
      <trkpt lat="43.75095" lon="6.94829">
        <ele>1329.641</ele>
        <time>2012-01-29T12:35:07Z</time>
      </trkpt>
      <trkpt lat="43.75096" lon="6.9483">
        <ele>1329.661</ele>
        <time>2012-01-29T12:35:09Z</time>
      </trkpt>
      <trkpt lat="43.75098" lon="6.94835">
        <ele>1328.611</ele>
        <time>2012-01-29T12:35:17Z</time>
      </trkpt>
      <trkpt lat="43.75102" lon="6.9484">
        <ele>1328.151</ele>
        <time>2012-01-29T12:35:28Z</time>
      </trkpt>
      <trkpt lat="43.75102" lon="6.94841">
        <ele>1328.151</ele>
        <time>2012-01-29T12:35:30Z</time>
      </trkpt>
      <trkpt lat="43.75107" lon="6.9485">
        <ele>1327.131</ele>
        <time>2012-01-29T12:35:36Z</time>
      </trkpt>
      <trkpt lat="43.75108" lon="6.94851">
        <ele>1327.081</ele>
        <time>2012-01-29T12:35:42Z</time>
      </trkpt>
      <trkpt lat="43.75111" lon="6.94856">
        <ele>1326.911</ele>
        <time>2012-01-29T12:36:16Z</time>
      </trkpt>
      <trkpt lat="43.75122" lon="6.94871">
        <ele>1323.299</ele>
        <time>2012-01-29T12:36:24Z</time>
      </trkpt>
      <trkpt lat="43.75129" lon="6.94881">
        <ele>1321.239</ele>
        <time>2012-01-29T12:36:29Z</time>
      </trkpt>
      <trkpt lat="43.75133" lon="6.9489">
        <ele>1319.74</ele>
        <time>2012-01-29T12:36:33Z</time>
      </trkpt>
      <trkpt lat="43.75134" lon="6.94894">
        <ele>1318.751</ele>
        <time>2012-01-29T12:36:37Z</time>
      </trkpt>
      <trkpt lat="43.75133" lon="6.94899">
        <ele>1318.061</ele>
        <time>2012-01-29T12:36:44Z</time>
      </trkpt>
      <trkpt lat="43.75132" lon="6.94907">
        <ele>1316.91</ele>
        <time>2012-01-29T12:36:50Z</time>
      </trkpt>
      <trkpt lat="43.75132" lon="6.94908">
        <ele>1315.711</ele>
        <time>2012-01-29T12:36:56Z</time>
      </trkpt>
      <trkpt lat="43.75132" lon="6.94918">
        <ele>1314.56</ele>
        <time>2012-01-29T12:37:02Z</time>
      </trkpt>
      <trkpt lat="43.75131" lon="6.94924">
        <ele>1313.69</ele>
        <time>2012-01-29T12:37:06Z</time>
      </trkpt>
      <trkpt lat="43.75131" lon="6.94934">
        <ele>1312.149</ele>
        <time>2012-01-29T12:37:11Z</time>
      </trkpt>
      <trkpt lat="43.75132" lon="6.94937">
        <ele>1310.541</ele>
        <time>2012-01-29T12:37:16Z</time>
      </trkpt>
      <trkpt lat="43.75132" lon="6.94943">
        <ele>1308.461</ele>
        <time>2012-01-29T12:37:22Z</time>
      </trkpt>
      <trkpt lat="43.75132" lon="6.94946">
        <ele>1308.512</ele>
        <time>2012-01-29T12:37:29Z</time>
      </trkpt>
      <trkpt lat="43.75132" lon="6.94949">
        <ele>1307.612</ele>
        <time>2012-01-29T12:37:37Z</time>
      </trkpt>
      <trkpt lat="43.75132" lon="6.94956">
        <ele>1305.871</ele>
        <time>2012-01-29T12:37:43Z</time>
      </trkpt>
      <trkpt lat="43.7513" lon="6.94965">
        <ele>1305.871</ele>
        <time>2012-01-29T12:37:49Z</time>
      </trkpt>
      <trkpt lat="43.75129" lon="6.9497">
        <ele>1305.691</ele>
        <time>2012-01-29T12:37:51Z</time>
      </trkpt>
      <trkpt lat="43.75126" lon="6.94978">
        <ele>1306.822</ele>
        <time>2012-01-29T12:37:58Z</time>
      </trkpt>
      <trkpt lat="43.75125" lon="6.94984">
        <ele>1306.542</ele>
        <time>2012-01-29T12:38:03Z</time>
      </trkpt>
      <trkpt lat="43.75123" lon="6.94997">
        <ele>1306.882</ele>
        <time>2012-01-29T12:38:11Z</time>
      </trkpt>
      <trkpt lat="43.75122" lon="6.95008">
        <ele>1306.061</ele>
        <time>2012-01-29T12:38:17Z</time>
      </trkpt>
      <trkpt lat="43.7512" lon="6.95011">
        <ele>1305.082</ele>
        <time>2012-01-29T12:38:23Z</time>
      </trkpt>
      <trkpt lat="43.75115" lon="6.95014">
        <ele>1304.623</ele>
        <time>2012-01-29T12:38:47Z</time>
      </trkpt>
      <trkpt lat="43.75106" lon="6.95016">
        <ele>1303.762</ele>
        <time>2012-01-29T12:38:55Z</time>
      </trkpt>
      <trkpt lat="43.75099" lon="6.95015">
        <ele>1303.806</ele>
        <time>2012-01-29T12:39:03Z</time>
      </trkpt>
      <trkpt lat="43.7509" lon="6.95018">
        <ele>1303.672</ele>
        <time>2012-01-29T12:39:12Z</time>
      </trkpt>
      <trkpt lat="43.75082" lon="6.95018">
        <ele>1304.703</ele>
        <time>2012-01-29T12:39:21Z</time>
      </trkpt>
      <trkpt lat="43.75075" lon="6.95014">
        <ele>1305.242</ele>
        <time>2012-01-29T12:39:29Z</time>
      </trkpt>
      <trkpt lat="43.7507" lon="6.95012">
        <ele>1305.462</ele>
        <time>2012-01-29T12:39:34Z</time>
      </trkpt>
      <trkpt lat="43.75065" lon="6.95011">
        <ele>1305.592</ele>
        <time>2012-01-29T12:39:39Z</time>
      </trkpt>
      <trkpt lat="43.75057" lon="6.9501">
        <ele>1305.741</ele>
        <time>2012-01-29T12:39:49Z</time>
      </trkpt>
      <trkpt lat="43.75056" lon="6.95009">
        <ele>1306.012</ele>
        <time>2012-01-29T12:39:55Z</time>
      </trkpt>
      <trkpt lat="43.75054" lon="6.95004">
        <ele>1307.662</ele>
        <time>2012-01-29T12:40:04Z</time>
      </trkpt>
      <trkpt lat="43.75053" lon="6.95003">
        <ele>1307.853</ele>
        <time>2012-01-29T12:40:05Z</time>
      </trkpt>
      <trkpt lat="43.75049" lon="6.94999">
        <ele>1307.552</ele>
        <time>2012-01-29T12:40:12Z</time>
      </trkpt>
      <trkpt lat="43.75048" lon="6.94999">
        <ele>1307.462</ele>
        <time>2012-01-29T12:40:13Z</time>
      </trkpt>
      <trkpt lat="43.75046" lon="6.94998">
        <ele>1307.813</ele>
        <time>2012-01-29T12:40:19Z</time>
      </trkpt>
      <trkpt lat="43.75045" lon="6.94997">
        <ele>1307.653</ele>
        <time>2012-01-29T12:40:20Z</time>
      </trkpt>
      <trkpt lat="43.75043" lon="6.94992">
        <ele>1307.183</ele>
        <time>2012-01-29T12:40:24Z</time>
      </trkpt>
      <trkpt lat="43.7504" lon="6.9499">
        <ele>1308.245</ele>
        <time>2012-01-29T12:40:27Z</time>
      </trkpt>
      <trkpt lat="43.75036" lon="6.94988">
        <ele>1310.193</ele>
        <time>2012-01-29T12:40:35Z</time>
      </trkpt>
      <trkpt lat="43.75034" lon="6.94986">
        <ele>1312.953</ele>
        <time>2012-01-29T12:40:46Z</time>
      </trkpt>
      <trkpt lat="43.75031" lon="6.94987">
        <ele>1310.852</ele>
        <time>2012-01-29T12:40:51Z</time>
      </trkpt>
      <trkpt lat="43.75025" lon="6.94986">
        <ele>1310.312</ele>
        <time>2012-01-29T12:41:07Z</time>
      </trkpt>
      <trkpt lat="43.7502" lon="6.94986">
        <ele>1313.203</ele>
        <time>2012-01-29T12:41:22Z</time>
      </trkpt>
      <trkpt lat="43.75014" lon="6.94985">
        <ele>1313.172</ele>
        <time>2012-01-29T12:41:29Z</time>
      </trkpt>
      <trkpt lat="43.75007" lon="6.94981">
        <ele>1315.343</ele>
        <time>2012-01-29T12:41:39Z</time>
      </trkpt>
      <trkpt lat="43.75005" lon="6.94982">
        <ele>1314.893</ele>
        <time>2012-01-29T12:41:46Z</time>
      </trkpt>
      <trkpt lat="43.75003" lon="6.94991">
        <ele>1312.272</ele>
        <time>2012-01-29T12:42:01Z</time>
      </trkpt>
      <trkpt lat="43.75003" lon="6.95004">
        <ele>1312.723</ele>
        <time>2012-01-29T12:42:09Z</time>
      </trkpt>
      <trkpt lat="43.75003" lon="6.95008">
        <ele>1313.272</ele>
        <time>2012-01-29T12:42:16Z</time>
      </trkpt>
      <trkpt lat="43.75004" lon="6.95013">
        <ele>1313.813</ele>
        <time>2012-01-29T12:42:22Z</time>
      </trkpt>
      <trkpt lat="43.75003" lon="6.95023">
        <ele>1314.462</ele>
        <time>2012-01-29T12:42:31Z</time>
      </trkpt>
      <trkpt lat="43.75003" lon="6.95034">
        <ele>1315.212</ele>
        <time>2012-01-29T12:42:43Z</time>
      </trkpt>
      <trkpt lat="43.75001" lon="6.95042">
        <ele>1316.443</ele>
        <time>2012-01-29T12:42:53Z</time>
      </trkpt>
      <trkpt lat="43.75001" lon="6.95043">
        <ele>1316.492</ele>
        <time>2012-01-29T12:42:54Z</time>
      </trkpt>
      <trkpt lat="43.75001" lon="6.95049">
        <ele>1317.142</ele>
        <time>2012-01-29T12:43:01Z</time>
      </trkpt>
      <trkpt lat="43.75" lon="6.95052">
        <ele>1317.742</ele>
        <time>2012-01-29T12:43:06Z</time>
      </trkpt>
      <trkpt lat="43.75" lon="6.95056">
        <ele>1318.202</ele>
        <time>2012-01-29T12:43:11Z</time>
      </trkpt>
      <trkpt lat="43.74999" lon="6.95064">
        <ele>1318.072</ele>
        <time>2012-01-29T12:43:18Z</time>
      </trkpt>
      <trkpt lat="43.74998" lon="6.95069">
        <ele>1317.992</ele>
        <time>2012-01-29T12:43:24Z</time>
      </trkpt>
      <trkpt lat="43.74997" lon="6.95071">
        <ele>1318.693</ele>
        <time>2012-01-29T12:43:29Z</time>
      </trkpt>
      <trkpt lat="43.74993" lon="6.95073">
        <ele>1318.162</ele>
        <time>2012-01-29T12:43:36Z</time>
      </trkpt>
      <trkpt lat="43.74996" lon="6.95075">
        <ele>1318.142</ele>
        <time>2012-01-29T12:43:40Z</time>
      </trkpt>
      <trkpt lat="43.74997" lon="6.95084">
        <ele>1318.733</ele>
        <time>2012-01-29T12:43:48Z</time>
      </trkpt>
      <trkpt lat="43.74996" lon="6.95094">
        <ele>1319.802</ele>
        <time>2012-01-29T12:43:57Z</time>
      </trkpt>
      <trkpt lat="43.74996" lon="6.95105">
        <ele>1321.193</ele>
        <time>2012-01-29T12:44:06Z</time>
      </trkpt>
      <trkpt lat="43.74997" lon="6.95113">
        <ele>1322.693</ele>
        <time>2012-01-29T12:44:14Z</time>
      </trkpt>
      <trkpt lat="43.74996" lon="6.9512">
        <ele>1323.392</ele>
        <time>2012-01-29T12:44:22Z</time>
      </trkpt>
      <trkpt lat="43.74994" lon="6.95124">
        <ele>1322.632</ele>
        <time>2012-01-29T12:44:25Z</time>
      </trkpt>
      <trkpt lat="43.74991" lon="6.95131">
        <ele>1322.884</ele>
        <time>2012-01-29T12:44:33Z</time>
      </trkpt>
      <trkpt lat="43.74989" lon="6.9514">
        <ele>1323.153</ele>
        <time>2012-01-29T12:44:40Z</time>
      </trkpt>
      <trkpt lat="43.74989" lon="6.95146">
        <ele>1322.142</ele>
        <time>2012-01-29T12:44:47Z</time>
      </trkpt>
      <trkpt lat="43.7499" lon="6.95155">
        <ele>1320.861</ele>
        <time>2012-01-29T12:44:54Z</time>
      </trkpt>
      <trkpt lat="43.7499" lon="6.95158">
        <ele>1320.891</ele>
        <time>2012-01-29T12:44:58Z</time>
      </trkpt>
      <trkpt lat="43.74991" lon="6.95164">
        <ele>1322.333</ele>
        <time>2012-01-29T12:45:06Z</time>
      </trkpt>
      <trkpt lat="43.7499" lon="6.95175">
        <ele>1323.272</ele>
        <time>2012-01-29T12:45:15Z</time>
      </trkpt>
      <trkpt lat="43.7499" lon="6.95178">
        <ele>1322.952</ele>
        <time>2012-01-29T12:45:17Z</time>
      </trkpt>
      <trkpt lat="43.74983" lon="6.95183">
        <ele>1322.063</ele>
        <time>2012-01-29T12:45:24Z</time>
      </trkpt>
      <trkpt lat="43.74979" lon="6.95194">
        <ele>1320.263</ele>
        <time>2012-01-29T12:45:32Z</time>
      </trkpt>
      <trkpt lat="43.74973" lon="6.95204">
        <ele>1319.483</ele>
        <time>2012-01-29T12:45:42Z</time>
      </trkpt>
      <trkpt lat="43.74968" lon="6.95208">
        <ele>1319.283</ele>
        <time>2012-01-29T12:46:06Z</time>
      </trkpt>
      <trkpt lat="43.7496" lon="6.95213">
        <ele>1319.802</ele>
        <time>2012-01-29T12:46:15Z</time>
      </trkpt>
      <trkpt lat="43.74958" lon="6.95216">
        <ele>1318.792</ele>
        <time>2012-01-29T12:46:21Z</time>
      </trkpt>
      <trkpt lat="43.74958" lon="6.95217">
        <ele>1316.922</ele>
        <time>2012-01-29T12:46:30Z</time>
      </trkpt>
      <trkpt lat="43.74958" lon="6.95221">
        <ele>1315.752</ele>
        <time>2012-01-29T12:46:36Z</time>
      </trkpt>
      <trkpt lat="43.74962" lon="6.9523">
        <ele>1314.331</ele>
        <time>2012-01-29T12:46:43Z</time>
      </trkpt>
      <trkpt lat="43.74963" lon="6.95232">
        <ele>1313.992</ele>
        <time>2012-01-29T12:46:49Z</time>
      </trkpt>
      <trkpt lat="43.74962" lon="6.95234">
        <ele>1314.202</ele>
        <time>2012-01-29T12:46:58Z</time>
      </trkpt>
      <trkpt lat="43.74964" lon="6.95235">
        <ele>1314.853</ele>
        <time>2012-01-29T12:47:04Z</time>
      </trkpt>
      <trkpt lat="43.74966" lon="6.95242">
        <ele>1314.551</ele>
        <time>2012-01-29T12:47:10Z</time>
      </trkpt>
      <trkpt lat="43.74969" lon="6.95252">
        <ele>1313.091</ele>
        <time>2012-01-29T12:47:15Z</time>
      </trkpt>
      <trkpt lat="43.74968" lon="6.95252">
        <ele>1312.722</ele>
        <time>2012-01-29T12:47:20Z</time>
      </trkpt>
      <trkpt lat="43.74964" lon="6.95263">
        <ele>1311.98</ele>
        <time>2012-01-29T12:47:27Z</time>
      </trkpt>
      <trkpt lat="43.74963" lon="6.95267">
        <ele>1311.011</ele>
        <time>2012-01-29T12:47:31Z</time>
      </trkpt>
      <trkpt lat="43.74961" lon="6.95269">
        <ele>1310.532</ele>
        <time>2012-01-29T12:47:35Z</time>
      </trkpt>
      <trkpt lat="43.7496" lon="6.9527">
        <ele>1309.682</ele>
        <time>2012-01-29T12:47:41Z</time>
      </trkpt>
      <trkpt lat="43.7496" lon="6.95272">
        <ele>1308.352</ele>
        <time>2012-01-29T12:47:50Z</time>
      </trkpt>
      <trkpt lat="43.74959" lon="6.9528">
        <ele>1308.422</ele>
        <time>2012-01-29T12:47:56Z</time>
      </trkpt>
      <trkpt lat="43.74959" lon="6.9529">
        <ele>1309.273</ele>
        <time>2012-01-29T12:48:03Z</time>
      </trkpt>
      <trkpt lat="43.74959" lon="6.95291">
        <ele>1309.423</ele>
        <time>2012-01-29T12:48:04Z</time>
      </trkpt>
      <trkpt lat="43.74955" lon="6.95298">
        <ele>1310.663</ele>
        <time>2012-01-29T12:48:12Z</time>
      </trkpt>
      <trkpt lat="43.7495" lon="6.95306">
        <ele>1312.203</ele>
        <time>2012-01-29T12:48:19Z</time>
      </trkpt>
      <trkpt lat="43.74945" lon="6.95306">
        <ele>1313.103</ele>
        <time>2012-01-29T12:48:27Z</time>
      </trkpt>
      <trkpt lat="43.74942" lon="6.95307">
        <ele>1313.583</ele>
        <time>2012-01-29T12:48:34Z</time>
      </trkpt>
      <trkpt lat="43.74939" lon="6.95307">
        <ele>1314.233</ele>
        <time>2012-01-29T12:48:41Z</time>
      </trkpt>
      <trkpt lat="43.74938" lon="6.95307">
        <ele>1315.822</ele>
        <time>2012-01-29T12:48:51Z</time>
      </trkpt>
      <trkpt lat="43.74936" lon="6.95306">
        <ele>1315.903</ele>
        <time>2012-01-29T12:48:58Z</time>
      </trkpt>
      <trkpt lat="43.74936" lon="6.95306">
        <ele>1317.602</ele>
        <time>2012-01-29T12:49:22Z</time>
      </trkpt>
      <trkpt lat="43.74932" lon="6.95304">
        <ele>1316.702</ele>
        <time>2012-01-29T12:49:27Z</time>
      </trkpt>
      <trkpt lat="43.74925" lon="6.95306">
        <ele>1317.564</ele>
        <time>2012-01-29T12:49:35Z</time>
      </trkpt>
      <trkpt lat="43.74924" lon="6.95306">
        <ele>1317.784</ele>
        <time>2012-01-29T12:49:36Z</time>
      </trkpt>
      <trkpt lat="43.74919" lon="6.95305">
        <ele>1316.412</ele>
        <time>2012-01-29T12:49:46Z</time>
      </trkpt>
      <trkpt lat="43.74919" lon="6.95307">
        <ele>1315.712</ele>
        <time>2012-01-29T12:49:54Z</time>
      </trkpt>
      <trkpt lat="43.74921" lon="6.95314">
        <ele>1315.412</ele>
        <time>2012-01-29T12:49:59Z</time>
      </trkpt>
      <trkpt lat="43.74923" lon="6.95326">
        <ele>1314.602</ele>
        <time>2012-01-29T12:50:07Z</time>
      </trkpt>
      <trkpt lat="43.74919" lon="6.95333">
        <ele>1312.692</ele>
        <time>2012-01-29T12:50:14Z</time>
      </trkpt>
      <trkpt lat="43.74917" lon="6.95334">
        <ele>1312.532</ele>
        <time>2012-01-29T12:50:16Z</time>
      </trkpt>
      <trkpt lat="43.74909" lon="6.95342">
        <ele>1311.842</ele>
        <time>2012-01-29T12:50:26Z</time>
      </trkpt>
      <trkpt lat="43.74911" lon="6.95349">
        <ele>1310.921</ele>
        <time>2012-01-29T12:50:32Z</time>
      </trkpt>
      <trkpt lat="43.74911" lon="6.95351">
        <ele>1310.562</ele>
        <time>2012-01-29T12:50:34Z</time>
      </trkpt>
      <trkpt lat="43.7491" lon="6.95354">
        <ele>1309.961</ele>
        <time>2012-01-29T12:50:37Z</time>
      </trkpt>
      <trkpt lat="43.74904" lon="6.95361">
        <ele>1308.081</ele>
        <time>2012-01-29T12:50:44Z</time>
      </trkpt>
      <trkpt lat="43.74899" lon="6.9537">
        <ele>1306.772</ele>
        <time>2012-01-29T12:50:51Z</time>
      </trkpt>
      <trkpt lat="43.74896" lon="6.9538">
        <ele>1304.872</ele>
        <time>2012-01-29T12:50:58Z</time>
      </trkpt>
      <trkpt lat="43.74893" lon="6.95394">
        <ele>1302.862</ele>
        <time>2012-01-29T12:51:07Z</time>
      </trkpt>
      <trkpt lat="43.74893" lon="6.95405">
        <ele>1302.482</ele>
        <time>2012-01-29T12:51:15Z</time>
      </trkpt>
      <trkpt lat="43.7489" lon="6.95415">
        <ele>1301.902</ele>
        <time>2012-01-29T12:51:23Z</time>
      </trkpt>
      <trkpt lat="43.74888" lon="6.95425">
        <ele>1301.593</ele>
        <time>2012-01-29T12:51:31Z</time>
      </trkpt>
      <trkpt lat="43.74889" lon="6.95426">
        <ele>1301.412</ele>
        <time>2012-01-29T12:51:43Z</time>
      </trkpt>
      <trkpt lat="43.74886" lon="6.95438">
        <ele>1299.381</ele>
        <time>2012-01-29T12:51:51Z</time>
      </trkpt>
      <trkpt lat="43.74885" lon="6.95442">
        <ele>1298.832</ele>
        <time>2012-01-29T12:51:55Z</time>
      </trkpt>
      <trkpt lat="43.74879" lon="6.95455">
        <ele>1298.442</ele>
        <time>2012-01-29T12:52:05Z</time>
      </trkpt>
      <trkpt lat="43.7487" lon="6.95464">
        <ele>1297.851</ele>
        <time>2012-01-29T12:52:14Z</time>
      </trkpt>
      <trkpt lat="43.7486" lon="6.95468">
        <ele>1297.873</ele>
        <time>2012-01-29T12:52:22Z</time>
      </trkpt>
      <trkpt lat="43.74851" lon="6.95473">
        <ele>1298.132</ele>
        <time>2012-01-29T12:52:30Z</time>
      </trkpt>
      <trkpt lat="43.74845" lon="6.95481">
        <ele>1297.532</ele>
        <time>2012-01-29T12:52:38Z</time>
      </trkpt>
      <trkpt lat="43.74839" lon="6.95491">
        <ele>1295.802</ele>
        <time>2012-01-29T12:52:46Z</time>
      </trkpt>
      <trkpt lat="43.74834" lon="6.95503">
        <ele>1294.122</ele>
        <time>2012-01-29T12:52:54Z</time>
      </trkpt>
      <trkpt lat="43.74825" lon="6.95511">
        <ele>1294.013</ele>
        <time>2012-01-29T12:53:03Z</time>
      </trkpt>
      <trkpt lat="43.74824" lon="6.95512">
        <ele>1294.764</ele>
        <time>2012-01-29T12:53:05Z</time>
      </trkpt>
      <trkpt lat="43.74822" lon="6.95518">
        <ele>1294.193</ele>
        <time>2012-01-29T12:53:10Z</time>
      </trkpt>
      <trkpt lat="43.7482" lon="6.9552">
        <ele>1294.273</ele>
        <time>2012-01-29T12:53:18Z</time>
      </trkpt>
      <trkpt lat="43.7482" lon="6.9552">
        <ele>1294.683</ele>
        <time>2012-01-29T12:53:20Z</time>
      </trkpt>
      <trkpt lat="43.7482" lon="6.95527">
        <ele>1293.862</ele>
        <time>2012-01-29T12:53:27Z</time>
      </trkpt>
      <trkpt lat="43.7482" lon="6.95527">
        <ele>1293.933</ele>
        <time>2012-01-29T12:53:29Z</time>
      </trkpt>
      <trkpt lat="43.74817" lon="6.95534">
        <ele>1294.063</ele>
        <time>2012-01-29T12:53:36Z</time>
      </trkpt>
      <trkpt lat="43.74815" lon="6.95542">
        <ele>1293.413</ele>
        <time>2012-01-29T12:53:52Z</time>
      </trkpt>
      <trkpt lat="43.74811" lon="6.95556">
        <ele>1293.613</ele>
        <time>2012-01-29T12:53:59Z</time>
      </trkpt>
      <trkpt lat="43.74809" lon="6.9556">
        <ele>1294.003</ele>
        <time>2012-01-29T12:54:07Z</time>
      </trkpt>
      <trkpt lat="43.74807" lon="6.95568">
        <ele>1294.323</ele>
        <time>2012-01-29T12:54:15Z</time>
      </trkpt>
      <trkpt lat="43.74801" lon="6.9558">
        <ele>1293.353</ele>
        <time>2012-01-29T12:54:26Z</time>
      </trkpt>
      <trkpt lat="43.74795" lon="6.9559">
        <ele>1292.202</ele>
        <time>2012-01-29T12:54:35Z</time>
      </trkpt>
      <trkpt lat="43.74787" lon="6.956">
        <ele>1292.533</ele>
        <time>2012-01-29T12:54:46Z</time>
      </trkpt>
      <trkpt lat="43.74782" lon="6.95603">
        <ele>1293.413</ele>
        <time>2012-01-29T12:54:53Z</time>
      </trkpt>
      <trkpt lat="43.7478" lon="6.95603">
        <ele>1293.983</ele>
        <time>2012-01-29T12:54:58Z</time>
      </trkpt>
      <trkpt lat="43.74777" lon="6.95603">
        <ele>1294.613</ele>
        <time>2012-01-29T12:55:03Z</time>
      </trkpt>
      <trkpt lat="43.74777" lon="6.95603">
        <ele>1295.953</ele>
        <time>2012-01-29T12:55:15Z</time>
      </trkpt>
      <trkpt lat="43.74773" lon="6.95606">
        <ele>1295.613</ele>
        <time>2012-01-29T12:55:22Z</time>
      </trkpt>
      <trkpt lat="43.7477" lon="6.95607">
        <ele>1295.373</ele>
        <time>2012-01-29T12:55:26Z</time>
      </trkpt>
      <trkpt lat="43.74767" lon="6.95619">
        <ele>1292.912</ele>
        <time>2012-01-29T12:55:34Z</time>
      </trkpt>
      <trkpt lat="43.74764" lon="6.95632">
        <ele>1290.721</ele>
        <time>2012-01-29T12:55:42Z</time>
      </trkpt>
      <trkpt lat="43.74761" lon="6.95642">
        <ele>1288.13</ele>
        <time>2012-01-29T12:55:48Z</time>
      </trkpt>
      <trkpt lat="43.74758" lon="6.95647">
        <ele>1285.971</ele>
        <time>2012-01-29T12:55:54Z</time>
      </trkpt>
      <trkpt lat="43.74751" lon="6.95659">
        <ele>1283.811</ele>
        <time>2012-01-29T12:56:02Z</time>
      </trkpt>
      <trkpt lat="43.74749" lon="6.95661">
        <ele>1282.922</ele>
        <time>2012-01-29T12:56:07Z</time>
      </trkpt>
      <trkpt lat="43.74748" lon="6.95662">
        <ele>1283.693</ele>
        <time>2012-01-29T12:56:10Z</time>
      </trkpt>
      <trkpt lat="43.74745" lon="6.95661">
        <ele>1284.443</ele>
        <time>2012-01-29T12:56:17Z</time>
      </trkpt>
      <trkpt lat="43.74741" lon="6.95659">
        <ele>1286.172</ele>
        <time>2012-01-29T12:56:36Z</time>
      </trkpt>
      <trkpt lat="43.74732" lon="6.95657">
        <ele>1284.482</ele>
        <time>2012-01-29T12:56:44Z</time>
      </trkpt>
      <trkpt lat="43.74722" lon="6.95658">
        <ele>1282.822</ele>
        <time>2012-01-29T12:56:53Z</time>
      </trkpt>
      <trkpt lat="43.7472" lon="6.95657">
        <ele>1282.402</ele>
        <time>2012-01-29T12:56:57Z</time>
      </trkpt>
      <trkpt lat="43.74719" lon="6.95657">
        <ele>1282.032</ele>
        <time>2012-01-29T12:56:59Z</time>
      </trkpt>
      <trkpt lat="43.74711" lon="6.95658">
        <ele>1280.501</ele>
        <time>2012-01-29T12:57:06Z</time>
      </trkpt>
      <trkpt lat="43.74709" lon="6.95659">
        <ele>1280.152</ele>
        <time>2012-01-29T12:57:08Z</time>
      </trkpt>
      <trkpt lat="43.747" lon="6.95661">
        <ele>1278.792</ele>
        <time>2012-01-29T12:57:16Z</time>
      </trkpt>
      <trkpt lat="43.74692" lon="6.95662">
        <ele>1278.873</ele>
        <time>2012-01-29T12:57:22Z</time>
      </trkpt>
      <trkpt lat="43.74691" lon="6.95663">
        <ele>1279.613</ele>
        <time>2012-01-29T12:57:27Z</time>
      </trkpt>
      <trkpt lat="43.74691" lon="6.95663">
        <ele>1280.613</ele>
        <time>2012-01-29T12:57:33Z</time>
      </trkpt>
      <trkpt lat="43.74693" lon="6.95656">
        <ele>1280.063</ele>
        <time>2012-01-29T12:57:40Z</time>
      </trkpt>
      <trkpt lat="43.74687" lon="6.9565">
        <ele>1280.753</ele>
        <time>2012-01-29T12:57:49Z</time>
      </trkpt>
      <trkpt lat="43.7468" lon="6.95653">
        <ele>1280.543</ele>
        <time>2012-01-29T12:57:55Z</time>
      </trkpt>
      <trkpt lat="43.74674" lon="6.9566">
        <ele>1279.442</ele>
        <time>2012-01-29T12:58:03Z</time>
      </trkpt>
      <trkpt lat="43.74667" lon="6.95664">
        <ele>1278.462</ele>
        <time>2012-01-29T12:58:11Z</time>
      </trkpt>
      <trkpt lat="43.74663" lon="6.95668">
        <ele>1277.521</ele>
        <time>2012-01-29T12:58:16Z</time>
      </trkpt>
      <trkpt lat="43.74656" lon="6.95675">
        <ele>1275.602</ele>
        <time>2012-01-29T12:58:24Z</time>
      </trkpt>
      <trkpt lat="43.74656" lon="6.95675">
        <ele>1275.453</ele>
        <time>2012-01-29T12:58:32Z</time>
      </trkpt>
      <trkpt lat="43.74656" lon="6.95675">
        <ele>1274.973</ele>
        <time>2012-01-29T12:58:41Z</time>
      </trkpt>
      <trkpt lat="43.74653" lon="6.95687">
        <ele>1272.041</ele>
        <time>2012-01-29T12:58:50Z</time>
      </trkpt>
      <trkpt lat="43.74644" lon="6.95691">
        <ele>1269.151</ele>
        <time>2012-01-29T12:58:58Z</time>
      </trkpt>
      <trkpt lat="43.74643" lon="6.95692">
        <ele>1268.803</ele>
        <time>2012-01-29T12:59:03Z</time>
      </trkpt>
      <trkpt lat="43.7464" lon="6.95693">
        <ele>1267.233</ele>
        <time>2012-01-29T13:00:31Z</time>
      </trkpt>
      <trkpt lat="43.74638" lon="6.95695">
        <ele>1266.883</ele>
        <time>2012-01-29T13:00:37Z</time>
      </trkpt>
      <trkpt lat="43.74636" lon="6.95699">
        <ele>1266.612</ele>
        <time>2012-01-29T13:01:04Z</time>
      </trkpt>
      <trkpt lat="43.74627" lon="6.95705">
        <ele>1264.041</ele>
        <time>2012-01-29T13:01:13Z</time>
      </trkpt>
      <trkpt lat="43.74621" lon="6.95713">
        <ele>1261.451</ele>
        <time>2012-01-29T13:01:21Z</time>
      </trkpt>
      <trkpt lat="43.74617" lon="6.95717">
        <ele>1260.191</ele>
        <time>2012-01-29T13:01:25Z</time>
      </trkpt>
      <trkpt lat="43.74614" lon="6.95726">
        <ele>1257.491</ele>
        <time>2012-01-29T13:01:32Z</time>
      </trkpt>
      <trkpt lat="43.74611" lon="6.95735">
        <ele>1255.732</ele>
        <time>2012-01-29T13:01:39Z</time>
      </trkpt>
      <trkpt lat="43.74608" lon="6.95742">
        <ele>1254.012</ele>
        <time>2012-01-29T13:01:45Z</time>
      </trkpt>
      <trkpt lat="43.74603" lon="6.95751">
        <ele>1253.132</ele>
        <time>2012-01-29T13:01:51Z</time>
      </trkpt>
      <trkpt lat="43.7459" lon="6.95758">
        <ele>1253.853</ele>
        <time>2012-01-29T13:02:02Z</time>
      </trkpt>
      <trkpt lat="43.74585" lon="6.95765">
        <ele>1254.463</ele>
        <time>2012-01-29T13:02:09Z</time>
      </trkpt>
      <trkpt lat="43.74581" lon="6.9577">
        <ele>1253.812</ele>
        <time>2012-01-29T13:02:15Z</time>
      </trkpt>
      <trkpt lat="43.7458" lon="6.95774">
        <ele>1252.312</ele>
        <time>2012-01-29T13:02:22Z</time>
      </trkpt>
      <trkpt lat="43.74581" lon="6.95778">
        <ele>1250.912</ele>
        <time>2012-01-29T13:02:28Z</time>
      </trkpt>
      <trkpt lat="43.74581" lon="6.95781">
        <ele>1249.382</ele>
        <time>2012-01-29T13:02:34Z</time>
      </trkpt>
      <trkpt lat="43.74578" lon="6.95784">
        <ele>1249.123</ele>
        <time>2012-01-29T13:02:41Z</time>
      </trkpt>
      <trkpt lat="43.74577" lon="6.95788">
        <ele>1250.483</ele>
        <time>2012-01-29T13:02:48Z</time>
      </trkpt>
      <trkpt lat="43.74576" lon="6.95789">
        <ele>1251.265</ele>
        <time>2012-01-29T13:02:50Z</time>
      </trkpt>
      <trkpt lat="43.74574" lon="6.95791">
        <ele>1252.274</ele>
        <time>2012-01-29T13:02:54Z</time>
      </trkpt>
      <trkpt lat="43.74575" lon="6.95793">
        <ele>1253.214</ele>
        <time>2012-01-29T13:03:00Z</time>
      </trkpt>
      <trkpt lat="43.74576" lon="6.95798">
        <ele>1254.074</ele>
        <time>2012-01-29T13:03:05Z</time>
      </trkpt>
      <trkpt lat="43.74577" lon="6.958">
        <ele>1253.793</ele>
        <time>2012-01-29T13:03:12Z</time>
      </trkpt>
      <trkpt lat="43.74578" lon="6.95804">
        <ele>1254.904</ele>
        <time>2012-01-29T13:03:21Z</time>
      </trkpt>
      <trkpt lat="43.74581" lon="6.95812">
        <ele>1256.644</ele>
        <time>2012-01-29T13:03:30Z</time>
      </trkpt>
      <trkpt lat="43.7458" lon="6.95815">
        <ele>1257.564</ele>
        <time>2012-01-29T13:03:34Z</time>
      </trkpt>
      <trkpt lat="43.74573" lon="6.9582">
        <ele>1258.103</ele>
        <time>2012-01-29T13:03:42Z</time>
      </trkpt>
      <trkpt lat="43.74565" lon="6.95821">
        <ele>1257.763</ele>
        <time>2012-01-29T13:03:51Z</time>
      </trkpt>
      <trkpt lat="43.74565" lon="6.95821">
        <ele>1257.482</ele>
        <time>2012-01-29T13:03:56Z</time>
      </trkpt>
      <trkpt lat="43.74561" lon="6.9582">
        <ele>1261.093</ele>
        <time>2012-01-29T13:04:22Z</time>
      </trkpt>
      <trkpt lat="43.74555" lon="6.95817">
        <ele>1260.423</ele>
        <time>2012-01-29T13:04:29Z</time>
      </trkpt>
      <trkpt lat="43.7455" lon="6.95815">
        <ele>1260.445</ele>
        <time>2012-01-29T13:04:35Z</time>
      </trkpt>
      <trkpt lat="43.74545" lon="6.95813">
        <ele>1260.574</ele>
        <time>2012-01-29T13:04:44Z</time>
      </trkpt>
      <trkpt lat="43.74542" lon="6.95813">
        <ele>1260.823</ele>
        <time>2012-01-29T13:04:50Z</time>
      </trkpt>
      <trkpt lat="43.74539" lon="6.95813">
        <ele>1261.473</ele>
        <time>2012-01-29T13:04:57Z</time>
      </trkpt>
      <trkpt lat="43.74539" lon="6.95809">
        <ele>1261.043</ele>
        <time>2012-01-29T13:05:02Z</time>
      </trkpt>
      <trkpt lat="43.74535" lon="6.95806">
        <ele>1261.614</ele>
        <time>2012-01-29T13:05:09Z</time>
      </trkpt>
      <trkpt lat="43.74532" lon="6.95808">
        <ele>1261.633</ele>
        <time>2012-01-29T13:05:15Z</time>
      </trkpt>
      <trkpt lat="43.74528" lon="6.95816">
        <ele>1261.792</ele>
        <time>2012-01-29T13:05:25Z</time>
      </trkpt>
      <trkpt lat="43.74527" lon="6.95819">
        <ele>1261.353</ele>
        <time>2012-01-29T13:05:31Z</time>
      </trkpt>
      <trkpt lat="43.74525" lon="6.95822">
        <ele>1261.283</ele>
        <time>2012-01-29T13:05:34Z</time>
      </trkpt>
      <trkpt lat="43.74522" lon="6.95829">
        <ele>1260.922</ele>
        <time>2012-01-29T13:05:41Z</time>
      </trkpt>
      <trkpt lat="43.74518" lon="6.95838">
        <ele>1258.701</ele>
        <time>2012-01-29T13:05:50Z</time>
      </trkpt>
      <trkpt lat="43.74514" lon="6.95843">
        <ele>1258.062</ele>
        <time>2012-01-29T13:05:56Z</time>
      </trkpt>
      <trkpt lat="43.7451" lon="6.95846">
        <ele>1257.083</ele>
        <time>2012-01-29T13:06:03Z</time>
      </trkpt>
      <trkpt lat="43.74508" lon="6.95846">
        <ele>1256.752</ele>
        <time>2012-01-29T13:06:08Z</time>
      </trkpt>
      <trkpt lat="43.74506" lon="6.95847">
        <ele>1256.152</ele>
        <time>2012-01-29T13:06:13Z</time>
      </trkpt>
      <trkpt lat="43.74501" lon="6.95847">
        <ele>1254.673</ele>
        <time>2012-01-29T13:06:24Z</time>
      </trkpt>
      <trkpt lat="43.74498" lon="6.95848">
        <ele>1254.013</ele>
        <time>2012-01-29T13:06:30Z</time>
      </trkpt>
      <trkpt lat="43.74495" lon="6.9585">
        <ele>1253.773</ele>
        <time>2012-01-29T13:06:35Z</time>
      </trkpt>
      <trkpt lat="43.74489" lon="6.95852">
        <ele>1253.623</ele>
        <time>2012-01-29T13:06:43Z</time>
      </trkpt>
      <trkpt lat="43.74488" lon="6.95851">
        <ele>1253.853</ele>
        <time>2012-01-29T13:06:45Z</time>
      </trkpt>
      <trkpt lat="43.74485" lon="6.95849">
        <ele>1254.733</ele>
        <time>2012-01-29T13:06:49Z</time>
      </trkpt>
      <trkpt lat="43.7448" lon="6.95851">
        <ele>1255.994</ele>
        <time>2012-01-29T13:06:56Z</time>
      </trkpt>
      <trkpt lat="43.74477" lon="6.95857">
        <ele>1256.013</ele>
        <time>2012-01-29T13:07:04Z</time>
      </trkpt>
      <trkpt lat="43.74474" lon="6.95864">
        <ele>1254.332</ele>
        <time>2012-01-29T13:07:11Z</time>
      </trkpt>
      <trkpt lat="43.74469" lon="6.95874">
        <ele>1252.231</ele>
        <time>2012-01-29T13:07:18Z</time>
      </trkpt>
      <trkpt lat="43.74468" lon="6.95876">
        <ele>1251.873</ele>
        <time>2012-01-29T13:07:24Z</time>
      </trkpt>
      <trkpt lat="43.74468" lon="6.95876">
        <ele>1251.823</ele>
        <time>2012-01-29T13:07:25Z</time>
      </trkpt>
      <trkpt lat="43.74463" lon="6.95885">
        <ele>1250.992</ele>
        <time>2012-01-29T13:07:33Z</time>
      </trkpt>
      <trkpt lat="43.74459" lon="6.959">
        <ele>1249.922</ele>
        <time>2012-01-29T13:07:43Z</time>
      </trkpt>
      <trkpt lat="43.74457" lon="6.95915">
        <ele>1247.723</ele>
        <time>2012-01-29T13:07:52Z</time>
      </trkpt>
      <trkpt lat="43.74457" lon="6.95926">
        <ele>1247.073</ele>
        <time>2012-01-29T13:08:00Z</time>
      </trkpt>
      <trkpt lat="43.74458" lon="6.95937">
        <ele>1246.742</ele>
        <time>2012-01-29T13:08:08Z</time>
      </trkpt>
      <trkpt lat="43.74457" lon="6.9594">
        <ele>1246.302</ele>
        <time>2012-01-29T13:08:10Z</time>
      </trkpt>
      <trkpt lat="43.74462" lon="6.95946">
        <ele>1246.283</ele>
        <time>2012-01-29T13:08:16Z</time>
      </trkpt>
      <trkpt lat="43.74463" lon="6.95958">
        <ele>1245.862</ele>
        <time>2012-01-29T13:08:24Z</time>
      </trkpt>
      <trkpt lat="43.74463" lon="6.95967">
        <ele>1245.062</ele>
        <time>2012-01-29T13:08:32Z</time>
      </trkpt>
      <trkpt lat="43.74462" lon="6.95967">
        <ele>1245.102</ele>
        <time>2012-01-29T13:08:33Z</time>
      </trkpt>
      <trkpt lat="43.74459" lon="6.95971">
        <ele>1244.972</ele>
        <time>2012-01-29T13:08:38Z</time>
      </trkpt>
      <trkpt lat="43.74457" lon="6.95981">
        <ele>1243.182</ele>
        <time>2012-01-29T13:08:45Z</time>
      </trkpt>
      <trkpt lat="43.74458" lon="6.95987">
        <ele>1243.033</ele>
        <time>2012-01-29T13:08:52Z</time>
      </trkpt>
      <trkpt lat="43.74457" lon="6.95992">
        <ele>1242.952</ele>
        <time>2012-01-29T13:09:38Z</time>
      </trkpt>
      <trkpt lat="43.7446" lon="6.96002">
        <ele>1242.413</ele>
        <time>2012-01-29T13:09:45Z</time>
      </trkpt>
      <trkpt lat="43.7446" lon="6.96004">
        <ele>1241.723</ele>
        <time>2012-01-29T13:09:51Z</time>
      </trkpt>
      <trkpt lat="43.7446" lon="6.96011">
        <ele>1240.272</ele>
        <time>2012-01-29T13:10:06Z</time>
      </trkpt>
      <trkpt lat="43.74463" lon="6.96026">
        <ele>1239.903</ele>
        <time>2012-01-29T13:10:15Z</time>
      </trkpt>
      <trkpt lat="43.74465" lon="6.96039">
        <ele>1239.042</ele>
        <time>2012-01-29T13:10:23Z</time>
      </trkpt>
      <trkpt lat="43.74469" lon="6.96053">
        <ele>1237.441</ele>
        <time>2012-01-29T13:10:31Z</time>
      </trkpt>
      <trkpt lat="43.7447" lon="6.96062">
        <ele>1236.552</ele>
        <time>2012-01-29T13:10:37Z</time>
      </trkpt>
      <trkpt lat="43.74472" lon="6.96079">
        <ele>1236.273</ele>
        <time>2012-01-29T13:10:48Z</time>
      </trkpt>
      <trkpt lat="43.74475" lon="6.96086">
        <ele>1236.073</ele>
        <time>2012-01-29T13:10:55Z</time>
      </trkpt>
      <trkpt lat="43.74475" lon="6.96085">
        <ele>1235.883</ele>
        <time>2012-01-29T13:11:32Z</time>
      </trkpt>
      <trkpt lat="43.74472" lon="6.96096">
        <ele>1234.253</ele>
        <time>2012-01-29T13:11:41Z</time>
      </trkpt>
      <trkpt lat="43.7447" lon="6.9611">
        <ele>1233.483</ele>
        <time>2012-01-29T13:11:49Z</time>
      </trkpt>
      <trkpt lat="43.7447" lon="6.96114">
        <ele>1233.042</ele>
        <time>2012-01-29T13:11:52Z</time>
      </trkpt>
      <trkpt lat="43.74472" lon="6.96124">
        <ele>1232.633</ele>
        <time>2012-01-29T13:12:00Z</time>
      </trkpt>
      <trkpt lat="43.74471" lon="6.96125">
        <ele>1233.213</ele>
        <time>2012-01-29T13:12:07Z</time>
      </trkpt>
      <trkpt lat="43.74472" lon="6.96131">
        <ele>1232.443</ele>
        <time>2012-01-29T13:12:17Z</time>
      </trkpt>
      <trkpt lat="43.74472" lon="6.96142">
        <ele>1231.563</ele>
        <time>2012-01-29T13:12:25Z</time>
      </trkpt>
      <trkpt lat="43.74472" lon="6.96156">
        <ele>1229.442</ele>
        <time>2012-01-29T13:12:34Z</time>
      </trkpt>
      <trkpt lat="43.74472" lon="6.96173">
        <ele>1227.202</ele>
        <time>2012-01-29T13:12:44Z</time>
      </trkpt>
      <trkpt lat="43.74474" lon="6.96191">
        <ele>1225.322</ele>
        <time>2012-01-29T13:12:54Z</time>
      </trkpt>
      <trkpt lat="43.74476" lon="6.96202">
        <ele>1224.773</ele>
        <time>2012-01-29T13:13:01Z</time>
      </trkpt>
      <trkpt lat="43.7448" lon="6.96217">
        <ele>1223.232</ele>
        <time>2012-01-29T13:13:11Z</time>
      </trkpt>
      <trkpt lat="43.74483" lon="6.96221">
        <ele>1222.853</ele>
        <time>2012-01-29T13:13:16Z</time>
      </trkpt>
      <trkpt lat="43.74484" lon="6.96224">
        <ele>1222.783</ele>
        <time>2012-01-29T13:13:22Z</time>
      </trkpt>
      <trkpt lat="43.74485" lon="6.96228">
        <ele>1223.533</ele>
        <time>2012-01-29T13:13:26Z</time>
      </trkpt>
      <trkpt lat="43.74484" lon="6.96234">
        <ele>1222.963</ele>
        <time>2012-01-29T13:13:33Z</time>
      </trkpt>
      <trkpt lat="43.74483" lon="6.96244">
        <ele>1221.783</ele>
        <time>2012-01-29T13:13:42Z</time>
      </trkpt>
      <trkpt lat="43.74483" lon="6.96249">
        <ele>1221.203</ele>
        <time>2012-01-29T13:13:47Z</time>
      </trkpt>
      <trkpt lat="43.74482" lon="6.96257">
        <ele>1220.883</ele>
        <time>2012-01-29T13:13:55Z</time>
      </trkpt>
      <trkpt lat="43.74483" lon="6.96261">
        <ele>1221.123</ele>
        <time>2012-01-29T13:14:00Z</time>
      </trkpt>
      <trkpt lat="43.74482" lon="6.96267">
        <ele>1220.594</ele>
        <time>2012-01-29T13:14:06Z</time>
      </trkpt>
      <trkpt lat="43.74475" lon="6.9628">
        <ele>1219.744</ele>
        <time>2012-01-29T13:14:17Z</time>
      </trkpt>
      <trkpt lat="43.7447" lon="6.96289">
        <ele>1219.624</ele>
        <time>2012-01-29T13:14:25Z</time>
      </trkpt>
      <trkpt lat="43.74463" lon="6.96301">
        <ele>1219.764</ele>
        <time>2012-01-29T13:14:35Z</time>
      </trkpt>
      <trkpt lat="43.7446" lon="6.96312">
        <ele>1219.444</ele>
        <time>2012-01-29T13:14:43Z</time>
      </trkpt>
      <trkpt lat="43.74458" lon="6.96324">
        <ele>1219.104</ele>
        <time>2012-01-29T13:14:51Z</time>
      </trkpt>
      <trkpt lat="43.74456" lon="6.96334">
        <ele>1219.484</ele>
        <time>2012-01-29T13:15:00Z</time>
      </trkpt>
      <trkpt lat="43.74454" lon="6.96344">
        <ele>1219.744</ele>
        <time>2012-01-29T13:15:08Z</time>
      </trkpt>
      <trkpt lat="43.74451" lon="6.96351">
        <ele>1220.494</ele>
        <time>2012-01-29T13:15:17Z</time>
      </trkpt>
      <trkpt lat="43.74449" lon="6.96354">
        <ele>1222.344</ele>
        <time>2012-01-29T13:15:54Z</time>
      </trkpt>
      <trkpt lat="43.74446" lon="6.9636">
        <ele>1222.204</ele>
        <time>2012-01-29T13:16:02Z</time>
      </trkpt>
      <trkpt lat="43.74443" lon="6.96369">
        <ele>1222.384</ele>
        <time>2012-01-29T13:16:09Z</time>
      </trkpt>
      <trkpt lat="43.74441" lon="6.9638">
        <ele>1222.724</ele>
        <time>2012-01-29T13:16:18Z</time>
      </trkpt>
      <trkpt lat="43.74438" lon="6.96385">
        <ele>1223.024</ele>
        <time>2012-01-29T13:16:25Z</time>
      </trkpt>
      <trkpt lat="43.74438" lon="6.96386">
        <ele>1223.345</ele>
        <time>2012-01-29T13:16:28Z</time>
      </trkpt>
      <trkpt lat="43.74435" lon="6.96395">
        <ele>1223.154</ele>
        <time>2012-01-29T13:16:38Z</time>
      </trkpt>
      <trkpt lat="43.74435" lon="6.96396">
        <ele>1222.964</ele>
        <time>2012-01-29T13:16:41Z</time>
      </trkpt>
      <trkpt lat="43.74435" lon="6.96399">
        <ele>1222.794</ele>
        <time>2012-01-29T13:16:45Z</time>
      </trkpt>
      <trkpt lat="43.74431" lon="6.96404">
        <ele>1222.684</ele>
        <time>2012-01-29T13:16:53Z</time>
      </trkpt>
      <trkpt lat="43.74431" lon="6.96403">
        <ele>1222.474</ele>
        <time>2012-01-29T13:17:21Z</time>
      </trkpt>
      <trkpt lat="43.74423" lon="6.9641">
        <ele>1223.934</ele>
        <time>2012-01-29T13:17:29Z</time>
      </trkpt>
      <trkpt lat="43.74417" lon="6.96417">
        <ele>1224.704</ele>
        <time>2012-01-29T13:17:37Z</time>
      </trkpt>
      <trkpt lat="43.74411" lon="6.96428">
        <ele>1224.804</ele>
        <time>2012-01-29T13:17:47Z</time>
      </trkpt>
      <trkpt lat="43.74405" lon="6.9644">
        <ele>1224.784</ele>
        <time>2012-01-29T13:17:57Z</time>
      </trkpt>
      <trkpt lat="43.74402" lon="6.96446">
        <ele>1224.544</ele>
        <time>2012-01-29T13:18:04Z</time>
      </trkpt>
      <trkpt lat="43.74401" lon="6.96447">
        <ele>1224.943</ele>
        <time>2012-01-29T13:18:30Z</time>
      </trkpt>
      <trkpt lat="43.74402" lon="6.96448">
        <ele>1223.364</ele>
        <time>2012-01-29T13:18:39Z</time>
      </trkpt>
      <trkpt lat="43.74398" lon="6.96453">
        <ele>1222.404</ele>
        <time>2012-01-29T13:21:48Z</time>
      </trkpt>
      <trkpt lat="43.74392" lon="6.96461">
        <ele>1221.523</ele>
        <time>2012-01-29T13:21:54Z</time>
      </trkpt>
      <trkpt lat="43.74389" lon="6.96463">
        <ele>1221.193</ele>
        <time>2012-01-29T13:21:56Z</time>
      </trkpt>
      <trkpt lat="43.74384" lon="6.96474">
        <ele>1219.983</ele>
        <time>2012-01-29T13:22:04Z</time>
      </trkpt>
      <trkpt lat="43.74381" lon="6.96481">
        <ele>1219.174</ele>
        <time>2012-01-29T13:22:11Z</time>
      </trkpt>
      <trkpt lat="43.74377" lon="6.9649">
        <ele>1216.163</ele>
        <time>2012-01-29T13:22:20Z</time>
      </trkpt>
      <trkpt lat="43.74374" lon="6.96497">
        <ele>1213.993</ele>
        <time>2012-01-29T13:22:27Z</time>
      </trkpt>
      <trkpt lat="43.7437" lon="6.96508">
        <ele>1212.003</ele>
        <time>2012-01-29T13:22:36Z</time>
      </trkpt>
      <trkpt lat="43.74367" lon="6.96521">
        <ele>1210.853</ele>
        <time>2012-01-29T13:22:46Z</time>
      </trkpt>
      <trkpt lat="43.74362" lon="6.96534">
        <ele>1209.363</ele>
        <time>2012-01-29T13:22:55Z</time>
      </trkpt>
      <trkpt lat="43.74359" lon="6.96547">
        <ele>1207.409</ele>
        <time>2012-01-29T13:23:04Z</time>
      </trkpt>
      <trkpt lat="43.74356" lon="6.96558">
        <ele>1206.303</ele>
        <time>2012-01-29T13:23:12Z</time>
      </trkpt>
      <trkpt lat="43.74353" lon="6.96568">
        <ele>1205.013</ele>
        <time>2012-01-29T13:23:20Z</time>
      </trkpt>
      <trkpt lat="43.7435" lon="6.96581">
        <ele>1204.274</ele>
        <time>2012-01-29T13:23:29Z</time>
      </trkpt>
      <trkpt lat="43.74347" lon="6.96594">
        <ele>1204.514</ele>
        <time>2012-01-29T13:23:38Z</time>
      </trkpt>
      <trkpt lat="43.74343" lon="6.96605">
        <ele>1203.794</ele>
        <time>2012-01-29T13:23:47Z</time>
      </trkpt>
      <trkpt lat="43.74341" lon="6.96614">
        <ele>1203.514</ele>
        <time>2012-01-29T13:23:54Z</time>
      </trkpt>
      <trkpt lat="43.74339" lon="6.96619">
        <ele>1203.054</ele>
        <time>2012-01-29T13:24:00Z</time>
      </trkpt>
      <trkpt lat="43.74334" lon="6.96631">
        <ele>1202.894</ele>
        <time>2012-01-29T13:24:07Z</time>
      </trkpt>
      <trkpt lat="43.74331" lon="6.96631">
        <ele>1203.555</ele>
        <time>2012-01-29T13:24:13Z</time>
      </trkpt>
      <trkpt lat="43.74331" lon="6.96632">
        <ele>1203.995</ele>
        <time>2012-01-29T13:24:15Z</time>
      </trkpt>
      <trkpt lat="43.74331" lon="6.96636">
        <ele>1203.784</ele>
        <time>2012-01-29T13:24:21Z</time>
      </trkpt>
      <trkpt lat="43.74331" lon="6.96636">
        <ele>1204.214</ele>
        <time>2012-01-29T13:24:27Z</time>
      </trkpt>
      <trkpt lat="43.74328" lon="6.96642">
        <ele>1204.574</ele>
        <time>2012-01-29T13:24:33Z</time>
      </trkpt>
      <trkpt lat="43.74326" lon="6.96646">
        <ele>1205.094</ele>
        <time>2012-01-29T13:24:39Z</time>
      </trkpt>
      <trkpt lat="43.74325" lon="6.96656">
        <ele>1205.374</ele>
        <time>2012-01-29T13:24:47Z</time>
      </trkpt>
      <trkpt lat="43.74325" lon="6.96666">
        <ele>1205.344</ele>
        <time>2012-01-29T13:24:55Z</time>
      </trkpt>
      <trkpt lat="43.74324" lon="6.96672">
        <ele>1205.104</ele>
        <time>2012-01-29T13:24:59Z</time>
      </trkpt>
      <trkpt lat="43.74323" lon="6.96685">
        <ele>1205.504</ele>
        <time>2012-01-29T13:25:06Z</time>
      </trkpt>
      <trkpt lat="43.74321" lon="6.96701">
        <ele>1205.514</ele>
        <time>2012-01-29T13:25:16Z</time>
      </trkpt>
      <trkpt lat="43.7432" lon="6.96714">
        <ele>1204.354</ele>
        <time>2012-01-29T13:25:25Z</time>
      </trkpt>
      <trkpt lat="43.7432" lon="6.96728">
        <ele>1202.714</ele>
        <time>2012-01-29T13:25:34Z</time>
      </trkpt>
      <trkpt lat="43.74321" lon="6.96735">
        <ele>1201.655</ele>
        <time>2012-01-29T13:25:42Z</time>
      </trkpt>
      <trkpt lat="43.74319" lon="6.96742">
        <ele>1202.104</ele>
        <time>2012-01-29T13:25:51Z</time>
      </trkpt>
      <trkpt lat="43.74319" lon="6.96749">
        <ele>1201.394</ele>
        <time>2012-01-29T13:25:56Z</time>
      </trkpt>
      <trkpt lat="43.74319" lon="6.96755">
        <ele>1200.984</ele>
        <time>2012-01-29T13:26:02Z</time>
      </trkpt>
      <trkpt lat="43.74319" lon="6.96765">
        <ele>1200.013</ele>
        <time>2012-01-29T13:26:08Z</time>
      </trkpt>
      <trkpt lat="43.74315" lon="6.96784">
        <ele>1197.172</ele>
        <time>2012-01-29T13:26:14Z</time>
      </trkpt>
      <trkpt lat="43.74317" lon="6.96796">
        <ele>1196.023</ele>
        <time>2012-01-29T13:26:19Z</time>
      </trkpt>
      <trkpt lat="43.74314" lon="6.96805">
        <ele>1194.613</ele>
        <time>2012-01-29T13:26:23Z</time>
      </trkpt>
      <trkpt lat="43.7431" lon="6.96821">
        <ele>1193.313</ele>
        <time>2012-01-29T13:26:30Z</time>
      </trkpt>
      <trkpt lat="43.74309" lon="6.96828">
        <ele>1192.974</ele>
        <time>2012-01-29T13:26:38Z</time>
      </trkpt>
      <trkpt lat="43.74306" lon="6.96838">
        <ele>1190.662</ele>
        <time>2012-01-29T13:26:45Z</time>
      </trkpt>
      <trkpt lat="43.74306" lon="6.96839">
        <ele>1190.285</ele>
        <time>2012-01-29T13:26:50Z</time>
      </trkpt>
      <trkpt lat="43.74306" lon="6.96846">
        <ele>1188.954</ele>
        <time>2012-01-29T13:26:57Z</time>
      </trkpt>
      <trkpt lat="43.74306" lon="6.96847">
        <ele>1188.513</ele>
        <time>2012-01-29T13:26:59Z</time>
      </trkpt>
      <trkpt lat="43.74306" lon="6.96849">
        <ele>1188.024</ele>
        <time>2012-01-29T13:27:01Z</time>
      </trkpt>
      <trkpt lat="43.74303" lon="6.96855">
        <ele>1186.462</ele>
        <time>2012-01-29T13:27:05Z</time>
      </trkpt>
      <trkpt lat="43.74298" lon="6.96873">
        <ele>1182.401</ele>
        <time>2012-01-29T13:27:13Z</time>
      </trkpt>
      <trkpt lat="43.74299" lon="6.96886">
        <ele>1180.982</ele>
        <time>2012-01-29T13:27:17Z</time>
      </trkpt>
      <trkpt lat="43.74298" lon="6.96891">
        <ele>1180.152</ele>
        <time>2012-01-29T13:27:19Z</time>
      </trkpt>
      <trkpt lat="43.743" lon="6.96903">
        <ele>1178.612</ele>
        <time>2012-01-29T13:27:23Z</time>
      </trkpt>
      <trkpt lat="43.74302" lon="6.9691">
        <ele>1177.742</ele>
        <time>2012-01-29T13:27:25Z</time>
      </trkpt>
      <trkpt lat="43.74304" lon="6.96927">
        <ele>1174.962</ele>
        <time>2012-01-29T13:27:32Z</time>
      </trkpt>
      <trkpt lat="43.74306" lon="6.96943">
        <ele>1173.422</ele>
        <time>2012-01-29T13:27:37Z</time>
      </trkpt>
      <trkpt lat="43.74307" lon="6.9696">
        <ele>1171.251</ele>
        <time>2012-01-29T13:27:42Z</time>
      </trkpt>
      <trkpt lat="43.74305" lon="6.96974">
        <ele>1169.893</ele>
        <time>2012-01-29T13:27:47Z</time>
      </trkpt>
      <trkpt lat="43.74304" lon="6.96979">
        <ele>1169.965</ele>
        <time>2012-01-29T13:27:52Z</time>
      </trkpt>
      <trkpt lat="43.74303" lon="6.96985">
        <ele>1168.704</ele>
        <time>2012-01-29T13:28:00Z</time>
      </trkpt>
      <trkpt lat="43.74304" lon="6.96988">
        <ele>1166.805</ele>
        <time>2012-01-29T13:28:07Z</time>
      </trkpt>
      <trkpt lat="43.74304" lon="6.96991">
        <ele>1164.564</ele>
        <time>2012-01-29T13:28:31Z</time>
      </trkpt>
      <trkpt lat="43.74306" lon="6.96995">
        <ele>1163.204</ele>
        <time>2012-01-29T13:28:37Z</time>
      </trkpt>
      <trkpt lat="43.74306" lon="6.96998">
        <ele>1161.675</ele>
        <time>2012-01-29T13:28:45Z</time>
      </trkpt>
      <trkpt lat="43.74305" lon="6.97003">
        <ele>1159.333</ele>
        <time>2012-01-29T13:28:54Z</time>
      </trkpt>
      <trkpt lat="43.74305" lon="6.97007">
        <ele>1157.604</ele>
        <time>2012-01-29T13:28:59Z</time>
      </trkpt>
      <trkpt lat="43.74304" lon="6.97015">
        <ele>1155.853</ele>
        <time>2012-01-29T13:29:08Z</time>
      </trkpt>
      <trkpt lat="43.743" lon="6.97025">
        <ele>1155.002</ele>
        <time>2012-01-29T13:29:12Z</time>
      </trkpt>
      <trkpt lat="43.74301" lon="6.97039">
        <ele>1153.273</ele>
        <time>2012-01-29T13:29:17Z</time>
      </trkpt>
      <trkpt lat="43.74301" lon="6.97043">
        <ele>1152.634</ele>
        <time>2012-01-29T13:29:22Z</time>
      </trkpt>
      <trkpt lat="43.74302" lon="6.97046">
        <ele>1152.195</ele>
        <time>2012-01-29T13:29:25Z</time>
      </trkpt>
      <trkpt lat="43.74303" lon="6.97051">
        <ele>1150.464</ele>
        <time>2012-01-29T13:29:32Z</time>
      </trkpt>
      <trkpt lat="43.74303" lon="6.97052">
        <ele>1150.124</ele>
        <time>2012-01-29T13:29:33Z</time>
      </trkpt>
      <trkpt lat="43.74303" lon="6.97055">
        <ele>1149.144</ele>
        <time>2012-01-29T13:29:36Z</time>
      </trkpt>
      <trkpt lat="43.74304" lon="6.97062">
        <ele>1147.264</ele>
        <time>2012-01-29T13:29:44Z</time>
      </trkpt>
      <trkpt lat="43.74305" lon="6.97066">
        <ele>1147.544</ele>
        <time>2012-01-29T13:29:52Z</time>
      </trkpt>
      <trkpt lat="43.74305" lon="6.9707">
        <ele>1146.814</ele>
        <time>2012-01-29T13:29:56Z</time>
      </trkpt>
      <trkpt lat="43.74306" lon="6.97072">
        <ele>1146.104</ele>
        <time>2012-01-29T13:29:58Z</time>
      </trkpt>
      <trkpt lat="43.74307" lon="6.97076">
        <ele>1143.125</ele>
        <time>2012-01-29T13:30:07Z</time>
      </trkpt>
      <trkpt lat="43.74306" lon="6.97078">
        <ele>1142.145</ele>
        <time>2012-01-29T13:30:13Z</time>
      </trkpt>
      <trkpt lat="43.74307" lon="6.9708">
        <ele>1141.854</ele>
        <time>2012-01-29T13:30:20Z</time>
      </trkpt>
      <trkpt lat="43.74307" lon="6.97084">
        <ele>1141.424</ele>
        <time>2012-01-29T13:30:27Z</time>
      </trkpt>
      <trkpt lat="43.74307" lon="6.97085">
        <ele>1141.144</ele>
        <time>2012-01-29T13:30:28Z</time>
      </trkpt>
      <trkpt lat="43.74307" lon="6.97089">
        <ele>1139.474</ele>
        <time>2012-01-29T13:30:34Z</time>
      </trkpt>
      <trkpt lat="43.74307" lon="6.97092">
        <ele>1138.775</ele>
        <time>2012-01-29T13:30:39Z</time>
      </trkpt>
      <trkpt lat="43.74304" lon="6.97095">
        <ele>1139.215</ele>
        <time>2012-01-29T13:30:46Z</time>
      </trkpt>
      <trkpt lat="43.74304" lon="6.97096">
        <ele>1139.166</ele>
        <time>2012-01-29T13:30:51Z</time>
      </trkpt>
      <trkpt lat="43.74303" lon="6.971">
        <ele>1137.804</ele>
        <time>2012-01-29T13:30:56Z</time>
      </trkpt>
      <trkpt lat="43.74302" lon="6.97103">
        <ele>1135.604</ele>
        <time>2012-01-29T13:31:02Z</time>
      </trkpt>
      <trkpt lat="43.74302" lon="6.97105">
        <ele>1134.734</ele>
        <time>2012-01-29T13:31:05Z</time>
      </trkpt>
      <trkpt lat="43.74302" lon="6.97112">
        <ele>1132.924</ele>
        <time>2012-01-29T13:31:12Z</time>
      </trkpt>
      <trkpt lat="43.743" lon="6.97114">
        <ele>1132.565</ele>
        <time>2012-01-29T13:31:17Z</time>
      </trkpt>
      <trkpt lat="43.74301" lon="6.97118">
        <ele>1131.474</ele>
        <time>2012-01-29T13:31:22Z</time>
      </trkpt>
      <trkpt lat="43.74301" lon="6.97123">
        <ele>1130.375</ele>
        <time>2012-01-29T13:31:29Z</time>
      </trkpt>
      <trkpt lat="43.74301" lon="6.97127">
        <ele>1130.344</ele>
        <time>2012-01-29T13:31:35Z</time>
      </trkpt>
      <trkpt lat="43.74298" lon="6.97131">
        <ele>1129.515</ele>
        <time>2012-01-29T13:31:42Z</time>
      </trkpt>
      <trkpt lat="43.74296" lon="6.97132">
        <ele>1128.195</ele>
        <time>2012-01-29T13:31:53Z</time>
      </trkpt>
      <trkpt lat="43.74294" lon="6.9714">
        <ele>1125.983</ele>
        <time>2012-01-29T13:32:00Z</time>
      </trkpt>
      <trkpt lat="43.74293" lon="6.97151">
        <ele>1124.043</ele>
        <time>2012-01-29T13:32:05Z</time>
      </trkpt>
      <trkpt lat="43.74293" lon="6.97154">
        <ele>1123.063</ele>
        <time>2012-01-29T13:32:10Z</time>
      </trkpt>
      <trkpt lat="43.7429" lon="6.97166">
        <ele>1120.963</ele>
        <time>2012-01-29T13:32:15Z</time>
      </trkpt>
      <trkpt lat="43.74288" lon="6.97178">
        <ele>1119.243</ele>
        <time>2012-01-29T13:32:21Z</time>
      </trkpt>
      <trkpt lat="43.74285" lon="6.97196">
        <ele>1116.812</ele>
        <time>2012-01-29T13:32:27Z</time>
      </trkpt>
      <trkpt lat="43.74283" lon="6.97212">
        <ele>1114.502</ele>
        <time>2012-01-29T13:32:32Z</time>
      </trkpt>
      <trkpt lat="43.74281" lon="6.97223">
        <ele>1112.384</ele>
        <time>2012-01-29T13:32:37Z</time>
      </trkpt>
      <trkpt lat="43.74281" lon="6.97223">
        <ele>1112.153</ele>
        <time>2012-01-29T13:32:38Z</time>
      </trkpt>
      <trkpt lat="43.74277" lon="6.97234">
        <ele>1111.484</ele>
        <time>2012-01-29T13:32:44Z</time>
      </trkpt>
      <trkpt lat="43.74276" lon="6.97236">
        <ele>1112.645</ele>
        <time>2012-01-29T13:32:48Z</time>
      </trkpt>
      <trkpt lat="43.74276" lon="6.97243">
        <ele>1113.385</ele>
        <time>2012-01-29T13:32:52Z</time>
      </trkpt>
      <trkpt lat="43.74276" lon="6.97251">
        <ele>1112.635</ele>
        <time>2012-01-29T13:32:58Z</time>
      </trkpt>
      <trkpt lat="43.74271" lon="6.97265">
        <ele>1111.956</ele>
        <time>2012-01-29T13:33:06Z</time>
      </trkpt>
      <trkpt lat="43.74261" lon="6.97274">
        <ele>1112.176</ele>
        <time>2012-01-29T13:33:15Z</time>
      </trkpt>
      <trkpt lat="43.74256" lon="6.97276">
        <ele>1111.786</ele>
        <time>2012-01-29T13:33:21Z</time>
      </trkpt>
      <trkpt lat="43.74251" lon="6.97279">
        <ele>1110.766</ele>
        <time>2012-01-29T13:33:30Z</time>
      </trkpt>
      <trkpt lat="43.7424" lon="6.97289">
        <ele>1109.475</ele>
        <time>2012-01-29T13:33:36Z</time>
      </trkpt>
      <trkpt lat="43.7423" lon="6.97306">
        <ele>1107.965</ele>
        <time>2012-01-29T13:33:43Z</time>
      </trkpt>
      <trkpt lat="43.74222" lon="6.97319">
        <ele>1108.144</ele>
        <time>2012-01-29T13:33:50Z</time>
      </trkpt>
      <trkpt lat="43.74214" lon="6.97334">
        <ele>1106.844</ele>
        <time>2012-01-29T13:33:55Z</time>
      </trkpt>
      <trkpt lat="43.7421" lon="6.97338">
        <ele>1106.485</ele>
        <time>2012-01-29T13:33:58Z</time>
      </trkpt>
      <trkpt lat="43.74207" lon="6.97354">
        <ele>1103.883</ele>
        <time>2012-01-29T13:34:04Z</time>
      </trkpt>
      <trkpt lat="43.74203" lon="6.97368">
        <ele>1101.414</ele>
        <time>2012-01-29T13:34:09Z</time>
      </trkpt>
      <trkpt lat="43.74202" lon="6.97374">
        <ele>1100.233</ele>
        <time>2012-01-29T13:34:11Z</time>
      </trkpt>
      <trkpt lat="43.74198" lon="6.97397">
        <ele>1095.211</ele>
        <time>2012-01-29T13:34:18Z</time>
      </trkpt>
      <trkpt lat="43.74195" lon="6.97409">
        <ele>1093.192</ele>
        <time>2012-01-29T13:34:22Z</time>
      </trkpt>
      <trkpt lat="43.74187" lon="6.97422">
        <ele>1093.024</ele>
        <time>2012-01-29T13:34:27Z</time>
      </trkpt>
      <trkpt lat="43.74183" lon="6.97437">
        <ele>1093.295</ele>
        <time>2012-01-29T13:34:32Z</time>
      </trkpt>
      <trkpt lat="43.74177" lon="6.97453">
        <ele>1093.465</ele>
        <time>2012-01-29T13:34:38Z</time>
      </trkpt>
      <trkpt lat="43.74171" lon="6.9746">
        <ele>1093.876</ele>
        <time>2012-01-29T13:34:42Z</time>
      </trkpt>
      <trkpt lat="43.74164" lon="6.97477">
        <ele>1094.206</ele>
        <time>2012-01-29T13:34:49Z</time>
      </trkpt>
      <trkpt lat="43.74163" lon="6.97478">
        <ele>1094.846</ele>
        <time>2012-01-29T13:34:54Z</time>
      </trkpt>
      <trkpt lat="43.7416" lon="6.97483">
        <ele>1094.386</ele>
        <time>2012-01-29T13:35:06Z</time>
      </trkpt>
      <trkpt lat="43.74151" lon="6.97498">
        <ele>1095.296</ele>
        <time>2012-01-29T13:35:12Z</time>
      </trkpt>
      <trkpt lat="43.74146" lon="6.97511">
        <ele>1094.194</ele>
        <time>2012-01-29T13:35:16Z</time>
      </trkpt>
      <trkpt lat="43.74142" lon="6.9752">
        <ele>1093.253</ele>
        <time>2012-01-29T13:35:19Z</time>
      </trkpt>
      <trkpt lat="43.74136" lon="6.9753">
        <ele>1092.215</ele>
        <time>2012-01-29T13:35:23Z</time>
      </trkpt>
      <trkpt lat="43.74131" lon="6.97554">
        <ele>1091.666</ele>
        <time>2012-01-29T13:35:30Z</time>
      </trkpt>
      <trkpt lat="43.74128" lon="6.9756">
        <ele>1091.386</ele>
        <time>2012-01-29T13:35:35Z</time>
      </trkpt>
      <trkpt lat="43.74126" lon="6.97562">
        <ele>1090.436</ele>
        <time>2012-01-29T13:35:43Z</time>
      </trkpt>
      <trkpt lat="43.74124" lon="6.97567">
        <ele>1089.726</ele>
        <time>2012-01-29T13:35:52Z</time>
      </trkpt>
      <trkpt lat="43.74124" lon="6.97585">
        <ele>1089.186</ele>
        <time>2012-01-29T13:35:58Z</time>
      </trkpt>
      <trkpt lat="43.74122" lon="6.97603">
        <ele>1088.966</ele>
        <time>2012-01-29T13:36:04Z</time>
      </trkpt>
      <trkpt lat="43.74118" lon="6.9762">
        <ele>1086.804</ele>
        <time>2012-01-29T13:36:09Z</time>
      </trkpt>
      <trkpt lat="43.74111" lon="6.97632">
        <ele>1085.054</ele>
        <time>2012-01-29T13:36:13Z</time>
      </trkpt>
      <trkpt lat="43.74104" lon="6.97649">
        <ele>1082.393</ele>
        <time>2012-01-29T13:36:18Z</time>
      </trkpt>
      <trkpt lat="43.74098" lon="6.97673">
        <ele>1079.654</ele>
        <time>2012-01-29T13:36:24Z</time>
      </trkpt>
      <trkpt lat="43.74097" lon="6.97685">
        <ele>1077.943</ele>
        <time>2012-01-29T13:36:27Z</time>
      </trkpt>
      <trkpt lat="43.74092" lon="6.97689">
        <ele>1077.506</ele>
        <time>2012-01-29T13:36:32Z</time>
      </trkpt>
      <trkpt lat="43.74086" lon="6.97682">
        <ele>1077.796</ele>
        <time>2012-01-29T13:36:40Z</time>
      </trkpt>
      <trkpt lat="43.74086" lon="6.9768">
        <ele>1078.417</ele>
        <time>2012-01-29T13:36:47Z</time>
      </trkpt>
      <trkpt lat="43.74087" lon="6.97681">
        <ele>1079.237</ele>
        <time>2012-01-29T13:37:32Z</time>
      </trkpt>
      <trkpt lat="43.74085" lon="6.97683">
        <ele>1079.446</ele>
        <time>2012-01-29T13:37:38Z</time>
      </trkpt>
      <trkpt lat="43.74085" lon="6.97684">
        <ele>1079.146</ele>
        <time>2012-01-29T13:37:53Z</time>
      </trkpt>
      <trkpt lat="43.74076" lon="6.97671">
        <ele>1079.166</ele>
        <time>2012-01-29T13:37:59Z</time>
      </trkpt>
      <trkpt lat="43.74065" lon="6.9765">
        <ele>1078.595</ele>
        <time>2012-01-29T13:38:05Z</time>
      </trkpt>
      <trkpt lat="43.74052" lon="6.97633">
        <ele>1077.995</ele>
        <time>2012-01-29T13:38:11Z</time>
      </trkpt>
      <trkpt lat="43.74038" lon="6.97613">
        <ele>1077.996</ele>
        <time>2012-01-29T13:38:18Z</time>
      </trkpt>
      <trkpt lat="43.74022" lon="6.9759">
        <ele>1078.467</ele>
        <time>2012-01-29T13:38:26Z</time>
      </trkpt>
      <trkpt lat="43.74016" lon="6.97576">
        <ele>1077.827</ele>
        <time>2012-01-29T13:38:32Z</time>
      </trkpt>
      <trkpt lat="43.74008" lon="6.97554">
        <ele>1076.886</ele>
        <time>2012-01-29T13:38:40Z</time>
      </trkpt>
      <trkpt lat="43.74" lon="6.97529">
        <ele>1075.536</ele>
        <time>2012-01-29T13:38:48Z</time>
      </trkpt>
      <trkpt lat="43.73995" lon="6.97512">
        <ele>1073.875</ele>
        <time>2012-01-29T13:38:54Z</time>
      </trkpt>
      <trkpt lat="43.73991" lon="6.97497">
        <ele>1071.204</ele>
        <time>2012-01-29T13:38:59Z</time>
      </trkpt>
      <trkpt lat="43.73984" lon="6.97472">
        <ele>1066.432</ele>
        <time>2012-01-29T13:39:06Z</time>
      </trkpt>
      <trkpt lat="43.7398" lon="6.97452">
        <ele>1063.113</ele>
        <time>2012-01-29T13:39:11Z</time>
      </trkpt>
      <trkpt lat="43.7397" lon="6.97437">
        <ele>1062.064</ele>
        <time>2012-01-29T13:39:16Z</time>
      </trkpt>
      <trkpt lat="43.73961" lon="6.97417">
        <ele>1060.865</ele>
        <time>2012-01-29T13:39:22Z</time>
      </trkpt>
      <trkpt lat="43.73951" lon="6.97399">
        <ele>1059.205</ele>
        <time>2012-01-29T13:39:27Z</time>
      </trkpt>
      <trkpt lat="43.73945" lon="6.9738">
        <ele>1055.413</ele>
        <time>2012-01-29T13:39:32Z</time>
      </trkpt>
      <trkpt lat="43.73936" lon="6.97363">
        <ele>1053.514</ele>
        <time>2012-01-29T13:39:38Z</time>
      </trkpt>
      <trkpt lat="43.7393" lon="6.97362">
        <ele>1052.014</ele>
        <time>2012-01-29T13:39:42Z</time>
      </trkpt>
      <trkpt lat="43.73924" lon="6.97362">
        <ele>1050.135</ele>
        <time>2012-01-29T13:39:46Z</time>
      </trkpt>
      <trkpt lat="43.73922" lon="6.97362">
        <ele>1049.765</ele>
        <time>2012-01-29T13:39:47Z</time>
      </trkpt>
      <trkpt lat="43.73912" lon="6.97375">
        <ele>1046.214</ele>
        <time>2012-01-29T13:39:53Z</time>
      </trkpt>
      <trkpt lat="43.73911" lon="6.97383">
        <ele>1044.123</ele>
        <time>2012-01-29T13:39:56Z</time>
      </trkpt>
      <trkpt lat="43.73903" lon="6.97394">
        <ele>1041.353</ele>
        <time>2012-01-29T13:40:00Z</time>
      </trkpt>
      <trkpt lat="43.73899" lon="6.97398">
        <ele>1040.443</ele>
        <time>2012-01-29T13:40:02Z</time>
      </trkpt>
      <trkpt lat="43.73885" lon="6.9739">
        <ele>1040.904</ele>
        <time>2012-01-29T13:40:08Z</time>
      </trkpt>
      <trkpt lat="43.73877" lon="6.97386">
        <ele>1042.436</ele>
        <time>2012-01-29T13:40:11Z</time>
      </trkpt>
      <trkpt lat="43.73867" lon="6.9738">
        <ele>1046.188</ele>
        <time>2012-01-29T13:40:16Z</time>
      </trkpt>
      <trkpt lat="43.73857" lon="6.97381">
        <ele>1047.978</ele>
        <time>2012-01-29T13:40:22Z</time>
      </trkpt>
      <trkpt lat="43.73847" lon="6.97386">
        <ele>1048.188</ele>
        <time>2012-01-29T13:40:27Z</time>
      </trkpt>
      <trkpt lat="43.73838" lon="6.97396">
        <ele>1046.726</ele>
        <time>2012-01-29T13:40:32Z</time>
      </trkpt>
      <trkpt lat="43.7383" lon="6.97407">
        <ele>1045.437</ele>
        <time>2012-01-29T13:40:38Z</time>
      </trkpt>
      <trkpt lat="43.73823" lon="6.97412">
        <ele>1047.138</ele>
        <time>2012-01-29T13:40:43Z</time>
      </trkpt>
      <trkpt lat="43.73816" lon="6.97416">
        <ele>1047.188</ele>
        <time>2012-01-29T13:40:47Z</time>
      </trkpt>
      <trkpt lat="43.73799" lon="6.97427">
        <ele>1046.836</ele>
        <time>2012-01-29T13:40:57Z</time>
      </trkpt>
      <trkpt lat="43.73784" lon="6.97433">
        <ele>1046.757</ele>
        <time>2012-01-29T13:41:04Z</time>
      </trkpt>
      <trkpt lat="43.73771" lon="6.97437">
        <ele>1047.006</ele>
        <time>2012-01-29T13:41:10Z</time>
      </trkpt>
      <trkpt lat="43.73753" lon="6.97443">
        <ele>1048.177</ele>
        <time>2012-01-29T13:41:18Z</time>
      </trkpt>
      <trkpt lat="43.73739" lon="6.9745">
        <ele>1047.966</ele>
        <time>2012-01-29T13:41:24Z</time>
      </trkpt>
      <trkpt lat="43.73726" lon="6.97452">
        <ele>1048.506</ele>
        <time>2012-01-29T13:41:29Z</time>
      </trkpt>
      <trkpt lat="43.73702" lon="6.97455">
        <ele>1045.526</ele>
        <time>2012-01-29T13:41:37Z</time>
      </trkpt>
      <trkpt lat="43.7368" lon="6.97458">
        <ele>1043.167</ele>
        <time>2012-01-29T13:41:45Z</time>
      </trkpt>
      <trkpt lat="43.73669" lon="6.97461">
        <ele>1042.777</ele>
        <time>2012-01-29T13:41:50Z</time>
      </trkpt>
      <trkpt lat="43.73655" lon="6.97465">
        <ele>1043.187</ele>
        <time>2012-01-29T13:41:57Z</time>
      </trkpt>
      <trkpt lat="43.73646" lon="6.97469">
        <ele>1042.846</ele>
        <time>2012-01-29T13:42:03Z</time>
      </trkpt>
      <trkpt lat="43.73642" lon="6.97469">
        <ele>1044.197</ele>
        <time>2012-01-29T13:42:06Z</time>
      </trkpt>
      <trkpt lat="43.73632" lon="6.97469">
        <ele>1047.157</ele>
        <time>2012-01-29T13:42:14Z</time>
      </trkpt>
      <trkpt lat="43.73631" lon="6.97468">
        <ele>1047.497</ele>
        <time>2012-01-29T13:42:15Z</time>
      </trkpt>
      <trkpt lat="43.73626" lon="6.97467">
        <ele>1047.577</ele>
        <time>2012-01-29T13:42:18Z</time>
      </trkpt>
      <trkpt lat="43.73618" lon="6.97463">
        <ele>1046.346</ele>
        <time>2012-01-29T13:42:23Z</time>
      </trkpt>
      <trkpt lat="43.73615" lon="6.97462">
        <ele>1046.076</ele>
        <time>2012-01-29T13:42:25Z</time>
      </trkpt>
      <trkpt lat="43.73602" lon="6.97458">
        <ele>1048.116</ele>
        <time>2012-01-29T13:42:34Z</time>
      </trkpt>
      <trkpt lat="43.73595" lon="6.97457">
        <ele>1047.525</ele>
        <time>2012-01-29T13:42:39Z</time>
      </trkpt>
      <trkpt lat="43.73582" lon="6.97453">
        <ele>1045.575</ele>
        <time>2012-01-29T13:42:46Z</time>
      </trkpt>
      <trkpt lat="43.73571" lon="6.97444">
        <ele>1045.515</ele>
        <time>2012-01-29T13:42:53Z</time>
      </trkpt>
      <trkpt lat="43.73559" lon="6.97431">
        <ele>1045.175</ele>
        <time>2012-01-29T13:43:01Z</time>
      </trkpt>
      <trkpt lat="43.73549" lon="6.97416">
        <ele>1043.755</ele>
        <time>2012-01-29T13:43:08Z</time>
      </trkpt>
      <trkpt lat="43.73541" lon="6.97396">
        <ele>1042.234</ele>
        <time>2012-01-29T13:43:15Z</time>
      </trkpt>
      <trkpt lat="43.73529" lon="6.97365">
        <ele>1040.724</ele>
        <time>2012-01-29T13:43:23Z</time>
      </trkpt>
      <trkpt lat="43.73518" lon="6.97353">
        <ele>1039.134</ele>
        <time>2012-01-29T13:43:27Z</time>
      </trkpt>
      <trkpt lat="43.73506" lon="6.97347">
        <ele>1037.914</ele>
        <time>2012-01-29T13:43:32Z</time>
      </trkpt>
      <trkpt lat="43.73493" lon="6.97341">
        <ele>1037.486</ele>
        <time>2012-01-29T13:43:38Z</time>
      </trkpt>
      <trkpt lat="43.73481" lon="6.97336">
        <ele>1037.226</ele>
        <time>2012-01-29T13:43:45Z</time>
      </trkpt>
      <trkpt lat="43.7347" lon="6.97332">
        <ele>1037.025</ele>
        <time>2012-01-29T13:43:52Z</time>
      </trkpt>
      <trkpt lat="43.73459" lon="6.97327">
        <ele>1037.405</ele>
        <time>2012-01-29T13:43:59Z</time>
      </trkpt>
      <trkpt lat="43.73448" lon="6.97322">
        <ele>1037.135</ele>
        <time>2012-01-29T13:44:05Z</time>
      </trkpt>
      <trkpt lat="43.7344" lon="6.97317">
        <ele>1038.105</ele>
        <time>2012-01-29T13:44:11Z</time>
      </trkpt>
      <trkpt lat="43.73434" lon="6.97315">
        <ele>1039.286</ele>
        <time>2012-01-29T13:44:36Z</time>
      </trkpt>
      <trkpt lat="43.73432" lon="6.97315">
        <ele>1038.575</ele>
        <time>2012-01-29T13:44:42Z</time>
      </trkpt>
      <trkpt lat="43.73426" lon="6.97312">
        <ele>1038.565</ele>
        <time>2012-01-29T13:44:48Z</time>
      </trkpt>
      <trkpt lat="43.73416" lon="6.97307">
        <ele>1039.465</ele>
        <time>2012-01-29T13:44:55Z</time>
      </trkpt>
      <trkpt lat="43.73407" lon="6.97304">
        <ele>1038.805</ele>
        <time>2012-01-29T13:45:01Z</time>
      </trkpt>
      <trkpt lat="43.73395" lon="6.97299">
        <ele>1037.915</ele>
        <time>2012-01-29T13:45:10Z</time>
      </trkpt>
      <trkpt lat="43.73383" lon="6.97294">
        <ele>1037.405</ele>
        <time>2012-01-29T13:45:18Z</time>
      </trkpt>
      <trkpt lat="43.73371" lon="6.97288">
        <ele>1036.424</ele>
        <time>2012-01-29T13:45:26Z</time>
      </trkpt>
      <trkpt lat="43.73361" lon="6.97284">
        <ele>1035.694</ele>
        <time>2012-01-29T13:45:31Z</time>
      </trkpt>
      <trkpt lat="43.73347" lon="6.97278">
        <ele>1035.095</ele>
        <time>2012-01-29T13:45:39Z</time>
      </trkpt>
      <trkpt lat="43.73332" lon="6.97272">
        <ele>1034.837</ele>
        <time>2012-01-29T13:45:48Z</time>
      </trkpt>
      <trkpt lat="43.73319" lon="6.97266">
        <ele>1035.096</ele>
        <time>2012-01-29T13:45:56Z</time>
      </trkpt>
      <trkpt lat="43.73308" lon="6.97262">
        <ele>1036.186</ele>
        <time>2012-01-29T13:46:03Z</time>
      </trkpt>
      <trkpt lat="43.733" lon="6.97259">
        <ele>1036.695</ele>
        <time>2012-01-29T13:46:09Z</time>
      </trkpt>
      <trkpt lat="43.73298" lon="6.97258">
        <ele>1036.685</ele>
        <time>2012-01-29T13:46:11Z</time>
      </trkpt>
      <trkpt lat="43.73289" lon="6.97254">
        <ele>1037.265</ele>
        <time>2012-01-29T13:46:18Z</time>
      </trkpt>
      <trkpt lat="43.73285" lon="6.97252">
        <ele>1037.975</ele>
        <time>2012-01-29T13:46:23Z</time>
      </trkpt>
      <trkpt lat="43.73282" lon="6.97251">
        <ele>1039.005</ele>
        <time>2012-01-29T13:46:28Z</time>
      </trkpt>
      <trkpt lat="43.73277" lon="6.97248">
        <ele>1037.215</ele>
        <time>2012-01-29T13:47:26Z</time>
      </trkpt>
      <trkpt lat="43.73259" lon="6.97241">
        <ele>1037.455</ele>
        <time>2012-01-29T13:47:35Z</time>
      </trkpt>
      <trkpt lat="43.73245" lon="6.97235">
        <ele>1038.005</ele>
        <time>2012-01-29T13:47:42Z</time>
      </trkpt>
      <trkpt lat="43.73232" lon="6.9723">
        <ele>1038.705</ele>
        <time>2012-01-29T13:47:49Z</time>
      </trkpt>
      <trkpt lat="43.73222" lon="6.97226">
        <ele>1039.155</ele>
        <time>2012-01-29T13:47:55Z</time>
      </trkpt>
      <trkpt lat="43.7321" lon="6.9722">
        <ele>1039.294</ele>
        <time>2012-01-29T13:48:02Z</time>
      </trkpt>
      <trkpt lat="43.73195" lon="6.97214">
        <ele>1039.354</ele>
        <time>2012-01-29T13:48:09Z</time>
      </trkpt>
      <trkpt lat="43.73179" lon="6.97206">
        <ele>1038.433</ele>
        <time>2012-01-29T13:48:16Z</time>
      </trkpt>
      <trkpt lat="43.73162" lon="6.97199">
        <ele>1037.944</ele>
        <time>2012-01-29T13:48:23Z</time>
      </trkpt>
      <trkpt lat="43.73145" lon="6.97191">
        <ele>1037.294</ele>
        <time>2012-01-29T13:48:31Z</time>
      </trkpt>
      <trkpt lat="43.73129" lon="6.97185">
        <ele>1036.743</ele>
        <time>2012-01-29T13:48:37Z</time>
      </trkpt>
      <trkpt lat="43.73109" lon="6.97176">
        <ele>1036.794</ele>
        <time>2012-01-29T13:48:45Z</time>
      </trkpt>
      <trkpt lat="43.73094" lon="6.9717">
        <ele>1037.165</ele>
        <time>2012-01-29T13:48:51Z</time>
      </trkpt>
      <trkpt lat="43.73079" lon="6.97164">
        <ele>1037.875</ele>
        <time>2012-01-29T13:48:59Z</time>
      </trkpt>
      <trkpt lat="43.73061" lon="6.97157">
        <ele>1038.354</ele>
        <time>2012-01-29T13:49:08Z</time>
      </trkpt>
      <trkpt lat="43.73043" lon="6.97149">
        <ele>1039.175</ele>
        <time>2012-01-29T13:49:18Z</time>
      </trkpt>
      <trkpt lat="43.73034" lon="6.97146">
        <ele>1039.714</ele>
        <time>2012-01-29T13:49:25Z</time>
      </trkpt>
      <trkpt lat="43.73024" lon="6.97141">
        <ele>1039.634</ele>
        <time>2012-01-29T13:49:34Z</time>
      </trkpt>
      <trkpt lat="43.73016" lon="6.97132">
        <ele>1040.093</ele>
        <time>2012-01-29T13:49:41Z</time>
      </trkpt>
      <trkpt lat="43.73011" lon="6.97127">
        <ele>1040.584</ele>
        <time>2012-01-29T13:49:45Z</time>
      </trkpt>
      <trkpt lat="43.73003" lon="6.97117">
        <ele>1040.893</ele>
        <time>2012-01-29T13:49:51Z</time>
      </trkpt>
      <trkpt lat="43.72996" lon="6.9711">
        <ele>1040.262</ele>
        <time>2012-01-29T13:49:56Z</time>
      </trkpt>
      <trkpt lat="43.72995" lon="6.97109">
        <ele>1039.583</ele>
        <time>2012-01-29T13:50:02Z</time>
      </trkpt>
      <trkpt lat="43.72989" lon="6.97112">
        <ele>1038.603</ele>
        <time>2012-01-29T13:50:07Z</time>
      </trkpt>
      <trkpt lat="43.72992" lon="6.97118">
        <ele>1037.742</ele>
        <time>2012-01-29T13:50:10Z</time>
      </trkpt>
      <trkpt lat="43.72996" lon="6.97131">
        <ele>1034.861</ele>
        <time>2012-01-29T13:50:16Z</time>
      </trkpt>
      <trkpt lat="43.72996" lon="6.97134">
        <ele>1033.961</ele>
        <time>2012-01-29T13:50:17Z</time>
      </trkpt>
      <trkpt lat="43.7299" lon="6.97131">
        <ele>1031.931</ele>
        <time>2012-01-29T13:50:21Z</time>
      </trkpt>
      <trkpt lat="43.72986" lon="6.97126">
        <ele>1031.741</ele>
        <time>2012-01-29T13:50:23Z</time>
      </trkpt>
      <trkpt lat="43.72985" lon="6.97133">
        <ele>1029.851</ele>
        <time>2012-01-29T13:50:27Z</time>
      </trkpt>
      <trkpt lat="43.72986" lon="6.97136">
        <ele>1029.381</ele>
        <time>2012-01-29T13:50:28Z</time>
      </trkpt>
      <trkpt lat="43.72989" lon="6.97155">
        <ele>1027.321</ele>
        <time>2012-01-29T13:50:34Z</time>
      </trkpt>
      <trkpt lat="43.7299" lon="6.97178">
        <ele>1023.95</ele>
        <time>2012-01-29T13:50:41Z</time>
      </trkpt>
      <trkpt lat="43.72989" lon="6.97185">
        <ele>1022.683</ele>
        <time>2012-01-29T13:50:46Z</time>
      </trkpt>
      <trkpt lat="43.72993" lon="6.9719">
        <ele>1015.082</ele>
        <time>2012-01-29T13:52:00Z</time>
      </trkpt>
      <trkpt lat="43.72992" lon="6.97206">
        <ele>1011.95</ele>
        <time>2012-01-29T13:52:05Z</time>
      </trkpt>
      <trkpt lat="43.72987" lon="6.97225">
        <ele>1009.61</ele>
        <time>2012-01-29T13:52:10Z</time>
      </trkpt>
      <trkpt lat="43.72977" lon="6.97242">
        <ele>1008.98</ele>
        <time>2012-01-29T13:52:14Z</time>
      </trkpt>
      <trkpt lat="43.72967" lon="6.97264">
        <ele>1006</ele>
        <time>2012-01-29T13:52:20Z</time>
      </trkpt>
      <trkpt lat="43.72966" lon="6.97265">
        <ele>1005.449</ele>
        <time>2012-01-29T13:52:21Z</time>
      </trkpt>
      <trkpt lat="43.72963" lon="6.97276">
        <ele>1002.65</ele>
        <time>2012-01-29T13:52:26Z</time>
      </trkpt>
      <trkpt lat="43.72962" lon="6.9728">
        <ele>1002.08</ele>
        <time>2012-01-29T13:52:27Z</time>
      </trkpt>
      <trkpt lat="43.72957" lon="6.97282">
        <ele>999.961</ele>
        <time>2012-01-29T13:52:32Z</time>
      </trkpt>
      <trkpt lat="43.72961" lon="6.97261">
        <ele>998.441</ele>
        <time>2012-01-29T13:52:38Z</time>
      </trkpt>
      <trkpt lat="43.72956" lon="6.97258">
        <ele>997.422</ele>
        <time>2012-01-29T13:52:42Z</time>
      </trkpt>
      <trkpt lat="43.72955" lon="6.97261">
        <ele>996.951</ele>
        <time>2012-01-29T13:52:43Z</time>
      </trkpt>
      <trkpt lat="43.72943" lon="6.97289">
        <ele>992.4</ele>
        <time>2012-01-29T13:52:51Z</time>
      </trkpt>
      <trkpt lat="43.72936" lon="6.97304">
        <ele>990.431</ele>
        <time>2012-01-29T13:52:55Z</time>
      </trkpt>
      <trkpt lat="43.72933" lon="6.97301">
        <ele>989.321</ele>
        <time>2012-01-29T13:52:59Z</time>
      </trkpt>
      <trkpt lat="43.72937" lon="6.97259">
        <ele>987.741</ele>
        <time>2012-01-29T13:53:08Z</time>
      </trkpt>
      <trkpt lat="43.7294" lon="6.97244">
        <ele>986.422</ele>
        <time>2012-01-29T13:53:12Z</time>
      </trkpt>
      <trkpt lat="43.72934" lon="6.97246">
        <ele>986.272</ele>
        <time>2012-01-29T13:53:16Z</time>
      </trkpt>
      <trkpt lat="43.7293" lon="6.9726">
        <ele>985.091</ele>
        <time>2012-01-29T13:53:19Z</time>
      </trkpt>
      <trkpt lat="43.72917" lon="6.97289">
        <ele>981.36</ele>
        <time>2012-01-29T13:53:25Z</time>
      </trkpt>
      <trkpt lat="43.72913" lon="6.97299">
        <ele>979.75</ele>
        <time>2012-01-29T13:53:27Z</time>
      </trkpt>
      <trkpt lat="43.72903" lon="6.97318">
        <ele>976.39</ele>
        <time>2012-01-29T13:53:31Z</time>
      </trkpt>
      <trkpt lat="43.72883" lon="6.97352">
        <ele>970.159</ele>
        <time>2012-01-29T13:53:38Z</time>
      </trkpt>
      <trkpt lat="43.72881" lon="6.97347">
        <ele>967.661</ele>
        <time>2012-01-29T13:53:42Z</time>
      </trkpt>
      <trkpt lat="43.7289" lon="6.97318">
        <ele>964.12</ele>
        <time>2012-01-29T13:53:48Z</time>
      </trkpt>
      <trkpt lat="43.72893" lon="6.97287">
        <ele>963.071</ele>
        <time>2012-01-29T13:53:54Z</time>
      </trkpt>
      <trkpt lat="43.72897" lon="6.97268">
        <ele>962.241</ele>
        <time>2012-01-29T13:53:58Z</time>
      </trkpt>
      <trkpt lat="43.72893" lon="6.97263">
        <ele>960.881</ele>
        <time>2012-01-29T13:54:02Z</time>
      </trkpt>
      <trkpt lat="43.72891" lon="6.97268">
        <ele>959.521</ele>
        <time>2012-01-29T13:54:04Z</time>
      </trkpt>
      <trkpt lat="43.72878" lon="6.9729">
        <ele>953.098</ele>
        <time>2012-01-29T13:54:10Z</time>
      </trkpt>
      <trkpt lat="43.72869" lon="6.97302">
        <ele>948.647</ele>
        <time>2012-01-29T13:54:14Z</time>
      </trkpt>
      <trkpt lat="43.72866" lon="6.97299">
        <ele>946.43</ele>
        <time>2012-01-29T13:54:18Z</time>
      </trkpt>
      <trkpt lat="43.72867" lon="6.97295">
        <ele>946.009</ele>
        <time>2012-01-29T13:54:19Z</time>
      </trkpt>
      <trkpt lat="43.72874" lon="6.97266">
        <ele>942.83</ele>
        <time>2012-01-29T13:54:26Z</time>
      </trkpt>
      <trkpt lat="43.72876" lon="6.97258">
        <ele>941.589</ele>
        <time>2012-01-29T13:54:28Z</time>
      </trkpt>
      <trkpt lat="43.72872" lon="6.97257">
        <ele>939.92</ele>
        <time>2012-01-29T13:54:32Z</time>
      </trkpt>
      <trkpt lat="43.72863" lon="6.97276">
        <ele>936.18</ele>
        <time>2012-01-29T13:54:37Z</time>
      </trkpt>
      <trkpt lat="43.72856" lon="6.9729">
        <ele>933.639</ele>
        <time>2012-01-29T13:54:40Z</time>
      </trkpt>
      <trkpt lat="43.72842" lon="6.97315">
        <ele>928.819</ele>
        <time>2012-01-29T13:54:45Z</time>
      </trkpt>
      <trkpt lat="43.72839" lon="6.97321">
        <ele>927.919</ele>
        <time>2012-01-29T13:54:46Z</time>
      </trkpt>
      <trkpt lat="43.72827" lon="6.97347">
        <ele>925.031</ele>
        <time>2012-01-29T13:54:52Z</time>
      </trkpt>
      <trkpt lat="43.7282" lon="6.97355">
        <ele>923.6</ele>
        <time>2012-01-29T13:54:54Z</time>
      </trkpt>
      <trkpt lat="43.72809" lon="6.97373">
        <ele>920.789</ele>
        <time>2012-01-29T13:54:57Z</time>
      </trkpt>
      <trkpt lat="43.72794" lon="6.97391">
        <ele>917.909</ele>
        <time>2012-01-29T13:55:00Z</time>
      </trkpt>
      <trkpt lat="43.72785" lon="6.97414">
        <ele>915.959</ele>
        <time>2012-01-29T13:55:04Z</time>
      </trkpt>
      <trkpt lat="43.72781" lon="6.97417">
        <ele>915.459</ele>
        <time>2012-01-29T13:55:05Z</time>
      </trkpt>
      <trkpt lat="43.72763" lon="6.9743">
        <ele>911.009</ele>
        <time>2012-01-29T13:55:10Z</time>
      </trkpt>
      <trkpt lat="43.72763" lon="6.97422">
        <ele>909.791</ele>
        <time>2012-01-29T13:55:13Z</time>
      </trkpt>
      <trkpt lat="43.72768" lon="6.97411">
        <ele>908.451</ele>
        <time>2012-01-29T13:55:16Z</time>
      </trkpt>
      <trkpt lat="43.72774" lon="6.97387">
        <ele>906.22</ele>
        <time>2012-01-29T13:55:21Z</time>
      </trkpt>
      <trkpt lat="43.72776" lon="6.97366">
        <ele>905.139</ele>
        <time>2012-01-29T13:55:24Z</time>
      </trkpt>
      <trkpt lat="43.72777" lon="6.97351">
        <ele>903.949</ele>
        <time>2012-01-29T13:55:26Z</time>
      </trkpt>
      <trkpt lat="43.72779" lon="6.97318">
        <ele>901.469</ele>
        <time>2012-01-29T13:55:30Z</time>
      </trkpt>
      <trkpt lat="43.72783" lon="6.97277">
        <ele>898.349</ele>
        <time>2012-01-29T13:55:35Z</time>
      </trkpt>
      <trkpt lat="43.72787" lon="6.97261">
        <ele>896.859</ele>
        <time>2012-01-29T13:55:37Z</time>
      </trkpt>
      <trkpt lat="43.72791" lon="6.97226">
        <ele>895.53</ele>
        <time>2012-01-29T13:55:42Z</time>
      </trkpt>
      <trkpt lat="43.72791" lon="6.97214">
        <ele>895.131</ele>
        <time>2012-01-29T13:55:44Z</time>
      </trkpt>
      <trkpt lat="43.7279" lon="6.97201">
        <ele>894.68</ele>
        <time>2012-01-29T13:55:46Z</time>
      </trkpt>
      <trkpt lat="43.72789" lon="6.97187">
        <ele>893.65</ele>
        <time>2012-01-29T13:55:48Z</time>
      </trkpt>
      <trkpt lat="43.72787" lon="6.97167">
        <ele>892.62</ele>
        <time>2012-01-29T13:55:51Z</time>
      </trkpt>
      <trkpt lat="43.72785" lon="6.97129">
        <ele>888.83</ele>
        <time>2012-01-29T13:55:58Z</time>
      </trkpt>
      <trkpt lat="43.72782" lon="6.97105">
        <ele>886.78</ele>
        <time>2012-01-29T13:56:03Z</time>
      </trkpt>
      <trkpt lat="43.72782" lon="6.97081">
        <ele>883.969</ele>
        <time>2012-01-29T13:56:07Z</time>
      </trkpt>
      <trkpt lat="43.72783" lon="6.97061">
        <ele>881.288</ele>
        <time>2012-01-29T13:56:10Z</time>
      </trkpt>
      <trkpt lat="43.72781" lon="6.97047">
        <ele>878.98</ele>
        <time>2012-01-29T13:56:14Z</time>
      </trkpt>
      <trkpt lat="43.7278" lon="6.97041">
        <ele>877.071</ele>
        <time>2012-01-29T13:56:34Z</time>
      </trkpt>
      <trkpt lat="43.72779" lon="6.97017">
        <ele>875.27</ele>
        <time>2012-01-29T13:56:38Z</time>
      </trkpt>
      <trkpt lat="43.7277" lon="6.96973">
        <ele>870.918</ele>
        <time>2012-01-29T13:56:44Z</time>
      </trkpt>
      <trkpt lat="43.72756" lon="6.96926">
        <ele>866.336</ele>
        <time>2012-01-29T13:56:50Z</time>
      </trkpt>
      <trkpt lat="43.72741" lon="6.96874">
        <ele>860.388</ele>
        <time>2012-01-29T13:56:56Z</time>
      </trkpt>
      <trkpt lat="43.72734" lon="6.96851">
        <ele>858.027</ele>
        <time>2012-01-29T13:56:59Z</time>
      </trkpt>
      <trkpt lat="43.72724" lon="6.96839">
        <ele>856.679</ele>
        <time>2012-01-29T13:57:02Z</time>
      </trkpt>
      <trkpt lat="43.72721" lon="6.9684">
        <ele>856.46</ele>
        <time>2012-01-29T13:57:03Z</time>
      </trkpt>
      <trkpt lat="43.72709" lon="6.96843">
        <ele>854.69</ele>
        <time>2012-01-29T13:57:07Z</time>
      </trkpt>
      <trkpt lat="43.72707" lon="6.9684">
        <ele>854.711</ele>
        <time>2012-01-29T13:57:08Z</time>
      </trkpt>
      <trkpt lat="43.72706" lon="6.96832">
        <ele>854.673</ele>
        <time>2012-01-29T13:57:13Z</time>
      </trkpt>
      <trkpt lat="43.72706" lon="6.96833">
        <ele>855.853</ele>
        <time>2012-01-29T13:57:23Z</time>
      </trkpt>
      <trkpt lat="43.72707" lon="6.96833">
        <ele>857.162</ele>
        <time>2012-01-29T13:57:42Z</time>
      </trkpt>
      <trkpt lat="43.72706" lon="6.96828">
        <ele>850.593</ele>
        <time>2012-01-29T14:00:33Z</time>
      </trkpt>
      <trkpt lat="43.72702" lon="6.96819">
        <ele>851.372</ele>
        <time>2012-01-29T14:00:55Z</time>
      </trkpt>
      <trkpt lat="43.72697" lon="6.96815">
        <ele>850.402</ele>
        <time>2012-01-29T14:00:58Z</time>
      </trkpt>
      <trkpt lat="43.72688" lon="6.9682">
        <ele>849.372</ele>
        <time>2012-01-29T14:01:04Z</time>
      </trkpt>
      <trkpt lat="43.72675" lon="6.96836">
        <ele>847.031</ele>
        <time>2012-01-29T14:01:11Z</time>
      </trkpt>
      <trkpt lat="43.7266" lon="6.96844">
        <ele>844.862</ele>
        <time>2012-01-29T14:01:17Z</time>
      </trkpt>
      <trkpt lat="43.72652" lon="6.96849">
        <ele>843.232</ele>
        <time>2012-01-29T14:01:22Z</time>
      </trkpt>
      <trkpt lat="43.72651" lon="6.96849">
        <ele>842.162</ele>
        <time>2012-01-29T14:01:27Z</time>
      </trkpt>
      <trkpt lat="43.72645" lon="6.96854">
        <ele>839.05</ele>
        <time>2012-01-29T14:01:38Z</time>
      </trkpt>
      <trkpt lat="43.72637" lon="6.96861">
        <ele>836.959</ele>
        <time>2012-01-29T14:01:41Z</time>
      </trkpt>
      <trkpt lat="43.72623" lon="6.96855">
        <ele>833.919</ele>
        <time>2012-01-29T14:01:45Z</time>
      </trkpt>
      <trkpt lat="43.72599" lon="6.96836">
        <ele>830.459</ele>
        <time>2012-01-29T14:01:51Z</time>
      </trkpt>
      <trkpt lat="43.72579" lon="6.9681">
        <ele>828.68</ele>
        <time>2012-01-29T14:01:56Z</time>
      </trkpt>
      <trkpt lat="43.72551" lon="6.96787">
        <ele>825.399</ele>
        <time>2012-01-29T14:02:02Z</time>
      </trkpt>
      <trkpt lat="43.72521" lon="6.96763">
        <ele>820.397</ele>
        <time>2012-01-29T14:02:08Z</time>
      </trkpt>
      <trkpt lat="43.72509" lon="6.96751">
        <ele>818.709</ele>
        <time>2012-01-29T14:02:11Z</time>
      </trkpt>
      <trkpt lat="43.72498" lon="6.96759">
        <ele>816.54</ele>
        <time>2012-01-29T14:02:15Z</time>
      </trkpt>
      <trkpt lat="43.72498" lon="6.96764">
        <ele>816.52</ele>
        <time>2012-01-29T14:02:16Z</time>
      </trkpt>
      <trkpt lat="43.72499" lon="6.96769">
        <ele>816.13</ele>
        <time>2012-01-29T14:02:18Z</time>
      </trkpt>
      <trkpt lat="43.72487" lon="6.96748">
        <ele>814.11</ele>
        <time>2012-01-29T14:02:23Z</time>
      </trkpt>
      <trkpt lat="43.72483" lon="6.96724">
        <ele>812.7</ele>
        <time>2012-01-29T14:02:27Z</time>
      </trkpt>
      <trkpt lat="43.7247" lon="6.96713">
        <ele>809.206</ele>
        <time>2012-01-29T14:02:31Z</time>
      </trkpt>
      <trkpt lat="43.72453" lon="6.96691">
        <ele>804.338</ele>
        <time>2012-01-29T14:02:36Z</time>
      </trkpt>
      <trkpt lat="43.7244" lon="6.96678">
        <ele>801.447</ele>
        <time>2012-01-29T14:02:39Z</time>
      </trkpt>
      <trkpt lat="43.7243" lon="6.96644">
        <ele>796.907</ele>
        <time>2012-01-29T14:02:44Z</time>
      </trkpt>
      <trkpt lat="43.72418" lon="6.9661">
        <ele>792.148</ele>
        <time>2012-01-29T14:02:49Z</time>
      </trkpt>
      <trkpt lat="43.72406" lon="6.96604">
        <ele>790.378</ele>
        <time>2012-01-29T14:02:52Z</time>
      </trkpt>
      <trkpt lat="43.72398" lon="6.96604">
        <ele>788.437</ele>
        <time>2012-01-29T14:02:54Z</time>
      </trkpt>
      <trkpt lat="43.72385" lon="6.96609">
        <ele>785.947</ele>
        <time>2012-01-29T14:02:57Z</time>
      </trkpt>
      <trkpt lat="43.72379" lon="6.9663">
        <ele>782.567</ele>
        <time>2012-01-29T14:03:01Z</time>
      </trkpt>
      <trkpt lat="43.72378" lon="6.96644">
        <ele>781.308</ele>
        <time>2012-01-29T14:03:03Z</time>
      </trkpt>
      <trkpt lat="43.72366" lon="6.96682">
        <ele>778.649</ele>
        <time>2012-01-29T14:03:09Z</time>
      </trkpt>
      <trkpt lat="43.72363" lon="6.96695">
        <ele>777.65</ele>
        <time>2012-01-29T14:03:12Z</time>
      </trkpt>
      <trkpt lat="43.72356" lon="6.96708">
        <ele>778.172</ele>
        <time>2012-01-29T14:03:17Z</time>
      </trkpt>
      <trkpt lat="43.72348" lon="6.96708">
        <ele>779.713</ele>
        <time>2012-01-29T14:03:21Z</time>
      </trkpt>
      <trkpt lat="43.7233" lon="6.96705">
        <ele>780.283</ele>
        <time>2012-01-29T14:03:28Z</time>
      </trkpt>
      <trkpt lat="43.72311" lon="6.96706">
        <ele>780.023</ele>
        <time>2012-01-29T14:03:35Z</time>
      </trkpt>
      <trkpt lat="43.72293" lon="6.96714">
        <ele>779.583</ele>
        <time>2012-01-29T14:03:41Z</time>
      </trkpt>
      <trkpt lat="43.7227" lon="6.96721">
        <ele>779.102</ele>
        <time>2012-01-29T14:03:48Z</time>
      </trkpt>
      <trkpt lat="43.72259" lon="6.96735">
        <ele>776.381</ele>
        <time>2012-01-29T14:03:52Z</time>
      </trkpt>
      <trkpt lat="43.72258" lon="6.9674">
        <ele>775.74</ele>
        <time>2012-01-29T14:03:53Z</time>
      </trkpt>
      <trkpt lat="43.72256" lon="6.96771">
        <ele>772.889</ele>
        <time>2012-01-29T14:03:59Z</time>
      </trkpt>
      <trkpt lat="43.72254" lon="6.9679">
        <ele>771.77</ele>
        <time>2012-01-29T14:04:03Z</time>
      </trkpt>
      <trkpt lat="43.72256" lon="6.96809">
        <ele>772.091</ele>
        <time>2012-01-29T14:04:08Z</time>
      </trkpt>
      <trkpt lat="43.7226" lon="6.96846">
        <ele>771.532</ele>
        <time>2012-01-29T14:04:16Z</time>
      </trkpt>
      <trkpt lat="43.72263" lon="6.9689">
        <ele>771.571</ele>
        <time>2012-01-29T14:04:24Z</time>
      </trkpt>
      <trkpt lat="43.72261" lon="6.96929">
        <ele>772.331</ele>
        <time>2012-01-29T14:04:29Z</time>
      </trkpt>
      <trkpt lat="43.72265" lon="6.96994">
        <ele>771.181</ele>
        <time>2012-01-29T14:04:37Z</time>
      </trkpt>
      <trkpt lat="43.72273" lon="6.97022">
        <ele>769.25</ele>
        <time>2012-01-29T14:04:42Z</time>
      </trkpt>
      <trkpt lat="43.72273" lon="6.97028">
        <ele>769.111</ele>
        <time>2012-01-29T14:04:43Z</time>
      </trkpt>
      <trkpt lat="43.72273" lon="6.97082">
        <ele>767.931</ele>
        <time>2012-01-29T14:04:52Z</time>
      </trkpt>
      <trkpt lat="43.7227" lon="6.97129">
        <ele>768.022</ele>
        <time>2012-01-29T14:04:59Z</time>
      </trkpt>
      <trkpt lat="43.72263" lon="6.9718">
        <ele>768.091</ele>
        <time>2012-01-29T14:05:06Z</time>
      </trkpt>
      <trkpt lat="43.72251" lon="6.97226">
        <ele>768.191</ele>
        <time>2012-01-29T14:05:12Z</time>
      </trkpt>
      <trkpt lat="43.72253" lon="6.97262">
        <ele>767.991</ele>
        <time>2012-01-29T14:05:17Z</time>
      </trkpt>
      <trkpt lat="43.72259" lon="6.97294">
        <ele>767.262</ele>
        <time>2012-01-29T14:05:23Z</time>
      </trkpt>
      <trkpt lat="43.72259" lon="6.97323">
        <ele>765.811</ele>
        <time>2012-01-29T14:05:28Z</time>
      </trkpt>
      <trkpt lat="43.72247" lon="6.97354">
        <ele>764.651</ele>
        <time>2012-01-29T14:05:34Z</time>
      </trkpt>
      <trkpt lat="43.72236" lon="6.97365">
        <ele>764.322</ele>
        <time>2012-01-29T14:05:37Z</time>
      </trkpt>
      <trkpt lat="43.72202" lon="6.9739">
        <ele>762.213</ele>
        <time>2012-01-29T14:05:46Z</time>
      </trkpt>
      <trkpt lat="43.72199" lon="6.97393">
        <ele>762.063</ele>
        <time>2012-01-29T14:05:47Z</time>
      </trkpt>
      <trkpt lat="43.72187" lon="6.97412">
        <ele>761.413</ele>
        <time>2012-01-29T14:05:51Z</time>
      </trkpt>
      <trkpt lat="43.72175" lon="6.97436">
        <ele>761.863</ele>
        <time>2012-01-29T14:05:57Z</time>
      </trkpt>
      <trkpt lat="43.72175" lon="6.97439">
        <ele>762.393</ele>
        <time>2012-01-29T14:06:01Z</time>
      </trkpt>
      <trkpt lat="43.72175" lon="6.97442">
        <ele>761.032</ele>
        <time>2012-01-29T14:06:07Z</time>
      </trkpt>
      <trkpt lat="43.72175" lon="6.97446">
        <ele>759.902</ele>
        <time>2012-01-29T14:06:11Z</time>
      </trkpt>
      <trkpt lat="43.72174" lon="6.97459">
        <ele>758.352</ele>
        <time>2012-01-29T14:06:16Z</time>
      </trkpt>
      <trkpt lat="43.72173" lon="6.97483">
        <ele>757.462</ele>
        <time>2012-01-29T14:06:21Z</time>
      </trkpt>
      <trkpt lat="43.72174" lon="6.97501">
        <ele>757.392</ele>
        <time>2012-01-29T14:06:24Z</time>
      </trkpt>
      <trkpt lat="43.72175" lon="6.97533">
        <ele>756.662</ele>
        <time>2012-01-29T14:06:30Z</time>
      </trkpt>
      <trkpt lat="43.7218" lon="6.97553">
        <ele>755.911</ele>
        <time>2012-01-29T14:06:35Z</time>
      </trkpt>
      <trkpt lat="43.72178" lon="6.97567">
        <ele>753.201</ele>
        <time>2012-01-29T14:06:39Z</time>
      </trkpt>
      <trkpt lat="43.72176" lon="6.97592">
        <ele>753.141</ele>
        <time>2012-01-29T14:06:43Z</time>
      </trkpt>
      <trkpt lat="43.72171" lon="6.9762">
        <ele>751.251</ele>
        <time>2012-01-29T14:06:47Z</time>
      </trkpt>
      <trkpt lat="43.72158" lon="6.97653">
        <ele>750.491</ele>
        <time>2012-01-29T14:06:52Z</time>
      </trkpt>
      <trkpt lat="43.72137" lon="6.97695">
        <ele>746.531</ele>
        <time>2012-01-29T14:06:59Z</time>
      </trkpt>
      <trkpt lat="43.72134" lon="6.97718">
        <ele>746.002</ele>
        <time>2012-01-29T14:07:03Z</time>
      </trkpt>
      <trkpt lat="43.72138" lon="6.97737">
        <ele>745.582</ele>
        <time>2012-01-29T14:07:07Z</time>
      </trkpt>
      <trkpt lat="43.72146" lon="6.97751">
        <ele>744.522</ele>
        <time>2012-01-29T14:07:10Z</time>
      </trkpt>
      <trkpt lat="43.72155" lon="6.97762">
        <ele>743.052</ele>
        <time>2012-01-29T14:07:13Z</time>
      </trkpt>
      <trkpt lat="43.72161" lon="6.97763">
        <ele>743.032</ele>
        <time>2012-01-29T14:07:17Z</time>
      </trkpt>
      <trkpt lat="43.72163" lon="6.97763">
        <ele>743.314</ele>
        <time>2012-01-29T14:07:22Z</time>
      </trkpt>
      <trkpt lat="43.72163" lon="6.97765">
        <ele>743.884</ele>
        <time>2012-01-29T14:07:31Z</time>
      </trkpt>
      <trkpt lat="43.72162" lon="6.97766">
        <ele>744.604</ele>
        <time>2012-01-29T14:07:43Z</time>
      </trkpt>
      <trkpt lat="43.72161" lon="6.97765">
        <ele>747.605</ele>
        <time>2012-01-29T14:07:48Z</time>
      </trkpt>
      <trkpt lat="43.72162" lon="6.97763">
        <ele>747.245</ele>
        <time>2012-01-29T14:07:50Z</time>
      </trkpt>
      <trkpt lat="43.72161" lon="6.97761">
        <ele>750.845</ele>
        <time>2012-01-29T14:07:56Z</time>
      </trkpt>
      <trkpt lat="43.72159" lon="6.97764">
        <ele>756.028</ele>
        <time>2012-01-29T14:07:59Z</time>
      </trkpt>
    </trkseg>
  </trk>
</gpx>